[[{"header":{"parameterUnit":"m.s-1","parameterCategory":1,"la1":31.0,"la2":29.5877,"lo1":-88.7671,"lo2":-86.6584,"dy":0.0162,"dx":0.0185,"nx":115,"ny":88,"refTime":"2026-05-11T00:00:00:Z","depth":0,"parameterNumber":2,"parameterNumberName":"U-component_of_WINDS"},"data":[0.0,0.0,0.0,0.0,0.0,0.0,0.0,0.0,0.0,0.0,0.0,0.0,0.0,0.0,0.0,0.0,0.0,0.0,0.0,0.0,0.0,0.0,0.0,0.0,0.0,0.0,0.0,0.0,0.0,0.0,0.0,0.0,0.0,0.0,0.0,0.0,0.0,0.0,0.0,0.0,0.0,0.0,0.0,0.0,0.0,0.0,0.0,0.0,0.0,0.0,0.0,0.0,0.0,0.0,0.0,0.0,0.0,0.0,0.0,0.0,0.0,0.0,0.0,0.0,0.0,0.0,0.0,0.0,0.0,0.0,0.0,0.0,0.0,0.0,0.0,0.0,0.0,0.0,0.0,0.0,0.0,0.0,0.0,0.0,0.0,0.0,0.0,0.0,0.0,0.0,0.0,0.0,0.0,0.0,0.0,0.0,0.0,0.0,0.0,0.0,0.0,0.0,0.0,0.0,0.0,0.0,0.0,0.0,0.0,0.0,0.0,0.0,0.0,0.0,0.0,0.0,0.0,0.0,0.0,0.0,0.0,0.0,0.0,0.0,0.0,0.0,0.0,0.0,0.0,0.0,0.0,0.0,0.0,0.0,0.0,0.0,0.0,0.0,0.0,0.0,0.0,0.0,0.0,0.0,0.0,0.0,0.0,0.0,0.0,0.0,0.0,0.0,0.0,0.0,0.0,0.0,0.0,0.0,0.0,0.0,0.0,0.0,0.0,0.0,0.0,0.0,0.0,0.0,0.0,0.0,0.0,0.0,0.0,0.0,0.0,0.0,0.0,0.0,0.0,0.0,0.0,0.0,0.0,0.0,0.0,0.0,0.0,0.0,0.0,0.0,0.0,0.0,0.0,0.0,0.0,0.0,0.0,0.0,0.0,0.0,0.0,0.0,0.0,0.0,0.0,0.0,0.0,0.0,0.0,0.0,0.0,0.0,0.0,0.0,0.0,0.0,0.0,0.0,0.0,0.0,0.0,0.0,0.0,0.0,0.0,0.0,0.0,0.0,0.0,0.0,0.0,0.0,0.0,0.0,0.0,0.0,0.0,0.0,0.0,0.0,0.0,0.0,0.0,0.0,0.0,0.0,0.0,0.0,0.0,0.0,0.0,0.0,0.0,0.0,0.0,0.0,0.0,0.0,0.0,0.0,0.0,0.0,0.0,0.0,0.0,0.0,0.0,0.0,0.0,0.0,0.0,0.0,0.0,0.0,0.0,0.0,0.0,0.0,0.0,0.0,0.0,0.0,0.0,0.0,0.0,0.0,0.0,0.0,0.0,0.0,0.0,0.0,0.0,0.0,0.0,0.0,0.0,0.0,0.0,0.0,0.0,0.0,0.0,0.0,0.0,0.0,0.0,0.0,0.0,0.0,0.0,0.0,0.0,0.0,0.0,0.0,0.0,0.0,0.0,0.0,0.0,0.0,0.0,0.0,0.0,0.0,0.0,0.0,0.0,0.0,0.0,0.0,0.0,0.0,0.0,0.0,0.0,0.0,0.0,0.0,0.0,0.0,0.0,0.0,0.0,0.0,0.0,0.0,0.0,0.0,0.0,0.0,0.0,0.0,0.0,0.0,0.0,0.0,0.0,0.0,0.0,0.0,0.0,0.0,0.0,0.0,0.0,0.0,0.0,0.0,0.0,0.0,0.0,0.0,0.0,0.0,0.0,0.0,0.0,0.0,0.0,0.0,0.0,0.0,0.0,0.0,0.0,0.0,0.0,0.0,0.0,0.0,0.0,0.0,0.0,0.0,0.0,0.0,0.0,0.0,0.0,0.0,0.0,0.0,0.0,0.0,0.0,0.0,0.0,0.0,0.0,0.0,0.0,0.0,0.0,0.0,0.0,0.0,0.0,0.0,0.0,0.0,0.0,0.0,0.0,0.0,0.0,0.0,0.0,0.0,0.0,0.0,0.0,0.0,0.0,0.0,0.0,0.0,0.0,0.0,0.0,0.0,0.0,0.0,0.0,0.0,0.0,0.0,0.0,0.0,0.0,0.0,0.0,0.0,0.0,0.0,0.0,0.0,0.0,0.0,0.0,0.0,0.0,0.0,0.0,0.0,0.0,0.0,0.0,0.0,0.0,0.0,0.0,0.0,0.0,0.0,0.0,0.0,0.0,0.0,0.0,0.0,0.0,0.0,0.0,0.0,0.0,0.0,0.0,0.0,0.0,0.0,0.0,0.0,0.0,0.0,0.0,0.0,0.0,0.0,0.0,0.0,0.0,0.0,0.0,0.0,0.0,0.0,0.0,0.0,0.0,0.0,0.0,0.0,0.0,0.0,0.0,0.0,0.0,0.0,0.0,0.0,0.0,0.0,0.0,0.0,0.0,0.0,0.0,0.0,0.0,0.0,0.0,0.0,0.0,0.0,0.0,0.0,0.0,0.0,0.0,0.0,0.0,0.0,0.0,0.0,0.0,0.0,0.0,0.0,0.0,0.0,0.0,0.0,0.0,0.0,0.0,0.0,0.0,0.0,0.0,0.0,0.0,0.0,0.0,0.0,0.0,0.0,0.0,0.0,0.0,0.0,0.0,0.0,0.0,0.0,0.0,0.0,0.0,0.0,0.0,0.0,0.0,0.0,0.0,0.0,0.0,0.0,0.0,0.0,0.0,0.0,0.0,0.0,0.0,0.0,0.0,0.0,0.0,0.0,0.0,0.0,0.0,0.0,0.0,0.0,0.0,0.0,0.0,0.0,0.0,0.0,0.0,0.0,0.0,0.0,0.0,0.0,0.0,0.0,0.0,0.0,0.0,0.0,0.0,0.0,0.0,0.0,0.0,0.0,0.0,0.0,0.0,0.0,0.0,0.0,0.0,0.0,0.0,0.0,0.0,0.0,0.0,0.0,0.0,0.0,0.0,0.0,0.0,0.0,0.0,0.0,0.0,0.0,0.0,0.0,0.0,0.0,0.0,0.0,0.0,0.0,0.0,0.0,0.0,0.0,0.0,0.0,0.0,0.0,0.0,0.0,0.0,0.0,0.0,0.0,0.0,0.0,0.0,0.0,0.0,0.0,0.0,0.0,0.0,0.0,0.0,0.0,0.0,0.0,0.0,0.0,0.0,0.0,0.0,0.0,0.0,0.0,0.0,0.0,0.0,0.0,0.0,0.0,0.0,0.0,0.0,0.0,0.0,0.0,0.0,0.0,0.0,0.0,0.0,0.0,0.0,0.0,0.0,0.0,0.0,0.0,0.0,0.0,0.0,0.0,0.0,0.0,0.0,0.0,0.0,0.0,0.0,0.0,0.0,0.0,0.0,0.0,0.0,0.0,0.0,0.0,0.0,0.0,0.0,0.0,0.0,0.0,0.0,0.0,0.0,0.0,0.0,0.0,0.0,0.0,0.0,0.0,0.0,0.0,0.0,0.0,0.0,0.0,0.0,0.0,0.0,0.0,0.0,0.0,0.0,0.0,0.0,0.0,0.0,0.0,0.0,0.0,0.0,0.0,0.0,0.0,0.0,0.0,0.0,0.0,0.0,0.0,0.0,0.0,0.0,0.0,0.0,0.0,0.0,0.0,0.0,0.0,0.0,0.0,0.0,0.0,0.0,0.0,0.0,0.0,0.0,0.0,0.0,0.0,0.0,0.0,0.0,0.0,0.0,0.0,0.0,0.0,0.0,0.0,0.0,0.0,0.0,0.0,0.0,0.0,0.0,0.0,0.0,0.0,0.0,0.0,0.0,0.0,0.0,0.0,0.0,0.0,0.0,0.0,0.0,0.0,0.0,0.0,0.0,0.0,0.0,0.0,0.0,0.0,0.0,0.0,0.0,0.0,0.0,0.0,0.0,0.0,0.0,0.0,0.0,0.0,0.0,0.0,0.0,0.0,0.0,0.0,0.0,0.0,0.0,0.0,0.0,0.0,0.0,0.0,0.0,0.0,0.0,0.0,0.0,0.0,0.0,0.0,0.0,0.0,0.0,0.0,0.0,0.0,0.0,0.0,0.0,0.0,0.0,0.0,0.0,0.0,0.0,0.0,0.0,0.0,0.0,0.0,0.0,0.0,0.0,0.0,0.0,0.0,0.0,0.0,0.0,0.0,0.0,0.0,0.0,0.0,0.0,0.0,0.0,0.0,0.0,0.0,0.0,0.0,0.0,0.0,0.0,0.0,0.0,0.0,0.0,0.0,0.0,0.0,0.0,0.0,0.0,0.0,0.0,0.0,0.0,0.0,0.0,0.0,0.0,0.0,0.0,0.0,0.0,0.0,0.0,0.0,0.0,0.0,0.0,0.0,0.0,0.0,0.0,0.0,0.0,0.0,0.0,0.0,0.751,0.0,0.0,0.0,0.0,0.0,0.0,0.0,0.0,0.0,0.0,0.0,0.0,0.0,0.0,0.0,0.0,0.0,0.0,0.0,0.0,0.0,0.0,0.0,0.0,0.0,0.0,0.0,0.0,0.0,0.0,0.0,0.0,0.0,0.0,0.0,0.0,0.0,0.0,0.0,0.0,0.0,0.0,0.0,0.0,0.0,0.0,0.0,0.0,0.0,0.0,0.0,0.0,0.0,0.0,0.0,0.0,0.0,0.0,0.0,0.0,0.0,0.0,0.0,0.0,0.0,0.0,0.0,0.0,0.0,0.0,0.0,0.0,0.0,0.0,0.0,0.0,0.0,0.0,0.0,0.0,0.0,0.0,0.0,0.0,0.0,0.0,0.0,0.0,0.0,0.0,0.0,0.0,0.0,0.0,0.0,0.0,0.0,0.0,0.0,0.0,0.0,0.0,0.0,0.0,0.0,0.0,0.0,0.0,0.0,0.0,0.8088,0.8057,0.7965,0.779,0.7569,0.0,0.0,0.0,0.0,0.0,0.0,0.0,0.0,0.0,0.0,0.0,0.0,0.0,0.0,0.0,0.0,0.0,0.0,0.0,0.0,0.0,0.0,0.0,0.0,0.0,0.0,0.0,0.0,0.0,0.0,0.0,0.0,0.0,0.0,0.0,0.0,0.0,0.0,0.0,0.0,0.0,0.0,0.0,0.0,0.0,0.0,0.0,0.0,0.0,0.0,0.0,0.0,0.0,0.0,0.0,0.0,0.0,0.0,0.0,0.0,0.0,0.0,0.0,0.0,0.0,0.0,0.0,0.0,0.0,0.0,0.0,0.0,0.0,0.0,0.0,0.0,0.0,0.0,0.0,0.0,0.0,0.0,0.0,0.0,0.0,0.0,0.0,0.0,0.0,0.0,0.0,0.0,0.0,0.0,0.0,0.0,0.0,0.0,0.0,0.0,0.0,0.0,0.0,0.0,0.0,0.0,0.0,0.0,0.0,0.0,0.0,0.0,0.8111,0.7865,0.7618,0.0,0.0,0.0,0.0,0.0,0.0,0.0,0.0,0.0,0.0,0.0,0.0,0.0,0.0,0.0,0.0,0.0,0.0,0.0,0.0,0.0,0.0,0.0,0.0,0.0,0.0,0.0,0.0,0.0,0.0,0.0,0.0,0.0,0.0,0.0,0.0,0.0,0.0,0.0,0.0,0.0,0.0,0.0,0.0,0.0,0.0,0.0,0.0,0.0,0.0,0.0,0.0,0.0,0.0,0.0,0.0,0.0,0.0,0.0,0.0,0.0,0.0,0.0,0.0,0.0,0.0,0.0,0.0,0.0,0.0,0.0,0.0,0.0,0.0,0.0,0.0,0.0,0.0,0.0,0.0,0.0,0.0,0.0,0.0,0.0,0.0,0.0,0.0,0.0,0.0,0.0,0.0,0.0,0.0,0.0,0.0,0.0,0.0,0.0,0.0,0.0,0.0,0.0,0.0,0.0,0.0,0.0,0.0,0.0,0.0,0.84,0.8984,0.8354,0.0,0.755,0.0,0.0,0.0,0.0,0.0,0.0,0.0,0.0,0.0,0.0,0.0,0.0,0.0,0.0,0.0,0.0,0.0,0.0,0.0,0.0,0.0,0.0,0.0,0.0,0.0,0.0,0.0,0.0,0.0,0.0,0.0,0.0,0.0,0.0,0.0,0.0,0.0,0.0,0.0,0.0,0.0,0.0,0.0,0.0,0.0,0.0,0.0,0.0,0.0,0.0,0.0,0.0,0.0,0.0,0.0,0.0,0.0,0.0,0.0,0.0,0.0,0.0,0.0,0.0,0.0,0.0,0.0,0.0,0.0,0.0,0.0,0.0,0.0,0.0,0.0,0.0,0.0,0.0,0.0,0.0,0.0,0.0,0.0,0.0,0.0,0.0,0.0,0.0,0.0,0.0,0.0,0.0,0.0,0.0,0.0,0.0,0.0,0.0,0.0,0.0,0.0,0.0,0.0,0.0,0.0,0.0,0.0,0.0,0.0,0.0,0.8431,0.9079,0.8612,0.8275,0.0,0.0,0.0,0.0,0.0,0.0,0.0,0.0,0.0,0.0,0.0,0.0,0.0,0.0,0.0,0.0,0.0,0.0,0.0,0.0,0.0,0.0,0.0,0.0,0.0,0.0,0.0,0.0,0.0,0.0,0.0,0.0,0.0,0.0,0.0,0.0,0.0,0.0,0.0,0.0,0.0,0.0,0.0,0.0,0.0,0.0,0.0,0.0,0.0,0.0,0.0,0.0,0.0,0.0,0.0,0.0,0.0,0.0,0.0,0.0,0.0,0.0,0.0,0.0,0.0,0.0,0.0,0.0,0.0,0.0,0.0,0.0,0.0,0.0,0.0,0.0,0.0,0.0,0.0,0.0,0.0,0.0,0.0,0.0,0.0,0.0,0.0,0.0,0.0,0.0,0.0,0.0,0.0,0.0,0.0,0.0,0.0,0.0,0.0,0.0,0.0,0.0,0.0,0.0,0.0,0.0,0.0,0.0,0.0,0.0,0.7721,0.0,0.8752,0.868,0.8476,0.8245,0.0,0.0,0.0,0.0,0.0,0.0,0.0,0.0,0.0,0.0,0.0,0.0,0.0,0.0,0.0,0.0,0.0,0.0,0.0,0.0,0.0,0.0,0.0,0.0,0.0,0.0,0.0,0.0,0.0,0.0,0.0,0.0,0.0,0.0,0.0,0.0,0.0,0.0,0.0,0.0,0.0,0.0,0.0,0.0,0.0,0.0,0.0,0.0,0.0,0.0,0.0,0.0,0.0,0.0,0.0,0.0,0.0,0.0,0.0,0.0,0.0,0.0,0.0,0.0,0.0,0.0,0.0,0.0,0.0,0.0,0.0,0.0,0.0,0.0,0.0,0.0,0.0,0.0,0.0,0.0,0.0,0.0,0.0,0.0,0.0,0.0,0.0,0.0,0.0,0.0,0.0,0.0,0.0,0.0,0.0,0.0,0.0,0.0,0.0,0.0,0.0,0.0,0.0,0.0,0.0,0.0,0.0,0.0,0.0,0.6827,0.7427,0.8028,0.8403,0.8278,0.0,0.0,0.0,0.0,0.0,0.0,0.0,0.0,0.0,0.0,0.0,0.0,0.0,0.0,0.0,0.0,0.0,0.0,0.0,0.0,0.0,0.0,0.0,0.0,0.0,0.0,0.0,0.0,0.0,0.0,0.0,0.0,0.0,0.0,0.0,0.0,0.0,0.0,0.0,0.0,0.0,0.0,0.0,0.0,0.0,0.0,0.0,0.0,0.0,0.0,0.0,0.0,0.0,0.0,0.0,0.0,0.0,0.0,0.0,0.0,0.0,0.0,0.0,0.0,0.0,0.0,0.0,0.0,0.0,0.0,0.0,0.0,0.0,0.0,0.0,0.0,0.0,0.0,0.0,0.0,0.0,0.0,0.0,0.0,0.0,0.0,0.0,0.0,0.0,0.0,0.0,0.0,0.0,0.0,0.0,0.0,0.0,0.0,0.0,0.0,0.0,0.0,0.0,0.0,0.0,0.0,0.0,0.0,0.0,0.6155,0.6743,0.7174,0.7365,0.7753,0.7804,0.0,0.0,0.0,0.0,0.0,0.0,0.0,0.0,0.0,0.0,0.0,0.0,0.0,0.0,0.0,0.0,0.0,0.0,0.0,0.0,0.0,0.0,0.0,0.0,0.0,0.0,0.0,0.0,0.0,0.0,0.0,0.0,0.0,0.0,0.0,0.0,0.0,0.0,0.0,0.0,0.0,0.0,0.0,0.0,0.0,0.0,0.0,0.0,0.0,0.0,0.0,0.0,0.0,0.0,0.0,0.0,0.0,0.0,0.0,0.0,0.0,0.0,0.0,0.0,0.0,0.0,0.0,0.0,0.0,0.0,0.0,0.0,0.0,0.0,0.0,0.0,0.0,0.0,0.0,0.0,0.0,0.0,0.0,0.0,0.0,0.0,0.0,0.0,0.0,0.0,0.0,0.0,0.0,0.0,0.0,0.0,0.0,0.0,0.0,0.0,0.0,0.0,0.0,0.0,0.0,0.0,0.0,0.0,0.0,0.646,0.0,0.7164,0.0,0.7516,0.7564,0.0,0.0,0.0,0.0,0.0,0.0,0.0,0.0,0.0,0.0,0.0,0.0,0.0,0.0,0.0,0.0,0.0,0.0,0.0,0.0,0.0,0.0,0.0,0.0,0.0,0.0,0.0,0.0,0.0,0.0,0.0,0.0,0.0,0.0,0.0,0.0,0.0,0.0,0.0,0.0,0.0,0.0,0.0,0.0,0.0,0.0,0.0,0.0,0.0,0.0,0.0,0.0,0.0,0.0,0.0,0.0,0.0,0.0,0.0,0.0,0.0,0.0,0.0,0.0,0.0,0.0,0.0,0.0,0.0,0.0,0.0,0.0,0.0,0.0,0.0,0.0,0.0,0.0,0.0,0.0,0.0,0.0,0.0,0.0,0.0,0.0,0.0,0.0,0.0,0.0,0.0,0.0,0.0,0.0,0.0,0.0,0.0,0.0,0.0,0.0,0.0,0.0,0.0,0.0,0.0,0.0,0.0,0.0,0.7096,0.7093,0.7096,0.7412,0.7977,0.7742,0.7564,0.0,0.0,0.0,0.0,0.0,0.0,0.0,0.0,0.0,0.0,0.0,0.0,0.0,0.0,0.0,0.0,0.0,0.0,0.0,0.0,0.0,0.0,0.0,0.0,0.0,0.0,0.0,0.0,0.0,0.0,0.0,0.0,0.0,0.0,0.0,0.0,0.0,0.0,0.0,0.0,0.0,0.0,0.0,0.0,0.0,0.0,0.0,0.0,0.0,0.0,0.0,0.0,0.0,0.0,0.0,0.0,0.0,0.0,0.0,0.0,0.0,0.0,0.0,0.0,0.0,0.0,0.0,0.0,0.0,0.0,0.0,0.0,0.0,0.0,0.0,0.0,0.0,0.0,0.0,0.0,0.0,0.0,0.0,0.0,0.0,0.0,0.0,0.0,0.0,0.0,0.0,0.0,0.0,0.0,0.0,0.0,0.0,0.0,0.0,0.0,0.0,0.0,0.0,0.0,0.0,0.0,0.0,0.0,0.0,0.7119,0.7541,0.787,0.7992,0.7741,0.7564,0.0,0.0,0.0,0.0,0.0,0.0,0.0,0.0,0.0,0.0,0.0,0.0,0.0,0.0,0.0,0.0,0.0,0.0,0.0,0.0,0.0,0.0,0.0,0.0,0.0,0.0,0.0,0.0,0.0,0.0,0.0,0.0,0.0,0.0,0.0,0.0,0.0,0.0,0.0,0.0,0.0,0.0,0.0,0.0,0.0,0.0,0.0,0.0,0.0,0.0,0.0,0.0,0.0,0.0,0.0,0.0,0.0,0.0,0.0,0.0,0.0,0.0,0.0,0.0,0.0,0.0,0.0,0.0,0.0,0.0,0.0,0.0,0.0,0.0,0.0,0.0,0.0,0.0,0.0,0.0,0.0,0.0,0.0,0.0,0.0,0.0,0.0,0.0,0.0,0.0,0.0,0.0,0.0,0.0,0.0,0.0,0.0,0.0,0.0,0.0,0.0,0.0,0.0,0.0,0.0,0.0,0.0,0.0,0.0,0.8787,0.8789,0.876,0.8629,0.8202,0.7922,0.7806,0.0,0.0,0.0,0.0,0.0,0.0,0.0,0.0,0.0,0.0,0.0,0.0,0.0,0.0,0.0,0.0,0.0,0.0,0.0,0.0,0.0,0.0,0.0,0.0,0.0,0.0,0.0,0.0,0.0,0.0,0.0,0.0,0.0,0.0,0.0,0.0,0.0,0.0,0.0,0.0,0.0,0.0,0.0,0.0,0.0,0.0,0.0,0.0,0.0,0.0,0.0,0.0,0.0,0.0,0.0,0.0,0.0,0.0,0.0,0.0,0.0,0.0,0.0,0.0,0.0,0.0,0.0,0.0,0.0,0.0,0.0,0.0,0.0,0.0,0.0,0.0,0.0,0.0,0.0,0.0,0.0,0.0,0.0,0.0,0.0,0.0,0.0,0.0,0.0,0.0,0.0,0.0,0.0,0.0,0.0,0.0,0.0,0.0,0.0,0.0,0.0,0.0,0.0,0.0,0.0,0.0,0.0,0.0,1.1638,1.0678,1.0088,0.9842,0.9135,0.8623,0.0,0.0,0.0,0.0,0.0,0.0,0.0,0.0,0.0,0.0,0.0,0.0,0.0,0.0,0.0,0.0,0.0,0.0,0.0,0.0,0.0,0.0,0.0,0.0,0.0,0.0,0.0,0.0,0.0,0.0,0.0,0.0,0.0,0.0,0.0,0.0,0.0,0.0,0.0,0.0,0.0,0.0,0.0,0.0,0.0,0.0,0.0,0.0,0.0,0.0,0.0,0.0,0.0,0.0,0.0,0.0,0.0,0.0,0.0,0.0,0.0,0.0,0.0,0.0,0.0,0.0,0.0,0.0,0.0,0.0,0.0,0.0,0.0,0.0,0.0,0.0,0.0,0.0,0.0,0.0,0.0,0.0,0.0,0.0,0.0,0.0,0.0,0.0,0.0,0.0,0.0,0.0,0.0,0.0,0.0,0.0,0.0,0.0,0.0,0.0,0.0,0.0,0.0,0.0,0.0,0.0,0.0,0.0,0.0,1.2055,1.2223,1.2056,1.1569,1.0831,0.9989,0.0,0.0,0.0,0.0,0.0,0.0,0.0,0.0,0.0,0.0,0.0,0.0,0.0,0.0,0.0,0.0,0.0,0.0,0.0,0.0,0.0,0.0,0.0,0.0,0.0,0.0,0.0,0.0,0.0,0.0,0.0,0.0,0.0,0.0,0.0,0.0,0.0,0.0,0.0,0.0,0.0,0.0,0.0,0.0,0.0,0.0,0.0,0.0,0.0,0.0,0.0,0.0,0.0,0.0,0.0,0.0,0.0,0.0,0.0,0.0,0.0,0.0,0.0,0.0,0.0,0.0,0.0,0.0,0.0,0.0,0.0,0.0,0.0,0.0,0.0,0.0,0.0,0.0,0.0,0.0,0.0,0.0,0.0,0.0,0.0,0.0,0.0,0.0,0.0,0.0,0.0,0.0,0.0,0.0,0.0,0.0,0.0,0.0,0.0,0.0,0.0,0.0,0.0,0.0,0.0,0.0,0.0,0.0,1.1301,1.2479,1.3235,1.3314,1.2721,1.1629,1.0691,0.0,0.0,0.0,0.0,0.0,0.0,0.0,0.0,0.0,0.0,0.0,0.0,0.0,0.0,0.0,0.0,0.0,0.0,0.0,0.0,0.0,0.0,0.0,0.0,0.0,0.0,0.0,0.0,0.0,0.0,0.0,0.0,0.0,0.0,0.0,0.0,0.0,0.0,0.0,0.0,0.0,0.0,0.0,0.0,0.0,0.0,0.0,0.0,0.0,0.0,0.0,0.0,0.0,0.0,0.0,0.0,0.0,0.0,0.0,0.0,0.0,0.0,0.0,0.0,0.0,0.0,0.0,0.0,0.0,0.0,0.0,0.0,0.0,0.0,0.0,0.0,0.0,0.0,0.0,0.0,0.0,0.0,0.0,0.0,0.0,0.0,0.0,0.0,0.0,0.0,0.0,0.0,0.0,0.0,0.0,0.0,0.0,0.0,0.0,0.0,0.0,0.0,0.0,0.0,0.0,0.0,0.0,0.0,1.1639,1.2754,1.3768,1.4046,1.3486,1.2035,1.1093,0.0,0.0,0.0,0.0,0.0,0.0,0.0,0.0,0.0,0.0,0.0,0.0,0.0,0.0,0.0,0.0,0.0,0.0,0.0,0.0,0.0,0.0,0.0,0.0,0.0,0.0,0.0,0.0,0.0,0.0,0.0,0.0,0.0,0.0,0.0,0.0,0.0,0.0,0.0,0.0,0.0,0.0,0.0,0.0,0.0,0.0,0.0,0.0,0.0,0.0,0.0,0.0,0.0,0.0,0.0,0.0,0.0,0.0,0.0,0.0,0.0,0.0,0.0,0.0,0.0,0.0,0.0,0.0,0.0,0.0,0.0,0.0,0.0,0.0,0.0,0.0,0.0,0.0,0.0,0.0,0.0,0.0,0.0,0.0,0.0,0.0,0.0,0.0,0.0,0.0,0.0,0.0,0.0,0.0,0.0,0.0,0.0,0.0,0.0,0.0,0.0,0.0,0.0,0.0,0.0,0.0,0.0,0.0,1.1951,1.2639,1.3718,1.4236,1.4101,1.332,1.2215,0.0,0.0,0.0,0.0,0.0,0.0,0.0,0.0,0.0,0.0,0.0,0.0,0.0,0.0,0.0,0.0,0.0,0.0,0.0,0.0,0.0,0.0,0.0,0.0,0.0,0.0,0.0,0.0,0.0,0.0,0.0,0.0,0.0,0.0,0.0,0.0,0.0,0.0,0.0,0.0,0.0,0.0,0.0,0.0,0.0,0.0,0.0,0.0,1.2193,0.0,0.0,0.0,0.0,0.0,0.0,0.0,0.0,0.0,0.0,0.0,0.0,0.0,0.0,0.0,0.0,0.0,0.0,0.0,0.0,0.0,0.0,0.0,0.0,0.0,0.0,0.0,0.0,0.0,0.0,0.0,0.0,0.0,0.0,0.0,0.0,0.0,0.0,0.0,0.0,0.0,0.0,0.0,0.0,0.0,0.0,0.0,0.0,0.0,0.0,0.0,0.0,0.0,0.0,0.0,0.0,0.0,0.0,0.0,1.2116,1.2963,1.3854,1.4312,1.4295,1.3984,1.3109,0.0,0.0,0.0,0.0,0.0,0.0,0.0,0.0,0.0,0.0,0.0,0.0,0.0,0.0,0.0,0.0,0.0,0.0,0.0,0.0,0.0,0.0,0.0,0.0,0.0,0.0,0.0,0.0,0.0,0.0,0.0,0.0,0.0,0.0,0.0,0.0,0.0,0.0,0.0,0.0,0.0,0.0,0.0,0.0,0.0,0.0,0.0,0.0,0.0,0.0,0.0,0.0,0.0,0.0,0.0,0.0,0.0,0.0,0.0,0.0,0.0,0.0,0.0,0.0,0.0,0.0,0.0,0.0,0.0,0.0,0.0,0.0,0.0,0.0,0.0,0.0,0.0,0.0,0.0,0.0,0.0,0.0,0.0,0.0,0.0,0.0,0.0,0.0,0.0,0.0,0.0,0.0,0.0,0.0,0.0,0.0,0.0,0.0,0.0,0.0,0.0,0.0,0.0,0.0,0.0,0.0,0.0,1.1195,1.2275,1.3359,1.398,1.4312,1.4308,1.4213,1.3591,1.24,0.0,0.0,0.0,0.0,0.0,0.0,0.0,0.0,0.0,0.0,0.0,0.0,0.0,0.0,0.0,0.0,0.0,0.0,0.0,0.0,0.0,0.0,0.0,0.0,0.0,0.0,0.0,0.0,0.0,0.0,0.0,0.0,0.0,0.0,0.0,0.0,0.0,0.0,0.8499,1.0955,0.0,0.0,0.0,0.0,0.0,0.0,0.0,0.0,1.2073,0.0,0.0,0.0,0.0,0.0,0.0,0.0,0.0,0.0,0.0,0.0,0.0,0.0,0.0,0.0,0.0,0.0,0.0,0.0,0.0,0.0,0.0,0.0,0.0,0.0,0.0,0.0,0.0,0.0,0.0,0.0,0.0,0.0,0.0,0.0,0.0,0.0,0.0,0.0,0.0,0.0,0.0,0.0,0.0,0.0,0.0,0.0,0.0,0.0,0.0,0.0,0.0,0.0,0.0,0.0,0.0,1.0651,1.179,1.2681,1.3397,1.3994,1.4312,1.4295,1.3808,1.2984,1.18,0.0,0.0,0.0,0.0,0.0,0.0,0.0,0.0,0.0,0.0,0.0,0.0,0.0,0.0,0.0,0.0,0.0,0.0,0.0,0.0,0.0,0.0,0.0,0.0,0.0,0.0,0.0,0.0,0.0,0.0,0.0,0.0,0.0,0.0,0.0,0.0,0.0,0.0,0.0,1.2469,1.3599,0.0,0.0,0.0,0.0,0.0,0.0,0.0,0.0,1.1754,0.0,0.0,0.0,0.0,0.0,0.0,0.0,0.0,0.0,0.0,0.0,0.0,0.0,0.0,0.0,0.0,0.0,0.0,0.0,0.0,0.0,0.0,0.0,0.0,0.0,0.0,0.0,0.0,0.0,0.0,0.0,0.0,0.0,0.0,0.0,0.0,0.0,0.0,0.0,0.0,0.0,0.0,0.0,0.0,0.0,0.0,0.0,0.0,0.0,0.0,0.0,0.0,0.0,0.0,0.0,1.121,1.236,1.3262,1.3852,1.4143,1.4155,1.3839,1.355,1.2681,0.0,0.0,0.0,0.0,0.0,0.0,0.0,0.0,0.0,0.0,0.0,0.0,0.0,0.0,0.0,0.0,0.0,0.0,0.0,0.0,0.0,0.0,0.0,0.0,0.0,0.0,0.0,0.0,0.0,0.0,0.0,0.0,0.0,0.0,0.0,0.0,0.0,0.0,0.0,0.0,1.3688,1.4383,1.4373,0.0,0.0,0.0,0.0,0.0,0.0,1.2515,1.2402,0.0,0.0,0.0,0.0,0.0,0.0,0.0,0.0,0.0,0.0,0.0,0.0,0.0,0.0,0.0,0.0,0.0,0.0,0.0,0.0,0.0,0.0,0.0,0.0,0.0,0.0,0.0,0.0,0.0,0.0,0.0,0.0,0.0,0.0,0.0,0.0,0.0,0.0,0.0,0.0,0.0,0.0,0.0,0.0,0.0,0.0,0.0,0.0,0.0,0.0,0.0,0.0,0.0,0.0,0.0,1.1756,1.2862,1.3692,1.4281,1.4312,1.4077,1.3604,1.3341,1.2431,0.0,0.0,0.0,0.0,0.0,0.0,0.0,0.0,0.0,0.0,0.0,0.0,0.0,0.0,0.0,0.0,0.0,0.0,0.0,0.0,0.0,0.0,0.0,0.0,0.0,0.0,0.0,0.0,0.0,0.0,0.0,0.0,0.0,0.0,0.0,0.0,0.0,0.0,0.0,0.0,0.0,1.5178,1.5214,1.5002,0.0,0.0,0.0,0.0,1.2471,1.3171,0.0,0.0,0.0,0.0,0.0,0.0,0.0,0.0,0.0,0.0,0.0,0.0,0.0,0.0,0.0,0.0,0.0,0.0,0.0,0.0,0.0,0.0,0.0,0.0,0.0,0.0,0.0,0.0,0.0,0.0,0.0,0.0,0.0,0.0,0.0,0.0,0.0,0.0,0.0,0.0,0.0,0.0,0.0,0.0,0.0,0.0,0.0,0.0,0.0,0.0,0.0,0.0,0.0,0.0,0.0,0.0,1.2353,1.3051,1.3703,1.4263,1.4312,1.4268,1.4178,1.3173,1.2017,0.0,0.0,0.0,0.0,0.0,0.0,0.0,0.0,0.0,0.0,0.0,0.0,0.0,0.0,0.0,0.0,0.0,0.0,0.0,0.0,0.0,0.0,0.0,0.0,0.0,0.0,0.0,0.0,0.0,0.0,0.0,0.0,0.0,0.0,0.0,0.0,0.0,0.0,0.0,0.0,0.0,1.6039,1.5976,1.5398,1.5116,0.0,0.0,1.4837,1.529,1.4977,0.0,0.0,0.0,0.0,0.0,0.0,0.0,0.0,0.0,0.0,0.0,0.0,0.0,0.0,0.0,0.0,0.0,0.0,0.0,0.0,0.0,0.0,0.0,0.0,0.0,0.0,0.0,0.0,0.0,0.0,0.0,0.0,0.0,0.0,0.0,0.0,0.0,0.0,0.0,0.0,0.0,0.0,0.0,0.0,0.0,0.0,0.0,0.0,0.0,0.0,0.0,0.0,0.0,0.0,0.0,1.1039,1.2474,1.343,1.4033,1.4295,1.4312,1.4133,1.3812,1.2941,1.1774,0.0,0.0,0.0,0.0,0.0,0.0,0.0,0.0,0.0,0.0,0.0,0.0,0.0,0.0,0.0,0.0,0.0,0.0,0.0,0.0,0.0,0.0,0.0,0.0,0.0,0.0,0.0,0.0,0.0,0.0,0.0,0.0,0.0,0.0,0.0,0.0,0.0,0.0,0.0,0.0,0.0,0.0,1.6626,1.6767,0.0,0.0,0.0,1.675,1.6613,0.0,0.0,0.0,0.0,0.0,0.0,0.0,0.0,0.0,0.0,0.0,0.0,0.0,0.0,0.0,0.0,0.0,0.0,0.0,0.0,0.0,0.0,0.0,0.0,0.0,0.0,0.0,0.0,0.0,0.0,0.0,0.0,0.0,0.0,0.0,0.0,0.0,0.0,0.0,0.0,0.0,0.0,0.0,0.0,0.0,0.0,0.0,0.0,0.0,0.0,0.0,0.0,0.0,0.0,0.0,0.0,0.0,1.2484,1.3682,1.4312,1.4312,1.4312,1.4087,1.3635,1.3047,0.0,0.0,0.0,0.0,0.0,0.0,0.0,0.0,0.0,0.0,0.0,0.0,0.0,0.0,0.0,0.0,0.0,0.0,0.0,0.0,0.0,0.0,0.0,0.0,0.0,0.0,0.0,0.4586,0.0,0.0,0.0,0.0,0.0,0.0,0.0,0.0,0.0,0.0,0.0,0.0,0.0,0.0,1.746,1.7366,1.8029,1.8337,0.0,0.0,1.8524,1.7741,1.8115,1.7964,0.0,0.0,0.0,0.0,0.0,0.0,0.0,0.0,0.0,0.0,0.0,0.0,0.0,0.0,0.0,0.0,0.0,0.0,0.0,0.0,0.0,0.0,0.0,0.0,0.0,0.0,0.0,0.0,0.0,0.0,0.0,0.0,0.0,0.0,0.0,0.0,0.0,0.0,0.0,0.0,0.0,0.0,0.0,0.0,0.0,0.0,0.0,0.0,0.0,0.0,0.0,0.0,0.0,0.0,0.0,1.2491,1.369,1.4312,1.4312,1.4312,1.4273,1.4236,1.3659,1.2743,0.0,0.0,0.0,0.0,0.0,0.0,0.0,0.0,0.0,0.0,0.0,0.0,0.0,0.0,0.0,0.0,0.0,0.0,0.0,0.0,0.0,0.0,0.0,0.0,0.0,0.0,0.0,0.0,0.0,0.0,0.0,0.0,0.0,0.0,0.0,0.0,0.0,0.0,0.0,0.0,0.0,1.8323,1.8321,1.8839,1.9318,0.0,0.0,1.9924,1.9173,1.9149,1.8731,1.7255,0.0,0.0,0.0,0.0,0.0,0.0,0.0,0.0,0.0,0.0,0.0,0.0,0.0,0.0,0.0,0.0,0.0,0.0,0.0,0.0,0.0,0.0,0.0,0.0,0.0,0.0,0.0,0.0,0.0,0.0,0.0,0.0,0.0,0.0,0.0,0.0,0.0,0.0,0.0,0.0,0.0,0.0,0.0,0.0,0.0,0.0,0.0,0.0,0.0,0.0,0.0,0.0,0.0,1.1296,1.2502,1.3686,1.4312,1.4312,1.4312,1.4312,1.4312,1.3713,1.2835,0.0,0.0,0.0,0.0,0.0,0.0,0.0,0.0,0.0,0.0,0.0,0.0,0.0,0.0,0.0,0.0,0.0,0.0,0.0,0.0,0.0,0.0,0.0,0.0,0.0,0.0,0.0,0.0,0.6794,0.7631,0.8472,0.0,0.0,0.0,0.0,0.0,0.0,0.0,0.0,0.0,0.0,1.9202,1.9678,2.017,0.0,0.0,2.0679,2.049,2.0338,2.0197,1.9713,1.8586,1.7651,0.0,0.0,0.0,0.0,0.0,0.0,0.0,0.0,0.0,0.0,0.0,0.0,0.0,0.0,0.0,0.0,0.0,0.0,0.0,0.0,0.0,0.0,0.0,0.0,0.0,0.0,0.0,0.0,0.0,0.0,0.0,0.0,0.0,0.0,0.0,0.0,0.0,0.0,0.0,0.0,0.0,0.0,0.0,0.0,0.0,0.0,0.0,0.0,0.0,0.0,0.0,0.0,1.1299,1.2474,1.3678,1.4312,1.4312,1.4312,1.4312,1.4295,1.3881,1.311,0.0,0.0,0.0,0.0,0.0,0.0,0.0,0.0,0.0,0.0,0.0,0.0,0.0,0.0,0.0,0.0,0.0,0.0,0.0,0.0,0.0,0.0,0.0,0.0,0.0,0.0,0.0,0.0,0.8058,0.8602,0.8972,0.0,0.0,0.0,0.0,0.0,0.0,0.0,0.0,0.0,0.0,2.0145,2.0559,2.1092,2.1451,2.1492,2.1178,2.0952,2.0937,2.0736,2.0254,1.9338,0.0,0.0,0.0,0.0,0.0,0.0,0.0,0.0,0.0,0.0,0.0,0.0,0.0,0.0,0.0,0.0,0.0,0.0,0.0,0.0,0.0,0.0,0.0,0.0,0.0,0.0,0.0,0.8857,0.0,0.0,0.7853,0.0,0.0,0.0,0.0,0.0,0.0,0.0,0.0,0.0,0.0,0.0,0.0,0.0,0.0,0.0,0.0,0.0,0.0,0.0,0.0,0.0,0.0,1.1293,1.2487,1.3678,1.4312,1.4312,1.4312,1.4312,1.4308,1.4295,1.3709,1.2488,0.0,0.0,0.0,0.0,0.0,0.0,0.0,0.0,0.0,0.0,0.0,0.0,0.0,0.0,0.0,0.0,0.0,0.0,0.0,0.0,0.0,0.0,0.0,0.0,0.0,0.0,0.9576,0.9955,0.9811,0.0,0.0,0.0,0.0,0.0,0.0,0.0,0.0,0.0,0.0,1.9935,2.1209,2.0774,2.1436,2.1864,2.157,2.1498,2.1338,2.092,2.0661,2.0203,0.0,0.0,0.0,0.0,0.0,0.0,0.0,0.0,0.0,0.0,0.0,0.0,0.0,0.0,0.0,0.0,0.0,0.0,0.0,0.0,0.0,0.0,0.0,0.0,0.0,0.0,0.0,1.0702,1.0698,0.0,0.0,0.0,0.0,0.0,0.0,0.0,0.0,0.0,0.0,0.0,1.4991,1.4914,0.0,0.0,0.0,0.0,0.0,0.0,0.0,0.0,0.0,0.0,0.0,0.0,1.1699,1.2515,1.3678,1.4312,1.4312,1.4312,1.4312,1.4312,1.4312,1.3562,1.1967,0.0,0.0,0.0,0.0,0.0,0.0,0.0,0.0,0.0,0.0,0.0,0.0,0.0,0.0,0.0,0.0,0.0,0.0,0.0,0.0,0.0,0.0,0.0,0.0,0.0,0.9367,0.0,0.0,0.0,0.0,0.0,0.0,0.0,0.0,0.0,0.0,0.0,1.7737,1.8385,1.986,2.1017,2.1439,2.1894,2.213,0.0,0.0,0.0,0.0,0.0,0.0,0.0,0.0,0.0,0.0,0.0,0.0,0.0,0.0,2.1785,2.1247,2.034,1.9471,1.8951,0.0,0.0,0.0,0.0,0.0,0.0,0.0,0.0,0.0,0.0,0.0,0.0,0.0,0.0,1.2565,0.0,1.1872,0.0,0.0,0.0,0.0,0.0,0.0,0.0,0.0,1.5779,1.6109,1.6459,1.6213,1.6208,0.0,1.6412,1.539,0.0,0.0,0.0,0.0,0.0,0.0,0.0,0.0,1.2516,1.3149,1.4306,1.4825,1.4625,1.4615,1.4512,1.4296,1.4097,1.3428,1.223,1.1225,1.0145,0.0,0.0,0.0,0.0,0.0,0.0,0.0,0.0,0.0,0.0,0.0,0.0,0.0,0.0,0.0,0.0,0.0,0.0,0.0,0.0,0.0,0.0,0.0,1.0616,0.0,0.0,0.0,0.0,0.0,0.0,0.0,0.0,0.0,1.6607,1.7706,1.8642,1.9287,2.047,2.1504,2.2043,0.0,0.0,0.0,0.0,0.0,0.0,0.0,2.1471,2.1959,2.2904,2.3484,2.3168,2.3533,2.4393,2.6041,0.0,0.0,2.4061,2.295,2.2116,2.2031,2.1275,2.0942,2.1838,2.201,2.2347,0.0,0.0,0.0,0.0,0.0,0.0,0.0,0.0,1.4703,1.446,0.0,1.3824,0.0,0.0,0.0,0.0,0.0,1.4559,0.0,0.0,1.7092,1.7023,1.6983,1.6448,1.6462,1.6995,1.7032,1.6991,1.6801,1.4635,0.0,0.0,0.0,0.0,0.0,0.0,1.3757,1.4327,1.5481,1.5793,1.5217,1.5194,1.4914,1.4308,1.3742,1.3386,1.3237,1.1673,1.0734,1.0576,0.846,0.0,0.0,0.0,0.0,0.0,0.0,0.0,0.0,0.0,0.0,0.0,0.0,0.0,0.0,0.0,0.0,0.0,0.0,0.0,0.0,1.191,0.0,0.0,0.0,0.0,0.0,0.0,0.0,0.0,0.0,0.0,1.8539,1.9326,1.997,2.0562,0.0,0.0,0.0,0.0,2.3403,2.3348,2.3294,2.3375,2.3607,2.2378,2.1856,2.3199,0.0,0.0,2.5219,2.531,2.5649,2.6486,2.6676,2.6423,2.5619,2.5039,2.4663,2.454,2.4596,2.4669,2.4502,2.4522,2.4602,1.8747,0.0,0.0,0.0,0.0,1.659,1.6926,1.7347,1.7177,1.7318,1.7645,1.6594,0.0,0.0,0.0,0.0,0.0,0.0,1.6587,1.7376,1.7599,1.7702,1.7716,1.7492,1.7481,1.7634,1.7649,1.7417,1.6982,1.6299,1.5363,1.4188,0.0,0.0,0.0,0.0,1.4778,1.4986,1.5716,1.5806,1.5208,1.5194,1.4906,1.4322,1.4093,1.3694,1.3109,1.2604,1.1918,1.1051,1.0164,0.0,0.0,0.0,0.0,0.0,0.0,0.0,0.0,0.0,0.0,0.0,0.0,0.0,0.0,0.0,0.0,0.0,0.0,0.0,1.1875,1.3334,1.3965,0.0,0.0,0.0,0.0,0.0,0.0,0.0,0.0,0.0,2.0148,2.0557,2.099,0.0,0.0,2.2816,2.286,2.3497,2.3996,2.4057,2.4542,0.0,2.4501,2.3563,2.3133,2.3915,2.4916,2.5834,2.6444,2.6739,2.6986,2.7324,2.7863,2.7982,2.7171,2.6328,2.63,2.7424,2.734,2.7041,2.7476,2.7578,2.7642,2.0448,1.8705,1.8705,1.8582,1.8415,1.8626,1.8918,1.93,1.9314,1.9517,1.9803,1.9043,1.8574,1.8298,1.7268,0.0,0.0,0.0,1.7909,1.8579,1.8475,1.8532,1.8703,1.864,1.8612,1.8625,1.8622,1.8425,1.8072,1.7819,1.7345,1.6608,0.0,0.0,1.5024,1.5611,1.5915,1.5937,1.6521,1.653,1.591,1.5439,1.5014,1.4665,1.439,1.3967,1.3384,1.3232,1.2769,1.1948,1.1606,1.0544,0.0,0.0,0.0,0.0,0.0,0.0,0.0,0.0,0.0,0.0,0.0,0.529,0.0,0.0,0.0,0.0,1.0012,1.1716,1.2855,1.4259,0.0,0.0,0.0,0.0,0.0,0.0,0.0,1.6983,1.9262,2.111,2.1861,2.2397,2.2649,2.2476,2.3188,2.3631,2.3365,0.0,2.5473,2.5521,2.6035,2.6326,2.6066,2.5426,2.5246,2.6165,2.683,2.7306,2.7615,2.8095,2.8404,2.8414,2.8912,2.9228,2.8733,2.8154,2.8132,2.9575,2.9741,2.9579,2.9457,2.9365,2.9439,2.1486,2.1245,2.1225,2.0855,2.0328,2.0782,2.1022,2.108,2.108,2.1104,2.1133,2.1109,2.0741,2.0132,1.9541,0.0,1.9944,1.9271,1.9475,2.0373,1.955,1.9411,1.9812,1.9728,1.9717,1.9711,1.9717,1.9717,1.9659,1.9125,1.8861,1.875,1.7145,1.6304,1.6267,1.6801,1.7073,1.7078,1.7607,1.7593,1.7005,1.5869,1.5236,1.5195,1.4657,1.422,1.3908,1.3604,1.3323,1.3083,1.2784,1.2068,1.0858,0.0,0.0,0.0,0.0,0.0,0.0,0.0,0.0,0.0,0.0,0.0,0.0,0.0,0.0,0.0,1.1408,0.0,1.3686,1.5004,0.0,0.0,0.0,1.7108,1.7787,1.8504,1.91,1.9463,0.0,0.0,2.3741,2.4579,2.4661,2.3478,2.439,2.4881,2.4118,2.5932,2.7355,2.7195,2.7533,2.7795,2.7654,2.7349,2.7535,2.8729,2.9328,2.908,2.875,2.9248,2.9645,2.9651,2.9905,3.0155,3.0155,3.0116,3.0404,3.0834,3.1642,3.1879,3.0664,3.0348,3.0361,2.3591,2.3206,2.3214,2.2287,2.0835,2.095,2.1303,2.1753,2.1768,2.2028,2.2406,2.195,2.1389,2.0775,2.0616,2.0594,2.0656,2.0477,2.0419,2.0461,2.0099,1.9941,1.9938,1.9767,1.9717,1.9717,1.9717,1.9717,1.9692,1.9562,1.9255,1.8801,1.8374,1.7924,1.749,1.7621,1.7688,1.768,1.7829,1.7612,1.6995,1.6272,1.567,1.5208,1.5,1.4591,1.3926,1.3834,1.3745,1.3702,1.3566,1.3069,1.2092,0.992,0.0,0.0,0.0,0.0,0.0,0.0,0.0,0.0,0.0,0.7807,0.8577,0.0,1.0928,0.0,1.2441,1.4187,1.5706,1.7128,0.0,0.0,1.8603,1.9092,1.9285,2.0351,2.0896,2.051,2.2196,2.4139,2.6035,2.5982,2.5861,2.6082,2.6377,2.644,2.6039,2.6736,2.755,2.7921,2.8252,2.8293,2.7909,2.7807,2.8165,2.9073,2.9163,2.9103,2.9126,2.9488,3.0175,3.1301,3.123,3.0914,3.0693,3.1269,3.1826,3.2006,3.2226,3.2318,3.1914,3.184,3.1822,2.4455,2.4306,2.43,2.3676,2.264,2.2089,2.206,2.2399,2.2408,2.2571,2.2893,2.2548,2.2191,2.1852,2.1843,2.1816,2.1767,2.1513,2.1404,2.1419,2.0889,2.0693,2.0793,2.0561,2.0454,2.0448,2.0468,2.0454,2.0454,2.0179,1.9757,1.9206,1.8921,1.851,1.7929,1.7912,1.7912,1.7912,1.7912,1.7744,1.7403,1.681,1.6213,1.5621,1.5301,1.4758,1.3974,1.403,1.4048,1.3952,1.3985,1.3567,1.2528,1.0868,0.9441,0.0,0.0,0.0,0.0,0.0,0.0,0.0,0.0,0.0,0.0,0.0,1.3233,1.3528,1.4488,1.5773,1.738,1.8796,1.9767,2.0095,2.0751,2.1178,2.1178,2.2104,2.2487,2.183,2.3555,2.5414,2.6893,2.7009,2.7083,2.7494,2.7804,2.771,2.7068,2.7625,2.8381,2.8725,2.8973,2.8984,2.8587,2.8786,2.9193,2.9734,2.9965,3.0102,3.0363,3.0673,3.1218,3.213,3.2041,3.169,3.1585,3.1949,3.2388,3.2406,3.2406,3.2406,3.2406,3.2406,3.2406,2.4823,2.4928,2.492,2.4882,2.4723,2.3603,2.3102,2.3035,2.2917,2.2893,2.2893,2.2893,2.2893,2.2893,2.2893,2.2893,2.2864,2.2365,2.2289,2.2541,2.175,2.1521,2.1811,2.1556,2.1429,2.1416,2.1397,2.1391,2.1391,2.087,2.0342,1.9789,1.9206,1.8608,1.8043,1.7938,1.7892,1.7872,1.7892,1.7912,1.7902,1.7395,1.6797,1.6118,1.5598,1.4915,1.4093,1.421,1.4226,1.4057,1.4192,1.3817,1.278,1.1721,1.078,0.0,0.9682,0.0,0.0,0.0,0.0,0.0,0.0,0.0,0.0,1.3673,1.4976,1.6733,1.721,1.7838,1.8867,2.0229,2.1328,2.1963,2.262,2.3027,2.3043,2.3702,2.3961,2.3415,2.4986,2.6451,2.7293,2.7826,2.8094,2.8258,2.8784,2.882,2.7936,2.8537,2.9269,2.9579,2.9723,2.9769,2.981,3.0081,3.0449,3.0884,3.1279,3.1599,3.1704,3.204,3.2327,3.2384,3.2371,3.2371,3.2406,3.2388,3.2406,3.2406,3.2406,3.2406,3.2406,3.2406,3.2406,2.5821,2.561,2.5616,2.5328,2.4857,2.4557,2.4157,2.3673,2.3131,2.2893,2.2893,2.2893,2.2893,2.2893,2.2893,2.2893,2.2893,2.2798,2.2671,2.2583,2.2295,2.2107,2.1947,2.168,2.1562,2.1548,2.1453,2.1391,2.1391,2.129,2.0938,2.0342,1.9809,1.9228,1.8627,0.0,0.0,0.0,1.7847,1.7912,1.7907,1.7783,1.7218,1.6154,1.5996,0.0,1.4318,1.4279,1.4283,1.4242,1.4288,0.0,0.0,0.0,0.0,0.0,0.0,0.0,0.0,0.0,0.0,0.0,1.4947,1.5156,1.4257,1.5322,1.6698,1.8196,2.0356,2.134,2.0518,2.1672,2.2562,2.2708,2.3307,2.3719,2.373,2.4825,2.5624,2.5751,2.6435,2.7372,2.8441,2.8373,2.8331,2.8851,2.9532,2.9943,2.983,2.9443,2.9519,3.0339,3.0565,3.0664,3.094,3.1066,3.1422,3.2171,3.265,3.2603,3.2213,3.2601,3.2832,3.2555,3.2406,3.2441,3.2458,3.2406,3.2476,3.2423,3.2441,3.2406,3.2406,3.2406,3.2406,2.6349,0.0,2.6292,2.611,0.0,2.5444,2.5125,2.4782,2.4122,2.3847,2.3812,2.3635,2.3476,2.336,2.3044,2.2893,2.2893,2.2893,2.2829,2.2692,2.2558,2.2359,2.2096,2.1831,2.167,2.1604,2.1458,2.1391,2.1391,2.1391,2.1101,2.0506,2.0195,1.9785,1.9241,1.8639,1.8175,1.7801,1.7862,1.7912,1.7912,1.7912,1.7476,1.6598,1.6543,0.0,0.0,0.0,0.0,0.0,0.0,0.0,0.0,0.0,0.0,1.4041,1.319,1.2754,1.2932,1.4102,1.5041,1.5562,1.6766,1.7203,1.6517,1.7195,1.8231,1.9649,2.1672,2.2756,2.2422,2.2986,2.3528,2.3915,2.4528,2.494,2.5051,2.5893,2.6667,2.6998,2.7351,2.7978,2.8945,2.883,2.89,2.9532,2.9949,3.0366,3.0721,3.0446,3.0535,3.1528,3.1292,3.1345,3.2058,3.2237,3.232,3.2796,3.2988,3.2979,3.2747,3.2902,3.3104,3.318,3.3193,3.3204,3.3446,3.3323,3.3196,3.3433,3.3327,3.3099,3.2959,3.2656,3.2406,2.662,2.68,2.68,2.68,2.6755,2.6205,2.5986,2.5921,0.0,0.0,0.0,2.4447,2.4152,2.3879,2.3322,2.303,2.2899,2.2893,2.286,2.2781,2.2644,2.2471,2.2196,2.1926,2.1734,2.1628,2.1484,2.1391,2.1391,2.1391,2.1155,2.069,2.0494,2.0115,1.9543,1.9054,1.8505,1.7929,1.7912,1.7912,1.7912,1.7912,1.7617,1.7014,1.6995,1.648,1.5417,1.5367,1.5358,1.5344,1.4977,1.463,1.4384,1.4767,1.512,1.5318,1.4886,1.4666,1.4826,1.59,1.6728,1.7144,1.8114,1.8669,1.8629,1.8659,1.9356,2.0925,2.2403,2.3458,2.3877,2.4141,2.4498,2.5112,2.5772,2.6177,2.623,2.682,2.7409,2.7735,2.8052,2.8468,2.9014,2.9215,2.9505,3.0066,3.0467,3.0821,3.1387,3.1526,3.1682,3.2347,3.2246,3.2323,3.3164,3.3492,3.3443,3.3377,3.3378,3.3438,3.362,3.3545,3.3664,3.4208,3.4349,3.452,3.4627,3.4376,3.4293,3.4631,3.4429,3.4008,3.3569,3.3147,3.2831,2.6607,2.68,2.68,2.68,2.6799,2.6705,2.6647,2.656,2.5353,2.4845,2.4884,2.4773,2.443,2.3888,2.3795,2.345,2.2908,2.2893,2.2803,2.2632,2.2615,2.2451,2.2196,2.1937,2.1789,2.1746,2.1532,2.1391,2.1391,2.1391,2.1345,2.1203,2.0752,1.9965,1.9002,1.8836,1.8505,1.7939,1.7912,1.7912,1.7912,1.7912,1.7607,1.7041,1.7018,1.6693,1.6005,1.5974,1.5974,1.5974,1.6327,1.592,1.4643,1.6122,1.6978,1.674,1.6685,1.6711,1.68,1.7505,1.8471,1.9727,2.0318,2.0166,1.9102,1.8833,1.9629,2.1791,2.3589,2.4479,2.4071,2.4956,2.5677,2.5866,2.6493,2.6941,2.6946,2.7536,2.7973,2.8063,2.8583,2.8956,2.9108,2.9615,3.005,3.035,3.1226,3.2206,3.2643,3.2711,3.2565,3.2819,3.3504,3.4142,3.4427,3.4654,3.4534,3.4619,3.4631,3.4744,3.5003,3.493,3.4948,3.5194,3.5821,3.5944,3.5101,3.4999,3.5074,3.4973,3.4986,3.4806,3.3902,3.3959,3.4104,2.6731,2.68,2.68,2.68,2.68,2.68,2.68,2.6749,2.6155,2.5894,2.5892,2.5523,2.5197,2.4876,2.4202,2.3737,2.3424,2.3064,2.2834,2.2698,2.2641,2.2451,2.2196,2.1918,2.1758,2.1688,2.1496,2.1391,2.1391,2.1391,2.1391,2.1372,2.1108,2.039,1.926,1.9255,1.8821,1.7934,1.7912,1.7912,1.7912,1.7912,1.777,1.748,1.7493,1.7204,1.662,1.6588,1.6593,1.6584,1.6797,1.6808,1.6721,1.7198,1.749,1.743,1.7533,1.7631,1.7734,1.8661,1.9531,2.0255,2.1011,2.128,2.0877,2.0922,2.153,2.2846,2.4236,2.4864,2.4554,2.5408,2.6009,2.6009,2.6967,2.762,2.7715,2.8247,2.8642,2.8668,2.8899,2.9108,2.9108,2.9732,3.0492,3.1049,3.2152,3.2945,3.3252,3.3216,3.3182,3.3365,3.4011,3.4509,3.4774,3.4853,3.4929,3.5,3.5164,3.5281,3.5435,3.5487,3.5818,3.6195,3.6721,3.6691,3.5966,3.6114,3.6137,3.6036,3.5684,3.5341,3.4932,3.4959,3.4815,2.68,2.68,2.68,2.68,2.68,2.68,2.68,2.68,2.6786,2.68,2.672,2.6241,2.5942,2.5689,2.462,2.4042,2.383,2.3195,2.286,2.2741,2.2658,2.2451,2.2182,2.1918,2.174,2.1626,2.1477,2.1391,2.1391,2.1391,2.1391,2.1378,2.1269,2.0651,1.9564,1.9512,1.8983,1.7975,1.7912,1.7912,1.7912,1.7912,1.7912,1.7912,1.7912,1.7675,1.724,1.7208,1.7204,1.7205,1.7203,1.7596,1.839,1.8045,1.7887,1.8076,1.8337,1.8578,1.886,1.9745,2.0399,2.0664,2.1456,2.2153,2.2634,2.31,2.3519,2.3931,2.4563,2.5038,2.5254,2.5856,2.6309,2.6509,2.7573,2.83,2.8379,2.8783,2.9108,2.9108,2.9235,2.9325,2.9319,3.0022,3.1077,3.2086,3.286,3.3255,3.3315,3.3421,3.3594,3.3809,3.4151,3.4454,3.4625,3.4793,3.497,3.5107,3.535,3.5504,3.5594,3.5827,3.6214,3.6749,3.6949,3.6949,3.6967,3.6949,3.6914,3.6791,3.6466,3.6083,3.6039,3.5609,3.5368,2.68,2.68,2.68,2.68,2.68,2.68,2.68,2.68,2.68,2.68,2.6778,2.672,2.6363,2.5768,2.51,2.4477,2.3897,2.3215,2.2803,2.2644,2.2615,2.2451,2.219,2.1937,2.1795,2.1734,2.152,2.1391,2.1391,2.1391,2.1391,2.1324,2.0851,2.0307,1.967,1.9149,1.8559,1.7934,1.7912,1.7912,1.7912,1.7912,1.7912,1.7912,1.7912,1.7879,1.7775,1.7829,1.7821,1.7836,1.7964,1.8203,1.8493,1.8612,1.8769,1.9005,1.9561,2.0141,2.0654,2.0853,2.1214,2.1923,2.2243,2.2781,2.3605,2.4336,2.4806,2.4891,2.4959,2.5333,2.5851,2.6562,2.7194,2.7689,2.8446,2.9004,2.8988,2.9039,2.9108,2.9108,2.9663,2.9864,2.9588,3.0888,3.2269,3.2898,3.3128,3.3286,3.3309,3.3407,3.3477,3.36,3.3896,3.4264,3.4485,3.4756,3.5048,3.5327,3.5605,3.5839,3.6056,3.6211,3.6437,3.6851,3.6985,3.6985,3.6985,3.6985,3.6985,3.6985,3.6874,3.6839,3.6769,3.6167,3.5631,2.68,2.68,2.68,2.68,2.68,2.68,2.68,2.68,2.68,2.68,2.68,2.68,2.6639,2.6321,2.5361,2.4724,2.436,2.3357,2.2829,2.2718,2.2632,2.2445,2.2188,2.1926,2.1758,2.1682,2.1482,2.1391,2.1391,2.1391,2.1223,2.0886,2.0607,2.0063,1.9214,1.8926,1.8502,1.7939,1.7912,1.7912,1.7912,1.7912,1.7912,1.7912,1.7912,1.7912,1.7912,1.7944,1.7965,1.797,1.8155,1.8535,1.9107,1.9295,1.9645,2.0175,2.0465,2.0741,2.0984,2.1356,2.1726,2.207,2.2637,2.3139,2.3467,2.4061,2.4704,2.5456,2.5952,2.6214,2.6151,2.702,2.781,2.8142,2.8715,2.9108,2.9108,2.9124,2.9252,2.9674,2.999,3.0413,3.0831,3.1988,3.2942,3.3261,3.3286,3.3286,3.3286,3.3348,3.3365,3.3488,3.4062,3.4512,3.4591,3.4978,3.5361,3.5645,3.5965,3.6292,3.6426,3.6607,3.6801,3.7023,3.7098,3.7103,3.6985,3.6985,3.6985,3.6985,3.6985,3.6985,3.6985,3.6646,3.6453,2.68,2.68,2.68,2.68,2.68,2.68,2.68,2.68,2.68,2.68,2.6771,2.6604,2.6544,2.6357,2.5378,2.477,2.4418,2.3392,2.2857,2.2789,2.2712,2.2517,2.2234,2.1985,2.1775,2.1638,2.149,2.1391,2.1391,2.1391,2.1174,2.077,2.045,1.986,1.9092,1.8763,1.8342,1.7962,1.7912,1.7965,1.8106,1.7984,1.7912,1.7912,1.7912,1.7912,1.7912,1.797,1.8027,1.8065,1.8403,1.8934,1.9611,1.9917,2.0452,2.117,2.1264,2.1356,2.1511,2.1979,2.2245,2.2291,2.2873,2.33,2.3474,2.3684,2.4475,2.586,2.6987,2.7362,2.6836,2.7478,2.811,2.8363,2.8836,2.9146,2.9378,2.941,2.97,3.0338,3.0714,3.114,3.2101,3.2844,3.3277,3.3286,3.3286,3.3286,3.3286,3.3302,3.3356,3.3572,3.4433,3.4929,3.4927,3.5707,3.6106,3.6396,3.6806,3.7243,3.7001,3.7141,3.7612,3.7998,3.7717,3.7501,3.7471,3.7384,3.7208,3.7055,3.7055,3.709,3.6985,3.6967,3.6967,2.68,2.6779,2.68,2.6779,2.68,2.68,2.68,2.68,2.68,2.68,2.6705,2.6145,2.5855,2.5797,2.5137,2.4542,2.392,2.3224,2.2857,2.2806,2.2789,2.2649,2.2382,2.2126,2.1932,2.1771,2.1526,2.1391,2.1391,2.1391,2.1391,2.1271,2.028,1.9727,1.9426,1.8495,1.7948,1.7926,1.7948,1.8169,1.86,1.8211,1.7989,1.7957,1.7921,1.7912,1.7912,1.7957,1.808,1.8201,1.8966,1.9545,1.9841,2.0502,2.1217,2.1843,2.1951,2.2202,2.2647,2.2783,2.2818,2.2847,2.2927,2.3305,2.4016,2.3814,2.4434,2.6118,2.7876,2.8577,2.8047,2.8063,2.8426,2.8909,2.9072,2.9436,3.005,3.0103,3.0461,3.1075,3.171,3.231,3.3087,3.3255,3.3286,3.3286,3.3286,3.3286,3.3318,3.3302,3.3609,3.415,3.4793,3.5343,3.5764,3.6586,3.7296,3.7599,3.7966,3.8639,3.8198,3.7965,3.856,3.9074,3.9169,3.8918,3.8339,3.7958,3.7747,3.7572,3.7419,3.7348,3.7572,3.7173,3.7225,2.6467,2.648,2.6579,2.6612,2.6625,2.676,2.68,2.68,2.68,2.68,2.667,2.6095,2.5575,2.5112,2.4536,2.4129,2.3853,2.3206,2.2885,2.2872,2.2872,2.2749,2.2535,2.226,2.2,2.1789,2.1538,2.1391,2.1391,2.1391,2.119,2.0762,2.0093,1.9516,1.9038,1.8323,1.7912,1.7938,1.8271,1.8573,1.8847,1.8956,1.8894,1.8478,1.8106,1.7912,1.7912,1.8049,1.8378,1.8867,1.9337,2.0024,2.1013,2.1773,2.2292,2.2537,2.2586,2.2673,2.2864,2.2893,2.2893,2.2922,2.3302,2.3702,2.4115,2.444,2.5233,2.6746,2.819,2.8892,2.8836,2.8741,2.8836,2.9082,2.9526,2.988,3.0192,3.0565,3.1065,3.1643,3.2386,3.3047,3.3191,3.3286,3.3286,3.3286,3.3302,3.3334,3.3403,3.3631,3.4058,3.4478,3.5574,3.6783,3.7463,3.7684,3.8099,3.8464,3.8852,3.9022,3.881,3.8855,3.9322,3.9585,3.9966,4.0037,3.9305,3.8725,3.8497,3.8462,3.8274,3.8134,3.8492,3.8058,3.8098,2.6111,2.6239,2.6364,2.6456,2.651,2.6712,2.68,2.68,2.68,2.68,2.6647,2.5907,2.5235,2.4708,2.3931,2.3586,2.3537,2.3108,2.2893,2.2893,2.2893,2.2806,2.2586,2.2324,2.2067,2.1795,2.1538,2.1391,2.1391,2.1391,2.1174,2.0803,2.0226,1.9749,1.9298,1.8771,1.8476,1.8568,1.8899,1.9171,1.9364,1.957,1.96,1.9304,1.8799,1.8386,1.8225,1.8578,1.9031,1.9581,1.9999,2.0825,2.2048,2.2622,2.2893,2.2893,2.2879,2.2893,2.2893,2.2893,2.303,2.3296,2.3679,2.4066,2.4634,2.4992,2.5857,2.7187,2.8401,2.9128,2.9312,2.9405,2.9457,2.9511,2.9907,3.0398,3.083,3.1289,3.176,3.23,3.2853,3.3223,3.3286,3.3286,3.3419,3.3584,3.3609,3.3672,3.3995,3.4334,3.4769,3.5055,3.6247,3.7516,3.8383,3.8842,3.9083,3.9442,3.9846,3.9848,3.9698,3.9786,3.9961,4.0189,4.0365,4.0528,4.0265,3.9633,3.9405,3.9382,3.9106,3.8861,3.8961,3.8926,3.8966,2.573,2.6077,2.6244,2.6357,2.6464,2.6686,2.6779,2.6773,2.68,2.68,2.6647,2.5544,2.5031,2.4638,2.3754,2.3062,2.316,2.3154,2.3009,2.2908,2.2893,2.2786,2.2598,2.2316,2.2044,2.1746,2.1526,2.1397,2.1391,2.1391,2.1358,2.125,2.0729,2.0363,2.0452,1.9817,1.9597,1.9589,1.9613,1.9919,2.0377,2.0061,2.0034,2.0307,1.9939,1.944,1.8885,1.9518,1.9976,2.0347,2.1052,2.1947,2.2635,2.2879,2.2893,2.2893,2.2893,2.2893,2.2914,2.2937,2.336,2.3908,2.4048,2.461,2.5435,2.5363,2.5817,2.7463,2.8648,2.935,2.9745,3.0029,3.0198,3.022,3.0366,3.0963,3.1833,3.2266,3.2544,3.3056,3.327,3.3286,3.3286,3.3286,3.3514,3.4011,3.4184,3.4343,3.4848,3.518,3.5663,3.6167,3.6897,3.7855,3.8947,3.9887,4.0185,4.048,4.0898,4.1078,4.0639,4.0563,4.0826,4.1037,4.1002,4.1125,4.0849,4.027,3.9961,3.9873,3.9645,3.968,3.9773,3.9826,3.968,2.5425,2.5825,2.5975,2.6096,2.6245,2.6478,2.6584,2.6625,2.6732,2.68,2.6633,2.5886,2.5494,2.5307,2.4572,2.4224,2.4271,2.4201,2.3748,2.3033,2.2922,2.2795,2.2586,2.233,2.1953,2.1572,2.1447,2.1391,2.1391,2.1391,2.1391,2.1283,2.0797,2.0526,2.0499,1.9999,1.9717,1.9746,2.0074,2.0336,2.0539,2.0748,2.0762,2.0553,2.0721,2.0584,2.0014,2.0001,2.032,2.0959,2.1375,2.1995,2.2704,2.2893,2.2893,2.2893,2.2893,2.2893,2.2972,2.3331,2.3734,2.4248,2.4797,2.5344,2.5826,2.6076,2.6642,2.7882,2.9122,3.004,3.0137,3.0568,3.0875,3.0897,3.1336,3.1722,3.2266,3.2712,3.3053,3.323,3.3286,3.3286,3.3309,3.3324,3.364,3.4257,3.4406,3.4595,3.4959,3.5719,3.6004,3.6273,3.7154,3.8015,3.8887,3.9693,4.0183,4.0602,4.1153,4.1541,4.1254,4.1148,4.1464,4.1604,4.1604,4.1499,4.1224,4.099,4.0668,4.0716,4.0791,4.0826,4.0879,4.0739,4.0523,2.5139,2.5397,2.5647,2.5853,2.6043,2.6311,2.6464,2.6517,2.6727,2.68,2.6655,2.6081,2.579,2.5647,2.5085,2.4845,2.4899,2.4818,2.4353,2.3574,2.3262,2.2979,2.254,2.2196,2.1829,2.147,2.1391,2.1391,2.1391,2.1391,2.1391,2.1304,2.1013,2.0837,2.081,2.051,2.0332,2.0386,2.0661,2.0837,2.0899,2.1215,2.1215,2.0952,2.1202,2.117,2.0836,2.0717,2.0959,2.1572,2.1908,2.2366,2.2853,2.2893,2.2893,2.2893,2.2922,2.303,2.336,2.3691,2.4326,2.5044,2.5573,2.5967,2.6258,2.6808,2.7414,2.8297,2.9548,3.0548,3.0851,3.1287,3.1662,3.1975,3.2121,3.2411,3.2655,3.3037,3.3261,3.3286,3.3286,3.346,3.3719,3.3719,3.4099,3.4801,3.5094,3.5307,3.5709,3.6374,3.6547,3.6774,3.7447,3.8172,3.8752,3.942,4.0078,4.0608,4.1162,4.1407,4.142,4.1412,4.1604,4.1604,4.1604,4.1604,4.1376,4.1429,4.1283,4.1564,4.1604,4.1458,4.1265,4.1353,4.1213,2.487,2.4835,2.5271,2.5612,2.5887,2.6156,2.6331,2.6498,2.6673,2.6733,2.6622,2.6126,2.5868,2.5715,2.5346,2.5156,2.5029,2.5092,2.492,2.4511,2.4057,2.3378,2.2394,2.1973,2.1662,2.1428,2.1391,2.1391,2.1391,2.1391,2.1391,2.1378,2.1351,2.1378,2.1297,2.1364,2.1262,2.1229,2.1324,2.1325,2.1325,2.1366,2.1378,2.1351,2.1378,2.1378,2.1346,2.1535,2.1859,2.2214,2.2569,2.2793,2.2902,2.2937,2.3125,2.3117,2.3015,2.3476,2.399,2.427,2.4913,2.6374,2.6237,2.6191,2.6897,2.7478,2.8066,2.8822,3.0102,3.1108,3.1762,3.215,3.2575,3.3049,3.2737,3.2743,3.3182,3.3277,3.3286,3.3309,3.3356,3.3688,3.4532,3.4469,3.5015,3.5807,3.6195,3.6437,3.6949,3.7202,3.7408,3.7617,3.7757,3.8132,3.8641,3.9159,3.9819,4.0484,4.1007,4.1301,4.1526,4.1582,4.1604,4.1604,4.1604,4.1604,4.1604,4.1604,4.1604,4.1604,4.1604,4.1604,4.1604,4.1604,4.1604,2.4278,2.4587,2.487,2.5209,2.5605,2.5887,2.6084,2.6225,2.6365,2.6426,2.6376,2.6267,2.6183,2.6296,2.6291,2.6284,2.6218,2.622,2.5813,2.5214,2.4934,2.3679,2.2267,2.1771,2.1566,2.1435,2.1403,2.1391,2.1391,2.1391,2.1391,2.1391,2.1391,2.1391,2.1391,2.1391,2.1391,2.1391,2.1391,2.1391,2.1391,2.1411,2.1391,2.1391,2.1397,2.1411,2.1453,2.186,2.2225,2.2494,2.2752,2.2893,2.2966,2.3711,2.4134,2.406,2.4259,2.4432,2.4569,2.5151,2.6069,2.6972,2.6951,2.7009,2.7401,2.8269,2.8889,2.9676,3.1208,3.2382,3.2359,3.2676,3.3087,3.3245,3.3078,3.3062,3.323,3.3286,3.3286,3.334,3.3726,3.4406,3.5022,3.5243,3.5473,3.6202,3.6533,3.6683,3.7297,3.7539,3.7554,3.7606,3.7765,3.8083,3.8495,3.8977,3.9584,4.0277,4.0801,4.1209,4.1426,4.1593,4.1604,4.1604,4.1604,4.1604,4.1604,4.1604,4.1604,4.1604,4.1604,4.1604,4.1604,4.1604,4.1604,2.3743,2.414,2.4399,2.4735,2.5131,2.5515,2.5729,2.5838,2.6028,2.6096,2.6056,2.6117,2.619,2.6352,2.6638,2.6786,2.68,2.68,2.6404,2.58,2.5236,2.3951,2.2517,2.1925,2.1662,2.1508,2.1484,2.1453,2.1403,2.1391,2.1391,2.1391,2.1391,2.1391,2.1391,2.1391,2.1391,2.1391,2.1391,2.1391,2.1391,2.1471,2.1476,2.1494,2.1538,2.1592,2.1692,2.2059,2.2388,2.2583,2.278,2.2893,2.3004,2.4102,2.4967,2.5328,2.5375,2.523,2.5524,2.6137,2.6813,2.7382,2.7522,2.7794,2.8246,2.8992,2.9553,3.0683,3.2077,3.2657,3.2848,3.3087,3.3255,3.3286,3.3286,3.3302,3.3302,3.3577,3.3546,3.3616,3.4153,3.5187,3.6081,3.5995,3.6209,3.666,3.6943,3.714,3.7431,3.753,3.7628,3.7687,3.7863,3.8202,3.8604,3.9078,3.9845,4.0509,4.1248,4.1534,4.1537,4.171,4.1604,4.1604,4.1604,4.1604,4.1604,4.1604,4.1604,4.1604,4.1604,4.1604,4.1604,4.1604,4.1604,2.3285,2.3593,2.3919,2.4213,2.458,2.5084,2.5356,2.5412,2.5646,2.5729,2.5667,2.5757,2.5845,2.6063,2.6407,2.6687,2.6667,2.6608,2.6407,2.5856,2.5146,2.3998,2.3007,2.2339,2.1939,2.1673,2.1616,2.152,2.1422,2.1391,2.1391,2.1391,2.1391,2.1391,2.1391,2.1391,2.1391,2.1391,2.1391,2.1391,2.1416,2.1526,2.1598,2.1632,2.1775,2.1908,2.2055,2.2289,2.25,2.2609,2.2812,2.2882,2.3062,2.4166,2.5616,2.6596,2.6262,2.6072,2.66,2.6953,2.734,2.7844,2.8023,2.8375,2.9087,2.9638,3.0428,3.1596,3.2201,3.2819,3.3299,3.3451,3.36,3.3704,3.365,3.3561,3.3609,3.3995,3.409,3.3704,3.4747,3.6025,3.6831,3.7038,3.6753,3.7061,3.7258,3.7337,3.7507,3.7604,3.77,3.7796,3.8044,3.8362,3.877,3.92,4.0078,4.0908,4.1823,4.2228,4.1966,4.1938,4.171,4.1604,4.1604,4.1604,4.1604,4.1604,4.1604,4.1604,4.1604,4.1604,4.1604,4.1604,4.1604,2.3088,2.3463,2.3623,2.3949,2.4364,2.4744,2.4984,2.5076,2.5153,2.5174,2.516,2.5181,2.5321,2.5564,2.59,2.6111,2.609,2.6056,2.5845,2.5363,2.475,2.4258,2.3604,2.2931,2.2272,2.1877,2.1654,2.1526,2.1416,2.1385,2.1391,2.1391,2.1391,2.1391,2.1391,2.1391,2.1391,2.1391,2.1391,2.1391,2.1429,2.155,2.1676,2.1775,2.1988,2.2178,2.2312,2.2469,2.2609,2.2741,2.2834,2.2893,2.329,2.5252,2.6712,2.7056,2.721,2.7211,2.7513,2.7741,2.8006,2.8253,2.8765,2.9234,2.9648,3.0506,3.1298,3.2169,3.2743,3.3284,3.3884,3.4058,3.4311,3.4636,3.4801,3.4839,3.4871,3.4595,3.4557,3.4991,3.5631,3.6525,3.736,3.7392,3.7329,3.7494,3.751,3.751,3.7584,3.7671,3.7796,3.7889,3.8171,3.8576,3.9385,3.9958,4.0894,4.1609,4.2415,4.2792,4.2517,4.2394,4.2254,4.1938,4.1604,4.1651,4.1844,4.1604,4.1604,4.1604,4.1657,4.1797,4.185,4.1762,4.1973,2.3078,2.3271,2.3325,2.3571,2.3912,2.4297,2.4491,2.4505,2.4556,2.4535,2.4512,2.4549,2.4694,2.4908,2.5273,2.5481,2.5446,2.5363,2.5011,2.4583,2.4289,2.4104,2.3693,2.3185,2.2596,2.2062,2.1659,2.1443,2.1337,2.1355,2.1391,2.1391,2.1391,2.1391,2.1391,2.1391,2.1391,2.1391,2.1391,2.1391,2.1429,2.1598,2.1849,2.2047,2.2263,2.2428,2.2492,2.2612,2.2707,2.2801,2.2851,2.2893,2.3419,2.5775,2.7345,2.7602,2.766,2.7823,2.7993,2.8207,2.8377,2.8562,2.9284,2.9942,3.0459,3.1221,3.196,3.2606,3.311,3.3568,3.4223,3.4697,3.5038,3.5243,3.5424,3.5408,3.5393,3.53,3.5347,3.5844,3.6397,3.695,3.7369,3.7471,3.751,3.751,3.751,3.751,3.7584,3.7678,3.7874,3.8032,3.8297,3.8867,3.9881,4.0818,4.1889,4.2529,4.3112,4.3209,4.3002,4.2944,4.2903,4.271,4.2564,4.2207,4.2295,4.1967,4.1727,4.1745,4.1868,4.2078,4.2342,4.2605,4.2886,2.3095,2.3095,2.3095,2.3225,2.3455,2.3839,2.3976,2.39,2.3969,2.4011,2.3907,2.3976,2.4146,2.4328,2.4681,2.4818,2.4682,2.4528,2.4139,2.3747,2.3899,2.3759,2.3392,2.2976,2.2522,2.2166,2.1661,2.133,2.1213,2.1271,2.1332,2.1373,2.1391,2.1391,2.1391,2.1391,2.1391,2.1391,2.1391,2.1391,2.1434,2.1664,2.1985,2.2347,2.2543,2.2638,2.2672,2.2758,2.2881,2.2945,2.2921,2.3018,2.3943,2.5938,2.8018,2.8088,2.8002,2.8021,2.8272,2.8534,2.8805,2.8935,2.9951,3.0725,3.134,3.1858,3.2486,3.2989,3.346,3.3909,3.4548,3.518,3.5591,3.5788,3.5772,3.5725,3.5819,3.6225,3.6358,3.6192,3.672,3.7321,3.7439,3.751,3.751,3.751,3.751,3.7525,3.7584,3.7762,3.798,3.8375,3.8696,3.991,4.1018,4.2144,4.3159,4.3576,4.406,4.4043,4.3898,4.415,4.4267,4.3974,4.374,4.3284,4.281,4.254,4.2312,4.2101,4.2277,4.2669,4.309,4.3506,4.3752,2.3095,2.3095,2.3095,2.3218,2.3418,2.3601,2.3647,2.3651,2.3673,2.3667,2.3651,2.3667,2.3732,2.3954,2.4118,2.4012,2.3643,2.3513,2.335,2.3042,2.3145,2.3131,2.3117,2.2371,2.1888,2.1775,2.1433,2.1124,2.0969,2.0995,2.1198,2.1343,2.1391,2.1391,2.1391,2.1391,2.1391,2.1391,2.1391,2.1391,2.1452,2.1712,2.2073,2.2512,2.2718,2.2809,2.284,2.2897,2.3149,2.3601,2.3189,2.3551,2.455,2.6616,2.7935,2.8354,2.8162,2.8122,2.8531,2.9063,2.9528,3.013,3.1059,3.1763,3.2168,3.2636,3.3081,3.346,3.3981,3.4613,3.591,3.6123,3.6524,3.6879,3.6989,3.6989,3.7037,3.7061,3.6934,3.6499,3.7028,3.751,3.751,3.751,3.751,3.7532,3.7554,3.7532,3.7539,3.7839,3.8202,3.8667,3.9186,4.0736,4.2319,4.3497,4.4532,4.4779,4.5138,4.5403,4.5395,4.5694,4.5694,4.5068,4.4466,4.3886,4.3488,4.3161,4.3161,4.3172,4.3272,4.34,4.3775,4.4185,4.4378,2.3095,2.3083,2.2799,2.2904,2.316,2.3014,2.3094,2.3328,2.334,2.334,2.3252,2.3082,2.3151,2.3362,2.3218,2.2867,2.256,2.2686,2.2407,2.1999,2.1991,2.2154,2.2369,2.1554,2.112,2.0868,2.0694,2.0693,2.0618,2.0816,2.1026,2.1259,2.1363,2.1391,2.1391,2.1391,2.1391,2.1391,2.1391,2.1397,2.1446,2.1769,2.2225,2.2526,2.278,2.2882,2.2957,2.3308,2.3557,2.3839,2.3888,2.4238,2.5121,2.6301,2.7678,2.8177,2.8125,2.8256,2.8799,2.937,2.9819,3.0541,3.1644,3.2206,3.2459,3.2873,3.3555,3.4257,3.4573,3.5261,3.6235,3.6707,3.7124,3.7392,3.751,3.751,3.751,3.751,3.7194,3.6807,3.7209,3.751,3.751,3.751,3.751,3.7539,3.7607,3.7585,3.7556,3.833,3.8968,3.9547,4.0249,4.1571,4.3089,4.4181,4.5145,4.5529,4.5852,4.6115,4.619,4.6155,4.6056,4.5694,4.5109,4.4518,4.4191,4.3875,4.405,4.4278,4.4553,4.4746,4.4694,4.4799,4.5004,2.3095,2.3058,2.2513,2.2538,2.2839,2.2495,2.2546,2.2915,2.3085,2.313,2.3032,2.2721,2.2774,2.2922,2.2698,2.2248,2.1714,2.2099,2.1687,2.124,2.1124,2.1174,2.114,2.0851,2.0564,2.0224,1.9944,1.9992,2.0214,2.0472,2.0785,2.1044,2.124,2.1355,2.1367,2.1391,2.1391,2.1391,2.1391,2.1417,2.1592,2.1949,2.233,2.2578,2.28,2.2951,2.3215,2.3566,2.4042,2.4347,2.4605,2.4926,2.5311,2.622,2.7115,2.7703,2.7863,2.8417,2.9094,2.9716,3.0326,3.1156,3.1993,3.2402,3.2617,3.3148,3.383,3.5038,3.5512,3.586,3.662,3.7133,3.7408,3.7487,3.751,3.751,3.751,3.751,3.751,3.7368,3.751,3.7557,3.7597,3.751,3.751,3.7807,3.789,3.778,3.7984,3.9515,4.0295,4.0807,4.155,4.2606,4.3717,4.454,4.5276,4.5647,4.5917,4.6171,4.6208,4.619,4.6074,4.5968,4.5764,4.5226,4.4899,4.4741,4.4951,4.5279,4.5817,4.5898,4.5536,4.5501,4.5694,2.3095,2.307,2.2508,2.2345,2.2402,2.2302,2.2322,2.2485,2.2904,2.3095,2.311,2.3007,2.2965,2.2995,2.302,2.2671,2.2227,2.1852,2.1588,2.1204,2.0958,2.0907,2.1026,2.0735,2.033,1.9915,1.9532,1.9492,1.9733,2.001,2.0378,2.0765,2.1014,2.1194,2.1521,2.1456,2.1391,2.1411,2.1423,2.1518,2.1752,2.2041,2.233,2.2581,2.2872,2.32,2.3638,2.3998,2.4454,2.5326,2.5087,2.5502,2.635,2.6641,2.6955,2.7327,2.7764,2.847,2.9471,3.0192,3.1042,3.1901,3.2718,3.3094,3.3141,3.3236,3.3893,3.5259,3.5733,3.635,3.7021,3.7392,3.751,3.751,3.751,3.751,3.7526,3.7764,3.7732,3.7708,3.7764,3.7755,3.7755,3.7613,3.7549,3.7885,3.8151,3.8142,3.87,4.0366,4.1443,4.1928,4.2468,4.3485,4.4177,4.5021,4.5459,4.5818,4.5999,4.6208,4.6208,4.6208,4.6208,4.6091,4.5951,4.5916,4.5659,4.5624,4.5846,4.5951,4.6091,4.6155,4.6138,4.6208,4.6208,2.3271,2.3182,2.2319,2.2142,2.2319,2.1871,2.2003,2.2522,2.2687,2.2953,2.3114,2.2801,2.2651,2.2732,2.2932,2.2782,2.2325,2.2013,2.1563,2.1137,2.081,2.0607,2.0357,2.0141,1.9883,1.9796,1.9435,1.9283,1.9452,1.97,2.0048,2.0503,2.0837,2.132,2.1785,2.1639,2.1814,2.1923,2.1877,2.173,2.1932,2.2181,2.2428,2.2641,2.317,2.3612,2.3984,2.473,2.5137,2.5819,2.5784,2.6176,2.6641,2.6799,2.6878,2.7018,2.7944,2.8931,2.9946,3.0635,3.1618,3.2543,3.3126,3.3245,3.3286,3.3365,3.402,3.5654,3.5955,3.6547,3.7281,3.7494,3.751,3.751,3.7566,3.7581,3.7676,3.7978,3.8096,3.8049,3.8104,3.8333,3.8436,3.8325,3.8388,3.867,3.917,3.951,4.0276,4.17,4.2515,4.2978,4.3538,4.4209,4.4749,4.5374,4.5681,4.598,4.606,4.6208,4.6208,4.6208,4.6208,4.6208,4.612,4.612,4.6208,4.6155,4.605,4.612,4.6208,4.6208,4.6208,4.6208,4.6208,2.3289,2.3209,2.2297,2.2181,2.2509,2.1798,2.2007,2.273,2.2767,2.2995,2.3128,2.2808,2.2546,2.2576,2.2895,2.2887,2.2513,2.2252,2.1663,2.1074,2.0591,2.0333,2.0167,1.9913,1.9773,1.9822,1.952,1.9418,1.9501,1.9636,1.9927,2.022,2.0706,2.1365,2.2034,2.2293,2.2471,2.2973,2.2702,2.2602,2.2698,2.2901,2.3053,2.3326,2.373,2.4196,2.4507,2.5151,2.5732,2.6168,2.6437,2.667,2.68,2.6807,2.7111,2.7425,2.8256,2.9147,3.0188,3.1103,3.2021,3.2862,3.3537,3.3679,3.3688,3.3577,3.4288,3.6278,3.6499,3.6894,3.7297,3.751,3.751,3.7581,3.77,3.7716,3.7859,3.8365,3.8807,3.895,3.9131,3.9526,3.9534,3.9289,3.9305,3.9502,4.0012,4.0662,4.1669,4.2773,4.3182,4.354,4.4089,4.4637,4.5171,4.563,4.5954,4.6104,4.6183,4.6208,4.6208,4.6208,4.6208,4.6208,4.6208,4.6208,4.6208,4.6208,4.6208,4.6208,4.6208,4.6208,4.6208,4.6208,4.6208,2.2964,2.3,2.2651,2.2624,2.277,2.2713,2.2709,2.287,2.3161,2.3291,2.3355,2.3142,2.3005,2.3047,2.305,2.3068,2.2947,2.1988,2.1557,2.1074,2.0515,2.0383,2.0281,2.0198,2.0052,2.0254,2.0003,1.988,1.9902,2.0015,1.9903,1.9799,2.0756,2.1491,2.2343,2.3072,2.3398,2.3804,2.3691,2.3783,2.3923,2.4093,2.4222,2.441,2.465,2.5005,2.5593,2.5811,2.6095,2.6581,2.672,2.68,2.68,2.68,2.7191,2.7983,2.8394,2.9312,3.0413,3.1376,3.2333,3.3155,3.3776,3.4216,3.4415,3.3735,3.4715,3.672,3.6973,3.7249,3.7462,3.751,3.751,3.7629,3.7835,3.8136,3.8436,3.9084,3.9503,3.9803,4.0111,4.0411,4.0569,4.0309,4.0079,4.0238,4.0814,4.1468,4.2245,4.3191,4.3536,4.3917,4.4451,4.4984,4.5505,4.5878,4.6079,4.6165,4.6195,4.6208,4.6208,4.6208,4.6208,4.6208,4.6208,4.6208,4.6208,4.6208,4.6208,4.6208,4.6208,4.6208,4.6208,4.6208,4.6208,2.2568,2.3078,2.2925,2.2868,2.2914,2.2657,2.2744,2.3026,2.3129,2.3268,2.3403,2.3315,2.3278,2.3278,2.3268,2.3078,2.2782,2.2436,2.1749,2.1259,2.088,2.0791,2.0784,2.0778,2.0788,2.0703,2.0565,2.0422,2.0313,2.0546,2.0627,2.0783,2.1246,2.2196,2.3105,2.402,2.4459,2.436,2.4391,2.4402,2.4438,2.4558,2.4651,2.4688,2.5259,2.5475,2.5805,2.6203,2.6517,2.672,2.6786,2.68,2.68,2.68,2.7365,2.8292,2.8647,2.9605,3.064,3.1536,3.2373,3.365,3.4178,3.4541,3.5063,3.4753,3.5229,3.6437,3.729,3.7494,3.751,3.751,3.7534,3.7685,3.8009,3.8444,3.895,3.9582,4.0056,4.0317,4.0719,4.1114,4.1249,4.1296,4.1091,4.0973,4.1621,4.2261,4.292,4.352,4.3844,4.4191,4.4673,4.5176,4.5701,4.5972,4.6195,4.6208,4.6208,4.6208,4.6208,4.6208,4.6208,4.6208,4.6208,4.6208,4.6208,4.6208,4.6208,4.6208,4.6208,4.6208,4.6208,4.6208,4.6296,2.2054,2.2909,2.2865,2.3029,2.3264,2.3019,2.3113,2.339,2.334,2.3302,2.341,2.3433,2.344,2.3418,2.3435,2.3123,2.2689,2.2292,2.1728,2.1305,2.1074,2.1206,2.1268,2.1299,2.1305,2.1185,2.1173,2.1115,2.1081,2.1296,2.1454,2.1664,2.2031,2.2933,2.3804,2.5107,2.5577,2.5293,2.5193,2.5186,2.5261,2.5332,2.5391,2.5447,2.5891,2.6074,2.6247,2.6523,2.6691,2.6771,2.68,2.68,2.68,2.6944,2.7429,2.8254,2.9095,2.9959,3.0967,3.1899,3.2752,3.3979,3.4564,3.5022,3.5489,3.5876,3.646,3.6699,3.7274,3.751,3.751,3.751,3.751,3.7645,3.8515,3.9029,3.9439,3.9977,4.0419,4.0806,4.1193,4.1462,4.1486,4.1534,4.1546,4.1484,4.1957,4.2524,4.3106,4.3676,4.4143,4.4474,4.4872,4.5345,4.5822,4.6029,4.6208,4.6208,4.6208,4.6208,4.6208,4.6208,4.6208,4.6208,4.6208,4.6208,4.6208,4.6208,4.6208,4.6208,4.6208,4.6208,4.6208,4.6243,4.6483,2.1413,2.2369,2.2414,2.3054,2.3893,2.4058,2.4019,2.3965,2.386,2.3679,2.3472,2.3554,2.3545,2.3492,2.3574,2.3184,2.2556,2.2094,2.1635,2.1316,2.1218,2.1457,2.1751,2.1895,2.1863,2.2044,2.194,2.185,2.1931,2.2036,2.2258,2.2581,2.2941,2.3527,2.4082,2.579,2.6653,2.6713,2.6572,2.6514,2.6471,2.6427,2.6405,2.644,2.6512,2.6581,2.6639,2.6691,2.68,2.68,2.68,2.68,2.68,2.6923,2.7702,2.9138,2.9335,3.0196,3.1554,3.2628,3.3583,3.4385,3.5006,3.5663,3.6328,3.688,3.7202,3.7219,3.7439,3.751,3.751,3.751,3.751,3.7803,3.8665,3.9368,3.974,4.0451,4.0925,4.1154,4.1367,4.1597,4.1588,4.1638,4.1794,4.1981,4.2357,4.2813,4.3312,4.3853,4.4357,4.4711,4.5076,4.5494,4.5898,4.6079,4.6208,4.6208,4.6208,4.6208,4.6208,4.6208,4.6208,4.6208,4.6208,4.6208,4.6208,4.6208,4.6208,4.6208,4.6208,4.6208,4.6208,4.6354,4.67,2.1035,2.1341,2.2193,2.2914,2.3537,2.3934,2.4118,2.4111,2.4045,2.3913,2.3772,2.3782,2.3774,2.3752,2.364,2.3247,2.2377,2.2539,2.2147,2.1095,2.14,2.1895,2.2239,2.2438,2.2413,2.2388,2.2338,2.2305,2.2204,2.2495,2.2762,2.3075,2.3499,2.4193,2.4873,2.5959,2.6477,2.6604,2.6691,2.6771,2.68,2.68,2.68,2.68,2.68,2.68,2.68,2.68,2.68,2.68,2.68,2.6821,2.6946,2.7134,2.8003,2.9096,2.9457,3.0713,3.2103,3.3273,3.4254,3.4936,3.5593,3.6288,3.7054,3.729,3.7471,3.751,3.751,3.751,3.751,3.751,3.7557,3.7771,3.8452,3.9194,3.9803,4.0814,4.1478,4.1462,4.1588,4.1597,4.1597,4.1638,4.1793,4.2101,4.2436,4.2859,4.3342,4.4006,4.4575,4.4917,4.5266,4.5662,4.5985,4.6122,4.6208,4.6208,4.6208,4.6208,4.6208,4.6208,4.6208,4.6208,4.6208,4.6208,4.6208,4.6208,4.6208,4.6208,4.6354,4.6389,4.6389,4.67,4.7116,2.1046,2.0992,2.1878,2.2674,2.3293,2.3871,2.4118,2.4118,2.4111,2.4023,2.392,2.3942,2.3942,2.392,2.3857,2.3414,2.2391,2.2573,2.2472,2.1391,2.19,2.2345,2.2644,2.2875,2.2807,2.2739,2.2832,2.2887,2.2629,2.2937,2.3105,2.3303,2.3697,2.4141,2.4874,2.5605,2.6238,2.6413,2.658,2.68,2.68,2.68,2.68,2.68,2.68,2.68,2.68,2.68,2.68,2.6815,2.6836,2.6938,2.7215,2.7592,2.8317,2.9089,3.0212,3.1348,3.2472,3.3822,3.4682,3.53,3.6028,3.6714,3.7314,3.7471,3.7487,3.751,3.751,3.751,3.751,3.751,3.77,3.7938,3.8625,3.9376,4.0111,4.1123,4.1597,4.1597,4.1597,4.1597,4.1597,4.1679,4.1761,4.2126,4.2484,4.2952,4.3438,4.4148,4.4773,4.5139,4.55,4.5854,4.6073,4.6165,4.6208,4.6208,4.6208,4.6208,4.6208,4.6208,4.6208,4.6208,4.6208,4.6208,4.6208,4.6225,4.6354,4.6554,4.6753,4.6735,4.6648,4.7128,4.7731,2.1326,2.126,2.1583,2.2366,2.336,2.3897,2.4112,2.4105,2.4118,2.403,2.3927,2.4032,2.4024,2.3964,2.4045,2.3573,2.296,2.2904,2.2594,2.2367,2.2428,2.2706,2.2902,2.3058,2.302,2.3058,2.3095,2.307,2.3055,2.3075,2.319,2.3323,2.3474,2.3875,2.448,2.5217,2.5838,2.6165,2.656,2.674,2.68,2.68,2.68,2.68,2.68,2.68,2.6829,2.6887,2.691,2.6931,2.6967,2.7273,2.755,2.776,2.8692,2.9779,3.1036,3.1807,3.2773,3.4106,3.4992,3.5591,3.6186,3.6793,3.7235,3.751,3.751,3.751,3.751,3.751,3.751,3.7685,3.7883,3.8444,3.9123,3.9803,4.0459,4.1075,4.147,4.1597,4.1597,4.1597,4.1597,4.1654,4.181,4.2254,4.268,4.3195,4.3734,4.4415,4.4988,4.5391,4.5739,4.6066,4.6208,4.6208,4.6208,4.6208,4.6208,4.6208,4.6208,4.6208,4.6208,4.6208,4.6208,4.6208,4.6208,4.6389,4.6671,4.6906,4.7309,4.7496,4.7525,4.8052,4.8661,2.1361,2.14,2.1804,2.2378,2.3042,2.3889,2.4195,2.4118,2.4118,2.4081,2.4045,2.4083,2.4081,2.4067,2.4068,2.3609,2.338,2.324,2.3017,2.2883,2.2858,2.3031,2.3103,2.3095,2.3095,2.3095,2.3095,2.3095,2.3095,2.3095,2.3115,2.319,2.3273,2.3514,2.4051,2.4773,2.5398,2.5975,2.6487,2.672,2.68,2.68,2.6815,2.6865,2.6894,2.6909,2.6989,2.7295,2.739,2.7448,2.7896,2.8288,2.8361,2.8826,2.9617,3.0528,3.1327,3.1997,3.3108,3.4245,3.5218,3.5965,3.6707,3.7124,3.7455,3.751,3.751,3.751,3.751,3.751,3.7661,3.7851,3.816,3.8728,3.9455,4.023,4.0822,4.117,4.1533,4.1597,4.1597,4.1637,4.1629,4.1654,4.1859,4.2357,4.2882,4.3429,4.4023,4.4708,4.5176,4.5568,4.586,4.6171,4.6208,4.6208,4.6208,4.6208,4.6208,4.6208,4.6208,4.6208,4.6208,4.6208,4.6208,4.6208,4.6208,4.6518,4.6993,4.7649,4.8077,4.8275,4.8525,4.9023,4.9374,2.1391,2.1441,2.1642,2.2147,2.2937,2.3959,2.4346,2.4194,2.4114,2.4118,2.4118,2.4118,2.4118,2.4111,2.4077,2.3835,2.3458,2.3636,2.3502,2.3196,2.3268,2.3187,2.3148,2.3115,2.3095,2.3095,2.3095,2.3095,2.3095,2.3095,2.3115,2.3123,2.3095,2.331,2.3802,2.4558,2.5224,2.5818,2.6319,2.6687,2.68,2.6821,2.6923,2.7105,2.7149,2.7265,2.7497,2.7927,2.8043,2.8093,2.86,2.8825,2.9058,2.9646,3.0053,3.0807,3.1131,3.1969,3.3033,3.4121,3.5234,3.6244,3.7077,3.7392,3.7487,3.751,3.751,3.751,3.751,3.7557,3.7795,3.8057,3.8476,3.891,3.9763,4.064,4.102,4.136,4.1502,4.1581,4.1629,4.1662,4.1695,4.1712,4.1972,4.2547,4.315,4.3737,4.4342,4.5001,4.5374,4.5696,4.5949,4.6208,4.6208,4.6208,4.6208,4.6208,4.6208,4.6208,4.6208,4.6208,4.6208,4.6208,4.6208,4.6208,4.6208,4.6876,4.7439,4.8077,4.8744,4.9177,4.9486,4.9908,5.0153,2.1391,2.1393,2.1306,2.1952,2.2924,2.4039,2.4433,2.4334,2.4201,2.4118,2.4118,2.4118,2.4118,2.4118,2.4098,2.4032,2.3829,2.3903,2.3804,2.3422,2.3469,2.339,2.3225,2.313,2.3145,2.313,2.3095,2.3095,2.3095,2.3095,2.3095,2.3095,2.3095,2.328,2.3697,2.4538,2.5161,2.557,2.6251,2.68,2.6843,2.6915,2.712,2.755,2.7782,2.7999,2.8455,2.8695,2.8753,2.8767,2.8956,2.9254,2.9704,3.0147,3.0489,3.0703,3.0984,3.2033,3.3101,3.4173,3.5315,3.6286,3.7123,3.7422,3.7525,3.751,3.751,3.751,3.751,3.751,3.7692,3.812,3.8563,3.8974,3.9605,4.0222,4.0577,4.0925,4.1233,4.1375,4.1597,4.1662,4.1809,4.1858,4.2109,4.2727,4.3331,4.3941,4.4538,4.5169,4.5561,4.5805,4.6029,4.6208,4.6208,4.6208,4.6208,4.6208,4.6208,4.6208,4.6208,4.6208,4.6208,4.6208,4.6208,4.6208,4.6337,4.7086,4.7819,4.838,4.9089,4.9973,5.043,5.0599,5.0669,2.1391,2.1446,2.1855,2.2454,2.3137,2.3789,2.4312,2.4643,2.437,2.4201,2.4112,2.4118,2.4118,2.4118,2.4118,2.4074,2.4059,2.4023,2.3942,2.3802,2.3735,2.3537,2.3366,2.3285,2.322,2.3138,2.3095,2.3095,2.3095,2.3095,2.3095,2.3095,2.3125,2.331,2.3719,2.4581,2.5161,2.5495,2.6358,2.6876,2.6917,2.7287,2.7615,2.7905,2.8115,2.8514,2.892,2.9196,2.9298,2.9406,2.9929,3.019,3.0379,3.0525,3.0583,3.0672,3.0998,3.2175,3.3457,3.4515,3.5567,3.6733,3.7532,3.7536,3.7547,3.7525,3.751,3.751,3.751,3.751,3.7676,3.8167,3.8658,3.9053,3.9511,3.9858,4.0206,4.0577,4.098,4.1265,4.1542,4.1736,4.1906,4.2109,4.2373,4.2827,4.3398,4.3977,4.4527,4.5119,4.5626,4.5898,4.6073,4.6208,4.6208,4.6208,4.6208,4.6208,4.6208,4.6208,4.6208,4.6208,4.6208,4.6208,4.6208,4.6208,4.6576,4.7519,4.8192,4.8503,4.9311,5.0114,5.05,5.0704,5.081,2.1391,2.1473,2.2055,2.2482,2.291,2.3656,2.4154,2.4381,2.4479,2.4392,2.4208,2.4141,2.4118,2.4118,2.4118,2.4118,2.4118,2.4098,2.4001,2.3927,2.3868,2.3669,2.353,2.3418,2.3256,2.3153,2.3115,2.3095,2.311,2.3123,2.3123,2.3198,2.3258,2.3489,2.3947,2.4688,2.5287,2.5639,2.6656,2.7126,2.7208,2.7557,2.8145,2.8413,2.8862,2.9203,2.961,2.9929,3.0039,3.0155,3.0476,3.0585,3.0621,3.0606,3.0605,3.0826,3.1389,3.2429,3.3902,3.5077,3.5994,3.7216,3.7738,3.7665,3.7532,3.751,3.751,3.751,3.751,3.751,3.785,3.8294,3.8871,3.9321,4.0151,4.0814,4.0949,4.1107,4.1393,4.1594,4.1826,4.1988,4.2149,4.2302,4.2578,4.2921,4.348,4.3936,4.4502,4.4991,4.5516,4.5936,4.6085,4.6189,4.6208,4.6208,4.6208,4.6208,4.6208,4.6208,4.6208,4.6208,4.6208,4.6337,4.6354,4.6208,4.674,4.7683,4.783,4.7889,4.9001,5.0213,5.05,5.0746,5.0845,2.1391,2.1492,2.1953,2.2251,2.2448,2.3384,2.3899,2.4033,2.4449,2.4555,2.4392,2.4237,2.4156,2.4118,2.4118,2.4118,2.4118,2.4118,2.403,2.3979,2.3949,2.3795,2.3626,2.3478,2.3388,2.3278,2.319,2.3175,2.3175,2.3153,2.3183,2.336,2.3576,2.3771,2.435,2.4971,2.5571,2.6223,2.7015,2.7699,2.7855,2.7942,2.8638,2.9254,2.9718,3.0031,3.046,3.0688,3.0769,3.0821,3.0807,3.0792,3.0799,3.0747,3.0739,3.0946,3.1775,3.2913,3.4215,3.5415,3.6587,3.7578,3.7709,3.7708,3.7613,3.7517,3.7517,3.751,3.751,3.7629,3.7953,3.8404,3.8981,3.9495,4.0451,4.1305,4.1352,4.1392,4.1553,4.1739,4.2037,4.219,4.2389,4.2547,4.2813,4.3143,4.3481,4.3931,4.4383,4.4841,4.5326,4.5728,4.5999,4.6097,4.6189,4.6208,4.6208,4.6208,4.6208,4.6208,4.626,4.6483,4.6612,4.6665,4.6606,4.6723,4.6981,4.7713,4.7684,4.7678,4.9142,5.0465,5.0476,5.0704,5.0845,2.1391,2.1406,2.1533,2.1838,2.2305,2.2584,2.3174,2.398,2.4053,2.4272,2.4536,2.4529,2.4396,2.4105,2.4118,2.4112,2.4121,2.4119,2.4118,2.4081,2.4045,2.3927,2.3782,2.3641,2.3649,2.3509,2.3368,2.3338,2.3263,2.316,2.3198,2.3418,2.3885,2.4192,2.4591,2.5326,2.6252,2.6909,2.7529,2.8217,2.9,2.916,2.9298,2.974,3.0118,3.0439,3.0703,3.0777,3.0895,3.0984,3.1036,3.0947,3.0918,3.0932,3.0969,3.1383,3.2212,3.3317,3.4534,3.5903,3.7198,3.8071,3.8143,3.7926,3.7752,3.7532,3.7525,3.751,3.7526,3.7566,3.7874,3.8381,3.891,3.9242,3.9937,4.0562,4.0894,4.0966,4.1077,4.1589,4.2117,4.2341,4.2602,4.2806,4.3044,4.331,4.3477,4.3899,4.4172,4.4649,4.5162,4.5548,4.593,4.6085,4.6208,4.6208,4.6208,4.6208,4.6313,4.6512,4.6718,4.6958,4.7099,4.7408,4.7584,4.7718,4.7977,4.7825,4.8099,4.8363,4.9739,5.0729,5.0634,5.0669,5.0845]},{"header":{"parameterUnit":"m.s-1","parameterCategory":1,"la1":31.0,"la2":29.5877,"lo1":-88.7671,"lo2":-86.6584,"dy":0.0162,"dx":0.0185,"nx":115,"ny":88,"refTime":"2026-05-11T00:00:00:Z","depth":0,"parameterNumber":3,"parameterNumberName":"V-component_of_WINDS"},"data":[0.0,0.0,0.0,0.0,0.0,0.0,0.0,0.0,0.0,0.0,0.0,0.0,0.0,0.0,0.0,0.0,0.0,0.0,0.0,0.0,0.0,0.0,0.0,0.0,0.0,0.0,0.0,0.0,0.0,0.0,0.0,0.0,0.0,0.0,0.0,0.0,0.0,0.0,0.0,0.0,0.0,0.0,0.0,0.0,0.0,0.0,0.0,0.0,0.0,0.0,0.0,0.0,0.0,0.0,0.0,0.0,0.0,0.0,0.0,0.0,0.0,0.0,0.0,0.0,0.0,0.0,0.0,0.0,0.0,0.0,0.0,0.0,0.0,0.0,0.0,0.0,0.0,0.0,0.0,0.0,0.0,0.0,0.0,0.0,0.0,0.0,0.0,0.0,0.0,0.0,0.0,0.0,0.0,0.0,0.0,0.0,0.0,0.0,0.0,0.0,0.0,0.0,0.0,0.0,0.0,0.0,0.0,0.0,0.0,0.0,0.0,0.0,0.0,0.0,0.0,0.0,0.0,0.0,0.0,0.0,0.0,0.0,0.0,0.0,0.0,0.0,0.0,0.0,0.0,0.0,0.0,0.0,0.0,0.0,0.0,0.0,0.0,0.0,0.0,0.0,0.0,0.0,0.0,0.0,0.0,0.0,0.0,0.0,0.0,0.0,0.0,0.0,0.0,0.0,0.0,0.0,0.0,0.0,0.0,0.0,0.0,0.0,0.0,0.0,0.0,0.0,0.0,0.0,0.0,0.0,0.0,0.0,0.0,0.0,0.0,0.0,0.0,0.0,0.0,0.0,0.0,0.0,0.0,0.0,0.0,0.0,0.0,0.0,0.0,0.0,0.0,0.0,0.0,0.0,0.0,0.0,0.0,0.0,0.0,0.0,0.0,0.0,0.0,0.0,0.0,0.0,0.0,0.0,0.0,0.0,0.0,0.0,0.0,0.0,0.0,0.0,0.0,0.0,0.0,0.0,0.0,0.0,0.0,0.0,0.0,0.0,0.0,0.0,0.0,0.0,0.0,0.0,0.0,0.0,0.0,0.0,0.0,0.0,0.0,0.0,0.0,0.0,0.0,0.0,0.0,0.0,0.0,0.0,0.0,0.0,0.0,0.0,0.0,0.0,0.0,0.0,0.0,0.0,0.0,0.0,0.0,0.0,0.0,0.0,0.0,0.0,0.0,0.0,0.0,0.0,0.0,0.0,0.0,0.0,0.0,0.0,0.0,0.0,0.0,0.0,0.0,0.0,0.0,0.0,0.0,0.0,0.0,0.0,0.0,0.0,0.0,0.0,0.0,0.0,0.0,0.0,0.0,0.0,0.0,0.0,0.0,0.0,0.0,0.0,0.0,0.0,0.0,0.0,0.0,0.0,0.0,0.0,0.0,0.0,0.0,0.0,0.0,0.0,0.0,0.0,0.0,0.0,0.0,0.0,0.0,0.0,0.0,0.0,0.0,0.0,0.0,0.0,0.0,0.0,0.0,0.0,0.0,0.0,0.0,0.0,0.0,0.0,0.0,0.0,0.0,0.0,0.0,0.0,0.0,0.0,0.0,0.0,0.0,0.0,0.0,0.0,0.0,0.0,0.0,0.0,0.0,0.0,0.0,0.0,0.0,0.0,0.0,0.0,0.0,0.0,0.0,0.0,0.0,0.0,0.0,0.0,0.0,0.0,0.0,0.0,0.0,0.0,0.0,0.0,0.0,0.0,0.0,0.0,0.0,0.0,0.0,0.0,0.0,0.0,0.0,0.0,0.0,0.0,0.0,0.0,0.0,0.0,0.0,0.0,0.0,0.0,0.0,0.0,0.0,0.0,0.0,0.0,0.0,0.0,0.0,0.0,0.0,0.0,0.0,0.0,0.0,0.0,0.0,0.0,0.0,0.0,0.0,0.0,0.0,0.0,0.0,0.0,0.0,0.0,0.0,0.0,0.0,0.0,0.0,0.0,0.0,0.0,0.0,0.0,0.0,0.0,0.0,0.0,0.0,0.0,0.0,0.0,0.0,0.0,0.0,0.0,0.0,0.0,0.0,0.0,0.0,0.0,0.0,0.0,0.0,0.0,0.0,0.0,0.0,0.0,0.0,0.0,0.0,0.0,0.0,0.0,0.0,0.0,0.0,0.0,0.0,0.0,0.0,0.0,0.0,0.0,0.0,0.0,0.0,0.0,0.0,0.0,0.0,0.0,0.0,0.0,0.0,0.0,0.0,0.0,0.0,0.0,0.0,0.0,0.0,0.0,0.0,0.0,0.0,0.0,0.0,0.0,0.0,0.0,0.0,0.0,0.0,0.0,0.0,0.0,0.0,0.0,0.0,0.0,0.0,0.0,0.0,0.0,0.0,0.0,0.0,0.0,0.0,0.0,0.0,0.0,0.0,0.0,0.0,0.0,0.0,0.0,0.0,0.0,0.0,0.0,0.0,0.0,0.0,0.0,0.0,0.0,0.0,0.0,0.0,0.0,0.0,0.0,0.0,0.0,0.0,0.0,0.0,0.0,0.0,0.0,0.0,0.0,0.0,0.0,0.0,0.0,0.0,0.0,0.0,0.0,0.0,0.0,0.0,0.0,0.0,0.0,0.0,0.0,0.0,0.0,0.0,0.0,0.0,0.0,0.0,0.0,0.0,0.0,0.0,0.0,0.0,0.0,0.0,0.0,0.0,0.0,0.0,0.0,0.0,0.0,0.0,0.0,0.0,0.0,0.0,0.0,0.0,0.0,0.0,0.0,0.0,0.0,0.0,0.0,0.0,0.0,0.0,0.0,0.0,0.0,0.0,0.0,0.0,0.0,0.0,0.0,0.0,0.0,0.0,0.0,0.0,0.0,0.0,0.0,0.0,0.0,0.0,0.0,0.0,0.0,0.0,0.0,0.0,0.0,0.0,0.0,0.0,0.0,0.0,0.0,0.0,0.0,0.0,0.0,0.0,0.0,0.0,0.0,0.0,0.0,0.0,0.0,0.0,0.0,0.0,0.0,0.0,0.0,0.0,0.0,0.0,0.0,0.0,0.0,0.0,0.0,0.0,0.0,0.0,0.0,0.0,0.0,0.0,0.0,0.0,0.0,0.0,0.0,0.0,0.0,0.0,0.0,0.0,0.0,0.0,0.0,0.0,0.0,0.0,0.0,0.0,0.0,0.0,0.0,0.0,0.0,0.0,0.0,0.0,0.0,0.0,0.0,0.0,0.0,0.0,0.0,0.0,0.0,0.0,0.0,0.0,0.0,0.0,0.0,0.0,0.0,0.0,0.0,0.0,0.0,0.0,0.0,0.0,0.0,0.0,0.0,0.0,0.0,0.0,0.0,0.0,0.0,0.0,0.0,0.0,0.0,0.0,0.0,0.0,0.0,0.0,0.0,0.0,0.0,0.0,0.0,0.0,0.0,0.0,0.0,0.0,0.0,0.0,0.0,0.0,0.0,0.0,0.0,0.0,0.0,0.0,0.0,0.0,0.0,0.0,0.0,0.0,0.0,0.0,0.0,0.0,0.0,0.0,0.0,0.0,0.0,0.0,0.0,0.0,0.0,0.0,0.0,0.0,0.0,0.0,0.0,0.0,0.0,0.0,0.0,0.0,0.0,0.0,0.0,0.0,0.0,0.0,0.0,0.0,0.0,0.0,0.0,0.0,0.0,0.0,0.0,0.0,0.0,0.0,0.0,0.0,0.0,0.0,0.0,0.0,0.0,0.0,0.0,0.0,0.0,0.0,0.0,0.0,0.0,0.0,0.0,0.0,0.0,0.0,0.0,0.0,0.0,0.0,0.0,0.0,0.0,0.0,0.0,0.0,0.0,0.0,0.0,0.0,0.0,0.0,0.0,0.0,0.0,0.0,0.0,0.0,0.0,0.0,0.0,0.0,0.0,0.0,0.0,0.0,0.0,0.0,0.0,0.0,0.0,0.0,0.0,0.0,0.0,0.0,0.0,0.0,0.0,0.0,0.0,0.0,0.0,0.0,0.0,0.0,0.0,0.0,0.0,0.0,0.0,0.0,0.0,0.0,0.0,0.0,0.0,0.0,0.0,0.0,0.0,0.0,0.0,0.0,0.0,0.0,0.0,0.0,0.0,0.0,0.0,0.0,0.0,0.0,0.0,0.0,0.0,0.0,0.0,0.0,0.0,0.0,0.0,0.0,0.0,0.0,0.0,0.0,0.0,0.0,0.0,0.0,0.0,0.0,0.0,0.0,0.0,0.0,0.0,0.0,0.0,0.0,0.0,0.0,0.0,0.0,0.0,0.0,0.0,0.0,0.0,0.0,0.0,0.0,0.0,0.0,0.0,0.7011,0.0,0.0,0.0,0.0,0.0,0.0,0.0,0.0,0.0,0.0,0.0,0.0,0.0,0.0,0.0,0.0,0.0,0.0,0.0,0.0,0.0,0.0,0.0,0.0,0.0,0.0,0.0,0.0,0.0,0.0,0.0,0.0,0.0,0.0,0.0,0.0,0.0,0.0,0.0,0.0,0.0,0.0,0.0,0.0,0.0,0.0,0.0,0.0,0.0,0.0,0.0,0.0,0.0,0.0,0.0,0.0,0.0,0.0,0.0,0.0,0.0,0.0,0.0,0.0,0.0,0.0,0.0,0.0,0.0,0.0,0.0,0.0,0.0,0.0,0.0,0.0,0.0,0.0,0.0,0.0,0.0,0.0,0.0,0.0,0.0,0.0,0.0,0.0,0.0,0.0,0.0,0.0,0.0,0.0,0.0,0.0,0.0,0.0,0.0,0.0,0.0,0.0,0.0,0.0,0.0,0.0,0.0,0.0,0.0,0.0,0.6366,0.6405,0.6519,0.6698,0.6947,0.0,0.0,0.0,0.0,0.0,0.0,0.0,0.0,0.0,0.0,0.0,0.0,0.0,0.0,0.0,0.0,0.0,0.0,0.0,0.0,0.0,0.0,0.0,0.0,0.0,0.0,0.0,0.0,0.0,0.0,0.0,0.0,0.0,0.0,0.0,0.0,0.0,0.0,0.0,0.0,0.0,0.0,0.0,0.0,0.0,0.0,0.0,0.0,0.0,0.0,0.0,0.0,0.0,0.0,0.0,0.0,0.0,0.0,0.0,0.0,0.0,0.0,0.0,0.0,0.0,0.0,0.0,0.0,0.0,0.0,0.0,0.0,0.0,0.0,0.0,0.0,0.0,0.0,0.0,0.0,0.0,0.0,0.0,0.0,0.0,0.0,0.0,0.0,0.0,0.0,0.0,0.0,0.0,0.0,0.0,0.0,0.0,0.0,0.0,0.0,0.0,0.0,0.0,0.0,0.0,0.0,0.0,0.0,0.0,0.0,0.0,0.0,0.6495,0.664,0.695,0.0,0.0,0.0,0.0,0.0,0.0,0.0,0.0,0.0,0.0,0.0,0.0,0.0,0.0,0.0,0.0,0.0,0.0,0.0,0.0,0.0,0.0,0.0,0.0,0.0,0.0,0.0,0.0,0.0,0.0,0.0,0.0,0.0,0.0,0.0,0.0,0.0,0.0,0.0,0.0,0.0,0.0,0.0,0.0,0.0,0.0,0.0,0.0,0.0,0.0,0.0,0.0,0.0,0.0,0.0,0.0,0.0,0.0,0.0,0.0,0.0,0.0,0.0,0.0,0.0,0.0,0.0,0.0,0.0,0.0,0.0,0.0,0.0,0.0,0.0,0.0,0.0,0.0,0.0,0.0,0.0,0.0,0.0,0.0,0.0,0.0,0.0,0.0,0.0,0.0,0.0,0.0,0.0,0.0,0.0,0.0,0.0,0.0,0.0,0.0,0.0,0.0,0.0,0.0,0.0,0.0,0.0,0.0,0.0,0.0,0.6537,0.6996,0.669,0.0,0.7025,0.0,0.0,0.0,0.0,0.0,0.0,0.0,0.0,0.0,0.0,0.0,0.0,0.0,0.0,0.0,0.0,0.0,0.0,0.0,0.0,0.0,0.0,0.0,0.0,0.0,0.0,0.0,0.0,0.0,0.0,0.0,0.0,0.0,0.0,0.0,0.0,0.0,0.0,0.0,0.0,0.0,0.0,0.0,0.0,0.0,0.0,0.0,0.0,0.0,0.0,0.0,0.0,0.0,0.0,0.0,0.0,0.0,0.0,0.0,0.0,0.0,0.0,0.0,0.0,0.0,0.0,0.0,0.0,0.0,0.0,0.0,0.0,0.0,0.0,0.0,0.0,0.0,0.0,0.0,0.0,0.0,0.0,0.0,0.0,0.0,0.0,0.0,0.0,0.0,0.0,0.0,0.0,0.0,0.0,0.0,0.0,0.0,0.0,0.0,0.0,0.0,0.0,0.0,0.0,0.0,0.0,0.0,0.0,0.0,0.0,0.6561,0.7097,0.7178,0.7301,0.0,0.0,0.0,0.0,0.0,0.0,0.0,0.0,0.0,0.0,0.0,0.0,0.0,0.0,0.0,0.0,0.0,0.0,0.0,0.0,0.0,0.0,0.0,0.0,0.0,0.0,0.0,0.0,0.0,0.0,0.0,0.0,0.0,0.0,0.0,0.0,0.0,0.0,0.0,0.0,0.0,0.0,0.0,0.0,0.0,0.0,0.0,0.0,0.0,0.0,0.0,0.0,0.0,0.0,0.0,0.0,0.0,0.0,0.0,0.0,0.0,0.0,0.0,0.0,0.0,0.0,0.0,0.0,0.0,0.0,0.0,0.0,0.0,0.0,0.0,0.0,0.0,0.0,0.0,0.0,0.0,0.0,0.0,0.0,0.0,0.0,0.0,0.0,0.0,0.0,0.0,0.0,0.0,0.0,0.0,0.0,0.0,0.0,0.0,0.0,0.0,0.0,0.0,0.0,0.0,0.0,0.0,0.0,0.0,0.0,0.6012,0.0,0.6911,0.743,0.7662,0.7596,0.0,0.0,0.0,0.0,0.0,0.0,0.0,0.0,0.0,0.0,0.0,0.0,0.0,0.0,0.0,0.0,0.0,0.0,0.0,0.0,0.0,0.0,0.0,0.0,0.0,0.0,0.0,0.0,0.0,0.0,0.0,0.0,0.0,0.0,0.0,0.0,0.0,0.0,0.0,0.0,0.0,0.0,0.0,0.0,0.0,0.0,0.0,0.0,0.0,0.0,0.0,0.0,0.0,0.0,0.0,0.0,0.0,0.0,0.0,0.0,0.0,0.0,0.0,0.0,0.0,0.0,0.0,0.0,0.0,0.0,0.0,0.0,0.0,0.0,0.0,0.0,0.0,0.0,0.0,0.0,0.0,0.0,0.0,0.0,0.0,0.0,0.0,0.0,0.0,0.0,0.0,0.0,0.0,0.0,0.0,0.0,0.0,0.0,0.0,0.0,0.0,0.0,0.0,0.0,0.0,0.0,0.0,0.0,0.0,0.5316,0.5848,0.6504,0.7273,0.7503,0.0,0.0,0.0,0.0,0.0,0.0,0.0,0.0,0.0,0.0,0.0,0.0,0.0,0.0,0.0,0.0,0.0,0.0,0.0,0.0,0.0,0.0,0.0,0.0,0.0,0.0,0.0,0.0,0.0,0.0,0.0,0.0,0.0,0.0,0.0,0.0,0.0,0.0,0.0,0.0,0.0,0.0,0.0,0.0,0.0,0.0,0.0,0.0,0.0,0.0,0.0,0.0,0.0,0.0,0.0,0.0,0.0,0.0,0.0,0.0,0.0,0.0,0.0,0.0,0.0,0.0,0.0,0.0,0.0,0.0,0.0,0.0,0.0,0.0,0.0,0.0,0.0,0.0,0.0,0.0,0.0,0.0,0.0,0.0,0.0,0.0,0.0,0.0,0.0,0.0,0.0,0.0,0.0,0.0,0.0,0.0,0.0,0.0,0.0,0.0,0.0,0.0,0.0,0.0,0.0,0.0,0.0,0.0,0.0,0.4844,0.5265,0.5665,0.5988,0.677,0.7124,0.0,0.0,0.0,0.0,0.0,0.0,0.0,0.0,0.0,0.0,0.0,0.0,0.0,0.0,0.0,0.0,0.0,0.0,0.0,0.0,0.0,0.0,0.0,0.0,0.0,0.0,0.0,0.0,0.0,0.0,0.0,0.0,0.0,0.0,0.0,0.0,0.0,0.0,0.0,0.0,0.0,0.0,0.0,0.0,0.0,0.0,0.0,0.0,0.0,0.0,0.0,0.0,0.0,0.0,0.0,0.0,0.0,0.0,0.0,0.0,0.0,0.0,0.0,0.0,0.0,0.0,0.0,0.0,0.0,0.0,0.0,0.0,0.0,0.0,0.0,0.0,0.0,0.0,0.0,0.0,0.0,0.0,0.0,0.0,0.0,0.0,0.0,0.0,0.0,0.0,0.0,0.0,0.0,0.0,0.0,0.0,0.0,0.0,0.0,0.0,0.0,0.0,0.0,0.0,0.0,0.0,0.0,0.0,0.0,0.5056,0.0,0.5645,0.0,0.6566,0.6923,0.0,0.0,0.0,0.0,0.0,0.0,0.0,0.0,0.0,0.0,0.0,0.0,0.0,0.0,0.0,0.0,0.0,0.0,0.0,0.0,0.0,0.0,0.0,0.0,0.0,0.0,0.0,0.0,0.0,0.0,0.0,0.0,0.0,0.0,0.0,0.0,0.0,0.0,0.0,0.0,0.0,0.0,0.0,0.0,0.0,0.0,0.0,0.0,0.0,0.0,0.0,0.0,0.0,0.0,0.0,0.0,0.0,0.0,0.0,0.0,0.0,0.0,0.0,0.0,0.0,0.0,0.0,0.0,0.0,0.0,0.0,0.0,0.0,0.0,0.0,0.0,0.0,0.0,0.0,0.0,0.0,0.0,0.0,0.0,0.0,0.0,0.0,0.0,0.0,0.0,0.0,0.0,0.0,0.0,0.0,0.0,0.0,0.0,0.0,0.0,0.0,0.0,0.0,0.0,0.0,0.0,0.0,0.0,0.551,0.5483,0.551,0.5836,0.6474,0.6753,0.6923,0.0,0.0,0.0,0.0,0.0,0.0,0.0,0.0,0.0,0.0,0.0,0.0,0.0,0.0,0.0,0.0,0.0,0.0,0.0,0.0,0.0,0.0,0.0,0.0,0.0,0.0,0.0,0.0,0.0,0.0,0.0,0.0,0.0,0.0,0.0,0.0,0.0,0.0,0.0,0.0,0.0,0.0,0.0,0.0,0.0,0.0,0.0,0.0,0.0,0.0,0.0,0.0,0.0,0.0,0.0,0.0,0.0,0.0,0.0,0.0,0.0,0.0,0.0,0.0,0.0,0.0,0.0,0.0,0.0,0.0,0.0,0.0,0.0,0.0,0.0,0.0,0.0,0.0,0.0,0.0,0.0,0.0,0.0,0.0,0.0,0.0,0.0,0.0,0.0,0.0,0.0,0.0,0.0,0.0,0.0,0.0,0.0,0.0,0.0,0.0,0.0,0.0,0.0,0.0,0.0,0.0,0.0,0.0,0.0,0.5512,0.5862,0.6201,0.6486,0.6755,0.6923,0.0,0.0,0.0,0.0,0.0,0.0,0.0,0.0,0.0,0.0,0.0,0.0,0.0,0.0,0.0,0.0,0.0,0.0,0.0,0.0,0.0,0.0,0.0,0.0,0.0,0.0,0.0,0.0,0.0,0.0,0.0,0.0,0.0,0.0,0.0,0.0,0.0,0.0,0.0,0.0,0.0,0.0,0.0,0.0,0.0,0.0,0.0,0.0,0.0,0.0,0.0,0.0,0.0,0.0,0.0,0.0,0.0,0.0,0.0,0.0,0.0,0.0,0.0,0.0,0.0,0.0,0.0,0.0,0.0,0.0,0.0,0.0,0.0,0.0,0.0,0.0,0.0,0.0,0.0,0.0,0.0,0.0,0.0,0.0,0.0,0.0,0.0,0.0,0.0,0.0,0.0,0.0,0.0,0.0,0.0,0.0,0.0,0.0,0.0,0.0,0.0,0.0,0.0,0.0,0.0,0.0,0.0,0.0,0.0,0.7211,0.7054,0.7058,0.7188,0.7236,0.7283,0.738,0.0,0.0,0.0,0.0,0.0,0.0,0.0,0.0,0.0,0.0,0.0,0.0,0.0,0.0,0.0,0.0,0.0,0.0,0.0,0.0,0.0,0.0,0.0,0.0,0.0,0.0,0.0,0.0,0.0,0.0,0.0,0.0,0.0,0.0,0.0,0.0,0.0,0.0,0.0,0.0,0.0,0.0,0.0,0.0,0.0,0.0,0.0,0.0,0.0,0.0,0.0,0.0,0.0,0.0,0.0,0.0,0.0,0.0,0.0,0.0,0.0,0.0,0.0,0.0,0.0,0.0,0.0,0.0,0.0,0.0,0.0,0.0,0.0,0.0,0.0,0.0,0.0,0.0,0.0,0.0,0.0,0.0,0.0,0.0,0.0,0.0,0.0,0.0,0.0,0.0,0.0,0.0,0.0,0.0,0.0,0.0,0.0,0.0,0.0,0.0,0.0,0.0,0.0,0.0,0.0,0.0,0.0,0.0,1.0161,0.897,0.8427,0.8565,0.8185,0.7993,0.0,0.0,0.0,0.0,0.0,0.0,0.0,0.0,0.0,0.0,0.0,0.0,0.0,0.0,0.0,0.0,0.0,0.0,0.0,0.0,0.0,0.0,0.0,0.0,0.0,0.0,0.0,0.0,0.0,0.0,0.0,0.0,0.0,0.0,0.0,0.0,0.0,0.0,0.0,0.0,0.0,0.0,0.0,0.0,0.0,0.0,0.0,0.0,0.0,0.0,0.0,0.0,0.0,0.0,0.0,0.0,0.0,0.0,0.0,0.0,0.0,0.0,0.0,0.0,0.0,0.0,0.0,0.0,0.0,0.0,0.0,0.0,0.0,0.0,0.0,0.0,0.0,0.0,0.0,0.0,0.0,0.0,0.0,0.0,0.0,0.0,0.0,0.0,0.0,0.0,0.0,0.0,0.0,0.0,0.0,0.0,0.0,0.0,0.0,0.0,0.0,0.0,0.0,0.0,0.0,0.0,0.0,0.0,0.0,1.0926,1.1176,1.1041,1.056,1.015,0.9562,0.0,0.0,0.0,0.0,0.0,0.0,0.0,0.0,0.0,0.0,0.0,0.0,0.0,0.0,0.0,0.0,0.0,0.0,0.0,0.0,0.0,0.0,0.0,0.0,0.0,0.0,0.0,0.0,0.0,0.0,0.0,0.0,0.0,0.0,0.0,0.0,0.0,0.0,0.0,0.0,0.0,0.0,0.0,0.0,0.0,0.0,0.0,0.0,0.0,0.0,0.0,0.0,0.0,0.0,0.0,0.0,0.0,0.0,0.0,0.0,0.0,0.0,0.0,0.0,0.0,0.0,0.0,0.0,0.0,0.0,0.0,0.0,0.0,0.0,0.0,0.0,0.0,0.0,0.0,0.0,0.0,0.0,0.0,0.0,0.0,0.0,0.0,0.0,0.0,0.0,0.0,0.0,0.0,0.0,0.0,0.0,0.0,0.0,0.0,0.0,0.0,0.0,0.0,0.0,0.0,0.0,0.0,0.0,1.0591,1.1875,1.2893,1.3091,1.2413,1.1322,1.0466,0.0,0.0,0.0,0.0,0.0,0.0,0.0,0.0,0.0,0.0,0.0,0.0,0.0,0.0,0.0,0.0,0.0,0.0,0.0,0.0,0.0,0.0,0.0,0.0,0.0,0.0,0.0,0.0,0.0,0.0,0.0,0.0,0.0,0.0,0.0,0.0,0.0,0.0,0.0,0.0,0.0,0.0,0.0,0.0,0.0,0.0,0.0,0.0,0.0,0.0,0.0,0.0,0.0,0.0,0.0,0.0,0.0,0.0,0.0,0.0,0.0,0.0,0.0,0.0,0.0,0.0,0.0,0.0,0.0,0.0,0.0,0.0,0.0,0.0,0.0,0.0,0.0,0.0,0.0,0.0,0.0,0.0,0.0,0.0,0.0,0.0,0.0,0.0,0.0,0.0,0.0,0.0,0.0,0.0,0.0,0.0,0.0,0.0,0.0,0.0,0.0,0.0,0.0,0.0,0.0,0.0,0.0,0.0,1.1507,1.2713,1.4072,1.4537,1.3965,1.2134,1.1087,0.0,0.0,0.0,0.0,0.0,0.0,0.0,0.0,0.0,0.0,0.0,0.0,0.0,0.0,0.0,0.0,0.0,0.0,0.0,0.0,0.0,0.0,0.0,0.0,0.0,0.0,0.0,0.0,0.0,0.0,0.0,0.0,0.0,0.0,0.0,0.0,0.0,0.0,0.0,0.0,0.0,0.0,0.0,0.0,0.0,0.0,0.0,0.0,0.0,0.0,0.0,0.0,0.0,0.0,0.0,0.0,0.0,0.0,0.0,0.0,0.0,0.0,0.0,0.0,0.0,0.0,0.0,0.0,0.0,0.0,0.0,0.0,0.0,0.0,0.0,0.0,0.0,0.0,0.0,0.0,0.0,0.0,0.0,0.0,0.0,0.0,0.0,0.0,0.0,0.0,0.0,0.0,0.0,0.0,0.0,0.0,0.0,0.0,0.0,0.0,0.0,0.0,0.0,0.0,0.0,0.0,0.0,0.0,1.1997,1.2855,1.4121,1.4734,1.4594,1.3718,1.2559,0.0,0.0,0.0,0.0,0.0,0.0,0.0,0.0,0.0,0.0,0.0,0.0,0.0,0.0,0.0,0.0,0.0,0.0,0.0,0.0,0.0,0.0,0.0,0.0,0.0,0.0,0.0,0.0,0.0,0.0,0.0,0.0,0.0,0.0,0.0,0.0,0.0,0.0,0.0,0.0,0.0,0.0,0.0,0.0,0.0,0.0,0.0,0.0,0.644,0.0,0.0,0.0,0.0,0.0,0.0,0.0,0.0,0.0,0.0,0.0,0.0,0.0,0.0,0.0,0.0,0.0,0.0,0.0,0.0,0.0,0.0,0.0,0.0,0.0,0.0,0.0,0.0,0.0,0.0,0.0,0.0,0.0,0.0,0.0,0.0,0.0,0.0,0.0,0.0,0.0,0.0,0.0,0.0,0.0,0.0,0.0,0.0,0.0,0.0,0.0,0.0,0.0,0.0,0.0,0.0,0.0,0.0,0.0,1.2383,1.3357,1.4315,1.4797,1.4786,1.4489,1.3597,0.0,0.0,0.0,0.0,0.0,0.0,0.0,0.0,0.0,0.0,0.0,0.0,0.0,0.0,0.0,0.0,0.0,0.0,0.0,0.0,0.0,0.0,0.0,0.0,0.0,0.0,0.0,0.0,0.0,0.0,0.0,0.0,0.0,0.0,0.0,0.0,0.0,0.0,0.0,0.0,0.0,0.0,0.0,0.0,0.0,0.0,0.0,0.0,0.0,0.0,0.0,0.0,0.0,0.0,0.0,0.0,0.0,0.0,0.0,0.0,0.0,0.0,0.0,0.0,0.0,0.0,0.0,0.0,0.0,0.0,0.0,0.0,0.0,0.0,0.0,0.0,0.0,0.0,0.0,0.0,0.0,0.0,0.0,0.0,0.0,0.0,0.0,0.0,0.0,0.0,0.0,0.0,0.0,0.0,0.0,0.0,0.0,0.0,0.0,0.0,0.0,0.0,0.0,0.0,0.0,0.0,0.0,1.148,1.2718,1.3871,1.4493,1.4797,1.48,1.4702,1.4081,1.2869,0.0,0.0,0.0,0.0,0.0,0.0,0.0,0.0,0.0,0.0,0.0,0.0,0.0,0.0,0.0,0.0,0.0,0.0,0.0,0.0,0.0,0.0,0.0,0.0,0.0,0.0,0.0,0.0,0.0,0.0,0.0,0.0,0.0,0.0,0.0,0.0,0.0,0.0,0.4357,0.5688,0.0,0.0,0.0,0.0,0.0,0.0,0.0,0.0,0.6373,0.0,0.0,0.0,0.0,0.0,0.0,0.0,0.0,0.0,0.0,0.0,0.0,0.0,0.0,0.0,0.0,0.0,0.0,0.0,0.0,0.0,0.0,0.0,0.0,0.0,0.0,0.0,0.0,0.0,0.0,0.0,0.0,0.0,0.0,0.0,0.0,0.0,0.0,0.0,0.0,0.0,0.0,0.0,0.0,0.0,0.0,0.0,0.0,0.0,0.0,0.0,0.0,0.0,0.0,0.0,0.0,1.0838,1.2155,1.3168,1.3888,1.4507,1.4797,1.4786,1.4306,1.3445,1.2226,0.0,0.0,0.0,0.0,0.0,0.0,0.0,0.0,0.0,0.0,0.0,0.0,0.0,0.0,0.0,0.0,0.0,0.0,0.0,0.0,0.0,0.0,0.0,0.0,0.0,0.0,0.0,0.0,0.0,0.0,0.0,0.0,0.0,0.0,0.0,0.0,0.0,0.0,0.0,0.6289,0.691,0.0,0.0,0.0,0.0,0.0,0.0,0.0,0.0,0.6184,0.0,0.0,0.0,0.0,0.0,0.0,0.0,0.0,0.0,0.0,0.0,0.0,0.0,0.0,0.0,0.0,0.0,0.0,0.0,0.0,0.0,0.0,0.0,0.0,0.0,0.0,0.0,0.0,0.0,0.0,0.0,0.0,0.0,0.0,0.0,0.0,0.0,0.0,0.0,0.0,0.0,0.0,0.0,0.0,0.0,0.0,0.0,0.0,0.0,0.0,0.0,0.0,0.0,0.0,0.0,1.152,1.2799,1.3748,1.4345,1.4661,1.465,1.4331,1.4039,1.3168,0.0,0.0,0.0,0.0,0.0,0.0,0.0,0.0,0.0,0.0,0.0,0.0,0.0,0.0,0.0,0.0,0.0,0.0,0.0,0.0,0.0,0.0,0.0,0.0,0.0,0.0,0.0,0.0,0.0,0.0,0.0,0.0,0.0,0.0,0.0,0.0,0.0,0.0,0.0,0.0,0.682,0.722,0.724,0.0,0.0,0.0,0.0,0.0,0.0,0.6624,0.6546,0.0,0.0,0.0,0.0,0.0,0.0,0.0,0.0,0.0,0.0,0.0,0.0,0.0,0.0,0.0,0.0,0.0,0.0,0.0,0.0,0.0,0.0,0.0,0.0,0.0,0.0,0.0,0.0,0.0,0.0,0.0,0.0,0.0,0.0,0.0,0.0,0.0,0.0,0.0,0.0,0.0,0.0,0.0,0.0,0.0,0.0,0.0,0.0,0.0,0.0,0.0,0.0,0.0,0.0,0.0,1.2187,1.3319,1.4201,1.4772,1.4797,1.4562,1.4095,1.3861,1.2894,0.0,0.0,0.0,0.0,0.0,0.0,0.0,0.0,0.0,0.0,0.0,0.0,0.0,0.0,0.0,0.0,0.0,0.0,0.0,0.0,0.0,0.0,0.0,0.0,0.0,0.0,0.0,0.0,0.0,0.0,0.0,0.0,0.0,0.0,0.0,0.0,0.0,0.0,0.0,0.0,0.0,0.7552,0.7523,0.7598,0.0,0.0,0.0,0.0,0.6583,0.6971,0.0,0.0,0.0,0.0,0.0,0.0,0.0,0.0,0.0,0.0,0.0,0.0,0.0,0.0,0.0,0.0,0.0,0.0,0.0,0.0,0.0,0.0,0.0,0.0,0.0,0.0,0.0,0.0,0.0,0.0,0.0,0.0,0.0,0.0,0.0,0.0,0.0,0.0,0.0,0.0,0.0,0.0,0.0,0.0,0.0,0.0,0.0,0.0,0.0,0.0,0.0,0.0,0.0,0.0,0.0,0.0,1.2833,1.3544,1.419,1.4762,1.4797,1.4758,1.4682,1.3671,1.2478,0.0,0.0,0.0,0.0,0.0,0.0,0.0,0.0,0.0,0.0,0.0,0.0,0.0,0.0,0.0,0.0,0.0,0.0,0.0,0.0,0.0,0.0,0.0,0.0,0.0,0.0,0.0,0.0,0.0,0.0,0.0,0.0,0.0,0.0,0.0,0.0,0.0,0.0,0.0,0.0,0.0,0.7882,0.7922,0.7635,0.7588,0.0,0.0,0.7791,0.8146,0.7943,0.0,0.0,0.0,0.0,0.0,0.0,0.0,0.0,0.0,0.0,0.0,0.0,0.0,0.0,0.0,0.0,0.0,0.0,0.0,0.0,0.0,0.0,0.0,0.0,0.0,0.0,0.0,0.0,0.0,0.0,0.0,0.0,0.0,0.0,0.0,0.0,0.0,0.0,0.0,0.0,0.0,0.0,0.0,0.0,0.0,0.0,0.0,0.0,0.0,0.0,0.0,0.0,0.0,0.0,0.0,1.1468,1.296,1.3938,1.4523,1.4786,1.4797,1.4644,1.4302,1.346,1.2252,0.0,0.0,0.0,0.0,0.0,0.0,0.0,0.0,0.0,0.0,0.0,0.0,0.0,0.0,0.0,0.0,0.0,0.0,0.0,0.0,0.0,0.0,0.0,0.0,0.0,0.0,0.0,0.0,0.0,0.0,0.0,0.0,0.0,0.0,0.0,0.0,0.0,0.0,0.0,0.0,0.0,0.0,0.8193,0.8348,0.0,0.0,0.0,0.8725,0.8735,0.0,0.0,0.0,0.0,0.0,0.0,0.0,0.0,0.0,0.0,0.0,0.0,0.0,0.0,0.0,0.0,0.0,0.0,0.0,0.0,0.0,0.0,0.0,0.0,0.0,0.0,0.0,0.0,0.0,0.0,0.0,0.0,0.0,0.0,0.0,0.0,0.0,0.0,0.0,0.0,0.0,0.0,0.0,0.0,0.0,0.0,0.0,0.0,0.0,0.0,0.0,0.0,0.0,0.0,0.0,0.0,0.0,1.3005,1.4183,1.4797,1.4797,1.4797,1.458,1.412,1.3548,0.0,0.0,0.0,0.0,0.0,0.0,0.0,0.0,0.0,0.0,0.0,0.0,0.0,0.0,0.0,0.0,0.0,0.0,0.0,0.0,0.0,0.0,0.0,0.0,0.0,0.0,0.0,0.298,0.0,0.0,0.0,0.0,0.0,0.0,0.0,0.0,0.0,0.0,0.0,0.0,0.0,0.0,0.8753,0.8546,0.91,0.9356,0.0,0.0,0.9759,0.9359,0.9613,0.9564,0.0,0.0,0.0,0.0,0.0,0.0,0.0,0.0,0.0,0.0,0.0,0.0,0.0,0.0,0.0,0.0,0.0,0.0,0.0,0.0,0.0,0.0,0.0,0.0,0.0,0.0,0.0,0.0,0.0,0.0,0.0,0.0,0.0,0.0,0.0,0.0,0.0,0.0,0.0,0.0,0.0,0.0,0.0,0.0,0.0,0.0,0.0,0.0,0.0,0.0,0.0,0.0,0.0,0.0,0.0,1.2998,1.4176,1.4797,1.4797,1.4797,1.478,1.4734,1.4152,1.3217,0.0,0.0,0.0,0.0,0.0,0.0,0.0,0.0,0.0,0.0,0.0,0.0,0.0,0.0,0.0,0.0,0.0,0.0,0.0,0.0,0.0,0.0,0.0,0.0,0.0,0.0,0.0,0.0,0.0,0.0,0.0,0.0,0.0,0.0,0.0,0.0,0.0,0.0,0.0,0.0,0.0,0.9167,0.9128,0.9703,1.0137,0.0,0.0,1.0867,1.0451,1.033,0.9953,0.9024,0.0,0.0,0.0,0.0,0.0,0.0,0.0,0.0,0.0,0.0,0.0,0.0,0.0,0.0,0.0,0.0,0.0,0.0,0.0,0.0,0.0,0.0,0.0,0.0,0.0,0.0,0.0,0.0,0.0,0.0,0.0,0.0,0.0,0.0,0.0,0.0,0.0,0.0,0.0,0.0,0.0,0.0,0.0,0.0,0.0,0.0,0.0,0.0,0.0,0.0,0.0,0.0,0.0,1.1736,1.2988,1.418,1.4797,1.4797,1.4797,1.4797,1.4797,1.4208,1.3291,0.0,0.0,0.0,0.0,0.0,0.0,0.0,0.0,0.0,0.0,0.0,0.0,0.0,0.0,0.0,0.0,0.0,0.0,0.0,0.0,0.0,0.0,0.0,0.0,0.0,0.0,0.0,0.0,0.4202,0.4478,0.4738,0.0,0.0,0.0,0.0,0.0,0.0,0.0,0.0,0.0,0.0,0.981,0.9993,1.0781,0.0,0.0,1.2341,1.2047,1.1727,1.158,1.1167,1.0058,0.9152,0.0,0.0,0.0,0.0,0.0,0.0,0.0,0.0,0.0,0.0,0.0,0.0,0.0,0.0,0.0,0.0,0.0,0.0,0.0,0.0,0.0,0.0,0.0,0.0,0.0,0.0,0.0,0.0,0.0,0.0,0.0,0.0,0.0,0.0,0.0,0.0,0.0,0.0,0.0,0.0,0.0,0.0,0.0,0.0,0.0,0.0,0.0,0.0,0.0,0.0,0.0,0.0,1.1733,1.2988,1.4187,1.4797,1.4797,1.4797,1.4797,1.4786,1.4398,1.3568,0.0,0.0,0.0,0.0,0.0,0.0,0.0,0.0,0.0,0.0,0.0,0.0,0.0,0.0,0.0,0.0,0.0,0.0,0.0,0.0,0.0,0.0,0.0,0.0,0.0,0.0,0.0,0.0,0.4791,0.4867,0.4964,0.0,0.0,0.0,0.0,0.0,0.0,0.0,0.0,0.0,0.0,1.0662,1.0924,1.1782,1.2802,1.3882,1.3541,1.3021,1.2596,1.2398,1.1871,1.0637,0.0,0.0,0.0,0.0,0.0,0.0,0.0,0.0,0.0,0.0,0.0,0.0,0.0,0.0,0.0,0.0,0.0,0.0,0.0,0.0,0.0,0.0,0.0,0.0,0.0,0.0,0.0,0.7249,0.0,0.0,0.6744,0.0,0.0,0.0,0.0,0.0,0.0,0.0,0.0,0.0,0.0,0.0,0.0,0.0,0.0,0.0,0.0,0.0,0.0,0.0,0.0,0.0,0.0,1.1739,1.3002,1.4187,1.4797,1.4797,1.4797,1.4797,1.48,1.4786,1.4212,1.2974,0.0,0.0,0.0,0.0,0.0,0.0,0.0,0.0,0.0,0.0,0.0,0.0,0.0,0.0,0.0,0.0,0.0,0.0,0.0,0.0,0.0,0.0,0.0,0.0,0.0,0.0,0.5904,0.5607,0.5261,0.0,0.0,0.0,0.0,0.0,0.0,0.0,0.0,0.0,0.0,1.093,1.1734,1.1948,1.2674,1.3439,1.405,1.4053,1.3725,1.2961,1.2561,1.1841,0.0,0.0,0.0,0.0,0.0,0.0,0.0,0.0,0.0,0.0,0.0,0.0,0.0,0.0,0.0,0.0,0.0,0.0,0.0,0.0,0.0,0.0,0.0,0.0,0.0,0.0,0.0,0.9242,0.9127,0.0,0.0,0.0,0.0,0.0,0.0,0.0,0.0,0.0,0.0,0.0,1.528,1.541,0.0,0.0,0.0,0.0,0.0,0.0,0.0,0.0,0.0,0.0,0.0,0.0,1.2134,1.3002,1.4187,1.4797,1.4797,1.4797,1.4797,1.4797,1.4797,1.4028,1.2392,0.0,0.0,0.0,0.0,0.0,0.0,0.0,0.0,0.0,0.0,0.0,0.0,0.0,0.0,0.0,0.0,0.0,0.0,0.0,0.0,0.0,0.0,0.0,0.0,0.0,0.616,0.0,0.0,0.0,0.0,0.0,0.0,0.0,0.0,0.0,0.0,0.0,1.0138,1.0695,1.1808,1.2652,1.2898,1.3797,1.4691,0.0,0.0,0.0,0.0,0.0,0.0,0.0,0.0,0.0,0.0,0.0,0.0,0.0,0.0,1.0625,1.0392,0.9934,0.949,0.9218,0.0,0.0,0.0,0.0,0.0,0.0,0.0,0.0,0.0,0.0,0.0,0.0,0.0,0.0,1.1117,0.0,1.0486,0.0,0.0,0.0,0.0,0.0,0.0,0.0,0.0,1.6039,1.6509,1.6877,1.6762,1.6821,0.0,1.7004,1.5955,0.0,0.0,0.0,0.0,0.0,0.0,0.0,0.0,1.2975,1.3639,1.483,1.536,1.5119,1.5101,1.5011,1.4812,1.4598,1.3913,1.2734,1.1669,1.054,0.0,0.0,0.0,0.0,0.0,0.0,0.0,0.0,0.0,0.0,0.0,0.0,0.0,0.0,0.0,0.0,0.0,0.0,0.0,0.0,0.0,0.0,0.0,0.7068,0.0,0.0,0.0,0.0,0.0,0.0,0.0,0.0,0.0,0.9904,1.054,1.1181,1.1812,1.2869,1.3683,1.3891,0.0,0.0,0.0,0.0,0.0,0.0,0.0,1.3952,1.263,1.2379,1.216,1.1575,1.1629,1.2005,1.2727,0.0,0.0,1.1752,1.1178,1.0749,1.0701,1.0334,1.0172,1.0607,1.0698,1.0854,0.0,0.0,0.0,0.0,0.0,0.0,0.0,0.0,1.3268,1.3042,0.0,1.2406,0.0,0.0,0.0,0.0,0.0,1.4052,0.0,0.0,1.7488,1.7609,1.7567,1.7051,1.7065,1.7609,1.7628,1.7585,1.7389,1.5163,0.0,0.0,0.0,0.0,0.0,0.0,1.4246,1.4836,1.6031,1.6354,1.5715,1.5683,1.541,1.48,1.4261,1.3953,1.3934,1.2214,1.1219,1.1181,0.8881,0.0,0.0,0.0,0.0,0.0,0.0,0.0,0.0,0.0,0.0,0.0,0.0,0.0,0.0,0.0,0.0,0.0,0.0,0.0,0.0,0.8257,0.0,0.0,0.0,0.0,0.0,0.0,0.0,0.0,0.0,0.0,1.2047,1.212,1.238,1.3163,0.0,0.0,0.0,0.0,1.5879,1.6028,1.6141,1.6093,1.568,1.4953,1.4219,1.3529,0.0,0.0,1.3015,1.2792,1.2727,1.2972,1.3029,1.2923,1.2521,1.2196,1.1987,1.1928,1.1946,1.1974,1.1917,1.1919,1.1933,1.6833,0.0,0.0,0.0,0.0,1.4938,1.5265,1.5645,1.5483,1.5618,1.5897,1.4933,0.0,0.0,0.0,0.0,0.0,0.0,1.6141,1.7178,1.7811,1.8093,1.8107,1.8025,1.8063,1.8241,1.8226,1.8016,1.7595,1.6896,1.59,1.4645,0.0,0.0,0.0,0.0,1.527,1.5476,1.6265,1.6368,1.5723,1.5683,1.5418,1.4814,1.4682,1.4469,1.4134,1.359,1.2921,1.2073,1.0764,0.0,0.0,0.0,0.0,0.0,0.0,0.0,0.0,0.0,0.0,0.0,0.0,0.0,0.0,0.0,0.0,0.0,0.0,0.0,0.8544,0.9288,0.9542,0.0,0.0,0.0,0.0,0.0,0.0,0.0,0.0,0.0,1.3994,1.3915,1.4042,0.0,0.0,1.6041,1.5979,1.6329,1.6569,1.6514,1.6739,0.0,1.6063,1.5605,1.505,1.4237,1.3989,1.3981,1.4209,1.3901,1.3547,1.3392,1.358,1.3648,1.3261,1.285,1.2819,1.3366,1.3316,1.3171,1.3392,1.3451,1.3454,1.8533,1.6851,1.6851,1.6695,1.6472,1.6734,1.7052,1.7387,1.74,1.7583,1.7821,1.7146,1.6733,1.6485,1.5557,0.0,0.0,0.0,1.7134,1.8099,1.8455,1.8756,1.9053,1.9197,1.9252,1.9266,1.9242,1.9079,1.8714,1.8442,1.7922,1.7141,0.0,0.0,1.5575,1.6148,1.6453,1.6486,1.7089,1.7108,1.6457,1.5962,1.5531,1.5162,1.4966,1.4775,1.4598,1.426,1.3783,1.3132,1.2304,1.0942,0.0,0.0,0.0,0.0,0.0,0.0,0.0,0.0,0.0,0.0,0.0,0.3917,0.0,0.0,0.0,0.0,0.7287,0.8497,0.9254,1.0112,0.0,0.0,0.0,0.0,0.0,0.0,0.0,1.201,1.3558,1.4936,1.5665,1.5856,1.5905,1.5811,1.6597,1.7051,1.6618,0.0,1.7661,1.7244,1.753,1.7622,1.713,1.6789,1.6385,1.5877,1.5247,1.4913,1.5082,1.4723,1.4249,1.3964,1.4101,1.4256,1.4024,1.3741,1.374,1.4435,1.4496,1.4427,1.4367,1.4332,1.4358,1.9656,1.9108,1.9101,1.8665,1.8054,1.863,1.8918,1.897,1.897,1.9002,1.9028,1.8996,1.8675,1.8127,1.7585,0.0,1.8246,1.7824,1.8321,1.9588,1.9285,1.9507,2.0182,2.0318,2.0384,2.0389,2.0384,2.0384,2.0358,1.9761,1.9446,1.9363,1.7735,1.6892,1.6873,1.7389,1.767,1.7665,1.8213,1.8199,1.7599,1.6415,1.5751,1.5709,1.517,1.4993,1.5178,1.4446,1.4094,1.4238,1.3582,1.2592,1.1263,0.0,0.0,0.0,0.0,0.0,0.0,0.0,0.0,0.0,0.0,0.0,0.0,0.0,0.0,0.0,0.8289,0.0,0.9938,1.0882,0.0,0.0,0.0,1.2472,1.2967,1.3475,1.3885,1.4149,0.0,0.0,1.7199,1.7807,1.7794,1.6795,1.7568,1.7922,1.7075,1.8231,1.8922,1.815,1.8452,1.8693,1.8412,1.8059,1.7775,1.7637,1.6858,1.5985,1.5732,1.5256,1.478,1.4502,1.4606,1.4718,1.4718,1.4709,1.4829,1.5018,1.5411,1.5548,1.4966,1.4812,1.4829,2.1523,2.0871,2.0891,2.0023,1.8688,1.8823,1.9161,1.9565,1.9578,1.9845,2.0241,1.9785,1.9269,1.8696,1.8552,1.8635,1.8886,1.8763,1.8999,1.9523,1.959,1.9778,2.0058,2.028,2.0384,2.0384,2.0384,2.0384,2.0381,2.0235,1.9907,1.9395,1.8965,1.8531,1.8082,1.8227,1.8297,1.8278,1.8433,1.8208,1.7609,1.6868,1.6227,1.5697,1.5652,1.5502,1.5214,1.5006,1.4902,1.4969,1.4829,1.4091,1.2597,1.0078,0.0,0.0,0.0,0.0,0.0,0.0,0.0,0.0,0.0,0.5833,0.6238,0.0,0.7953,0.0,0.906,1.0313,1.1444,1.2444,0.0,0.0,1.3539,1.3895,1.4028,1.482,1.5234,1.4901,1.6136,1.7548,1.8926,1.8866,1.8767,1.8895,1.9153,1.91,1.852,1.8819,1.919,1.9133,1.9168,1.9107,1.8803,1.8394,1.8095,1.786,1.7103,1.6424,1.6062,1.5473,1.5117,1.5351,1.5232,1.5078,1.4949,1.524,1.5523,1.56,1.5728,1.5762,1.5566,1.554,1.5531,2.2372,2.1897,2.1904,2.1341,2.0419,1.9922,1.9896,2.0191,2.021,2.0379,2.0693,2.0347,2.0014,1.9719,1.97,1.9729,1.9783,1.9541,1.9688,2.016,2.015,2.0379,2.0805,2.1061,2.1192,2.1198,2.1206,2.1192,2.1192,2.0942,2.0481,1.9845,1.955,1.9105,1.8526,1.8488,1.8488,1.8488,1.8488,1.8325,1.8002,1.7407,1.6789,1.6167,1.5932,1.5586,1.5117,1.5037,1.5048,1.511,1.5079,1.4454,1.3044,1.1035,0.9258,0.0,0.0,0.0,0.0,0.0,0.0,0.0,0.0,0.0,0.0,0.0,0.9631,0.9857,1.0563,1.1486,1.2663,1.3672,1.4362,1.4608,1.5068,1.5378,1.5378,1.6096,1.6366,1.5842,1.7123,1.8485,1.9539,1.9612,1.9677,1.9975,2.0213,2.011,1.9464,1.9659,1.9977,2.0032,1.9947,1.9827,1.9578,1.9143,1.8699,1.8277,1.7629,1.6999,1.6529,1.5946,1.5607,1.5747,1.5617,1.5446,1.5394,1.5583,1.5797,1.5805,1.5805,1.5805,1.5805,1.5805,1.5805,2.2809,2.2519,2.2499,2.2453,2.231,2.1334,2.087,2.0798,2.0725,2.0693,2.0693,2.0693,2.0693,2.0693,2.0693,2.0693,2.0666,2.0171,2.0313,2.0962,2.0776,2.1068,2.1775,2.2055,2.2178,2.2164,2.2182,2.2188,2.2188,2.1659,2.1111,2.0504,1.9845,1.9228,1.8633,1.8545,1.8508,1.8527,1.8508,1.8488,1.8498,1.7983,1.7393,1.6718,1.6134,1.5572,1.5006,1.4868,1.4853,1.4959,1.4858,1.4324,1.3263,1.1895,1.0542,0.0,0.9063,0.0,0.0,0.0,0.0,0.0,0.0,0.0,0.0,0.9957,1.0887,1.2192,1.2532,1.2997,1.3739,1.4689,1.5469,1.5957,1.6416,1.672,1.6732,1.722,1.7428,1.6983,1.8143,1.9218,1.9853,2.0217,2.0412,2.0519,2.0925,2.0975,2.0297,2.0532,2.0853,2.082,2.0752,2.0651,2.0488,2.0088,1.9597,1.9054,1.8436,1.7685,1.688,1.6535,1.6228,1.5893,1.5788,1.5788,1.5805,1.5797,1.5805,1.5805,1.5805,1.5805,1.5805,1.5805,1.5805,2.3686,2.3047,2.304,2.2805,2.2394,2.2172,2.1799,2.1315,2.0896,2.0693,2.0693,2.0693,2.0693,2.0693,2.0693,2.0693,2.0693,2.0595,2.0706,2.1002,2.1053,2.1278,2.1638,2.1906,2.2049,2.2036,2.2155,2.2188,2.2188,2.2095,2.1729,2.1111,2.0512,1.9878,1.9237,0.0,0.0,0.0,1.8551,1.8488,1.8493,1.8395,1.7801,1.6737,1.6592,0.0,1.49,1.4802,1.4798,1.4837,1.482,0.0,0.0,0.0,0.0,0.0,0.0,0.0,0.0,0.0,0.0,0.0,1.239,1.2069,1.058,1.1209,1.2173,1.3235,1.4781,1.5487,1.489,1.5727,1.6364,1.6461,1.6933,1.7263,1.7281,1.8067,1.8628,1.872,1.9206,1.991,2.0699,2.0626,2.0584,2.0998,2.1456,2.1755,2.171,2.1379,2.1275,2.1504,2.1489,2.1347,2.098,2.0794,2.0467,1.9981,1.9533,1.8528,1.7004,1.7107,1.7,1.6121,1.5805,1.5822,1.5831,1.5805,1.584,1.5814,1.5822,1.5805,1.5805,1.5805,1.5805,2.4092,0.0,2.3661,2.3484,0.0,2.291,2.2622,2.2302,2.178,2.1531,2.1511,2.1328,2.1184,2.108,2.0817,2.0693,2.0693,2.0693,2.0793,2.0942,2.1058,2.1241,2.1514,2.1783,2.1943,2.2008,2.2123,2.2188,2.2188,2.2188,2.1898,2.1305,2.1062,2.0589,1.9893,1.928,1.8831,1.8595,1.8537,1.8488,1.8488,1.8488,1.8068,1.7178,1.715,0.0,0.0,0.0,0.0,0.0,0.0,0.0,0.0,0.0,0.0,1.3094,1.226,1.1725,1.1644,1.2622,1.33,1.3446,1.3836,1.3607,1.2418,1.2651,1.3253,1.4259,1.5727,1.6495,1.629,1.671,1.7094,1.7325,1.7811,1.8141,1.8221,1.8823,1.9386,1.9661,1.9906,2.0339,2.1102,2.0994,2.0997,2.1456,2.1747,2.2037,2.2346,2.2159,2.1969,2.1884,2.1607,2.1392,2.1206,2.1148,2.0914,2.0307,1.9919,1.9245,1.807,1.7911,1.7741,1.7009,1.6504,1.6172,1.6301,1.6241,1.6191,1.6284,1.6232,1.6121,1.6053,1.5916,1.5805,2.4259,2.4118,2.4118,2.4118,2.4051,2.3582,2.3359,2.3314,0.0,0.0,0.0,2.2061,2.1747,2.1466,2.1034,2.0804,2.0686,2.0693,2.0788,2.0932,2.0966,2.115,2.1411,2.1688,2.1853,2.1985,2.2126,2.2188,2.2188,2.2188,2.1954,2.1507,2.1479,2.1058,2.0226,1.9666,1.911,1.8526,1.8488,1.8488,1.8488,1.8488,1.8203,1.7618,1.7609,1.7047,1.5929,1.5869,1.5878,1.5863,1.5458,1.5059,1.4782,1.4815,1.4681,1.4331,1.3821,1.3483,1.3394,1.4332,1.493,1.4961,1.4841,1.4586,1.4158,1.3792,1.4063,1.5194,1.6249,1.7024,1.7378,1.7579,1.7819,1.8203,1.8724,1.903,1.9057,1.9508,1.9926,2.0208,2.0404,2.0695,2.114,2.1262,2.1461,2.1819,2.2097,2.2341,2.2791,2.28,2.2481,2.2037,2.1699,2.1407,2.137,2.1401,2.1152,2.0667,2.0367,2.0042,1.9619,1.9124,1.8552,1.7784,1.7208,1.6906,1.6865,1.6755,1.6703,1.6856,1.6781,1.6575,1.6361,1.6156,1.6002,2.4128,2.4118,2.4118,2.4118,2.409,2.4019,2.3967,2.3889,2.2865,2.2407,2.2393,2.2342,2.2021,2.1485,2.1413,2.1126,2.0706,2.0693,2.0792,2.0978,2.0997,2.1143,2.1411,2.1676,2.1825,2.1841,2.2079,2.2188,2.2188,2.2188,2.2151,2.2017,2.1583,2.0742,1.9635,1.9442,1.911,1.8516,1.8488,1.8488,1.8488,1.8488,1.8213,1.7646,1.7614,1.7276,1.6583,1.6559,1.6559,1.6559,1.6706,1.6121,1.4691,1.5611,1.6015,1.5584,1.5356,1.5212,1.5143,1.5761,1.6468,1.7139,1.6805,1.5969,1.4633,1.3951,1.4253,1.5796,1.7109,1.7745,1.7509,1.8152,1.8655,1.8793,1.9259,1.9574,1.96,2.0017,2.0312,2.0389,2.0802,2.1086,2.1209,2.1541,2.1807,2.2025,2.2648,2.3359,2.3621,2.3292,2.2617,2.2176,2.2136,2.2053,2.1788,2.172,2.1618,2.1593,2.1313,2.0941,2.0465,2.0396,1.9697,1.7787,1.758,1.7507,1.7096,1.7082,1.7107,1.7046,1.7064,1.6988,1.6569,1.6586,1.6599,2.4108,2.4118,2.4118,2.4118,2.4118,2.4118,2.4118,2.4058,2.355,2.3315,2.3288,2.2968,2.2688,2.2374,2.1779,2.1361,2.1125,2.0824,2.0787,2.0936,2.0998,2.1143,2.1411,2.1668,2.1829,2.1926,2.2114,2.2188,2.2188,2.2188,2.2188,2.218,2.1918,2.1172,2.0064,1.9961,1.9457,1.8521,1.8488,1.8488,1.8488,1.8488,1.8381,1.8091,1.8105,1.7815,1.7211,1.7187,1.7183,1.7192,1.7121,1.6863,1.6396,1.6464,1.6354,1.5989,1.6049,1.6058,1.6003,1.6812,1.7451,1.7782,1.7621,1.7108,1.6137,1.5561,1.5624,1.657,1.7548,1.8013,1.7809,1.846,1.8896,1.8896,1.9604,2.0067,2.0136,2.0534,2.0821,2.0852,2.1032,2.1209,2.1209,2.1614,2.2129,2.2559,2.3333,2.3936,2.4145,2.3761,2.3234,2.2798,2.2538,2.2277,2.2007,2.1845,2.176,2.1645,2.1377,2.1146,2.0886,2.0799,1.9701,1.8145,1.7873,1.7846,1.7505,1.7602,1.7601,1.754,1.7416,1.7273,1.7085,1.7074,1.6969,2.4118,2.4118,2.4118,2.4118,2.4118,2.4118,2.4118,2.4118,2.4105,2.4118,2.4032,2.3601,2.332,2.3105,2.2132,2.1636,2.1433,2.0942,2.0788,2.0918,2.0979,2.1143,2.1397,2.1668,2.1847,2.1959,2.2132,2.2188,2.2188,2.2188,2.2188,2.2174,2.2061,2.149,2.0504,2.0283,1.9626,1.8563,1.8488,1.8488,1.8488,1.8488,1.8488,1.8488,1.8488,1.8283,1.7834,1.781,1.7815,1.7787,1.7516,1.751,1.7817,1.7161,1.6616,1.641,1.6675,1.6903,1.7,1.7768,1.8267,1.8292,1.8274,1.814,1.7823,1.7279,1.7039,1.7337,1.7795,1.8139,1.8306,1.8774,1.9114,1.9271,2.0033,2.0561,2.0618,2.096,2.1209,2.1209,2.1301,2.1343,2.1351,2.1812,2.2553,2.3325,2.3888,2.4175,2.4191,2.4045,2.3769,2.3427,2.2927,2.2468,2.2205,2.194,2.1693,2.1434,2.1031,2.077,2.0615,2.0128,1.9382,1.826,1.7984,1.7984,1.7993,1.7984,1.7967,1.7907,1.7773,1.7623,1.7578,1.7392,1.7262,2.4118,2.4118,2.4118,2.4118,2.4118,2.4118,2.4118,2.4118,2.4118,2.4118,2.4084,2.4032,2.3699,2.3163,2.2563,2.2028,2.1505,2.0949,2.0792,2.0966,2.0997,2.1143,2.1417,2.1676,2.1819,2.1853,2.2091,2.2188,2.2188,2.2188,2.2188,2.2117,2.1651,2.1063,2.0402,1.9819,1.9166,1.8521,1.8488,1.8488,1.8488,1.8488,1.8488,1.8488,1.8488,1.8494,1.8376,1.8433,1.8414,1.8399,1.8191,1.8035,1.7907,1.7585,1.7302,1.7159,1.7622,1.8145,1.8597,1.8756,1.8997,1.9375,1.9187,1.9158,1.9265,1.8495,1.796,1.8043,1.8082,1.8364,1.8782,1.9298,1.9757,2.0106,2.0691,2.1121,2.1109,2.1171,2.1209,2.1209,2.1576,2.1697,2.1546,2.2415,2.3405,2.3902,2.4083,2.4198,2.42,2.4064,2.3934,2.376,2.3337,2.2827,2.2421,2.2035,2.153,2.1031,2.0595,2.0186,1.9755,1.947,1.9044,1.8273,1.8001,1.8001,1.8001,1.8001,1.8001,1.8001,1.796,1.7943,1.7909,1.7628,1.739,2.4118,2.4118,2.4118,2.4118,2.4118,2.4118,2.4118,2.4118,2.4118,2.4118,2.4118,2.4118,2.3947,2.3687,2.2798,2.225,2.1982,2.1112,2.0793,2.0943,2.0978,2.1149,2.1391,2.1688,2.1829,2.1932,2.21,2.2188,2.2188,2.2188,2.2025,2.1699,2.1398,2.081,1.9864,1.9545,1.9086,1.8516,1.8488,1.8488,1.8488,1.8488,1.8488,1.8488,1.8488,1.8488,1.8488,1.843,1.8382,1.8377,1.8195,1.8144,1.8311,1.8141,1.8081,1.8195,1.8427,1.8675,1.8873,1.9219,1.9508,1.9709,1.9776,1.9883,2.001,1.9322,1.8914,1.902,1.904,1.9046,1.9,1.9631,2.0205,2.0446,2.0887,2.1209,2.1209,2.1221,2.1277,2.156,2.1789,2.2071,2.2426,2.3227,2.3907,2.4166,2.4198,2.4198,2.4198,2.4146,2.4089,2.4052,2.3782,2.3265,2.2544,2.1606,2.1051,2.0566,1.9961,1.936,1.919,1.8715,1.8373,1.8057,1.8081,1.8071,1.8001,1.8001,1.8001,1.8001,1.8001,1.8001,1.8001,1.7849,1.7755,2.4118,2.4118,2.4118,2.4118,2.4118,2.4118,2.4118,2.4118,2.4118,2.4118,2.4092,2.3928,2.3848,2.3706,2.2838,2.2315,2.2035,2.1132,2.0762,2.0894,2.0949,2.1101,2.1343,2.1628,2.1811,2.1947,2.212,2.2188,2.2188,2.2188,2.1963,2.1566,2.1223,2.0599,1.9738,1.9377,1.8942,1.8549,1.8488,1.8573,1.8708,1.8582,1.8488,1.8488,1.8488,1.8488,1.8488,1.8377,1.8294,1.8284,1.8223,1.8294,1.8519,1.8563,1.8761,1.9104,1.9146,1.9219,1.9368,1.9811,2.0041,2.0049,2.0247,2.0412,2.0451,1.9995,1.9742,1.991,2.0038,1.9891,1.9486,1.9964,2.0423,2.0607,2.0986,2.1224,2.1369,2.1392,2.1591,2.2042,2.2289,2.2599,2.3336,2.3876,2.4177,2.4198,2.4198,2.4198,2.4198,2.4209,2.4235,2.4336,2.4138,2.3519,2.2601,2.1801,2.0938,2.011,1.9557,1.9271,1.893,1.8392,1.8319,1.8507,1.837,1.8278,1.8251,1.8208,1.8122,1.8035,1.8035,1.8052,1.8001,1.7993,1.7993,2.4118,2.4112,2.4118,2.4112,2.4118,2.4118,2.4118,2.4118,2.4118,2.4118,2.4019,2.3503,2.3242,2.3189,2.2609,2.2073,2.1538,2.0968,2.0762,2.0875,2.0894,2.1017,2.1216,2.1484,2.1682,2.1843,2.2085,2.2188,2.2188,2.2188,2.2188,2.2087,2.1035,2.0428,2.0094,1.912,1.8535,1.8502,1.8535,1.8783,1.9209,1.8797,1.8577,1.8554,1.8507,1.8488,1.8488,1.8363,1.8269,1.8231,1.8486,1.8588,1.8502,1.888,1.9314,1.97,1.9754,2.0002,2.047,2.0582,2.0602,2.0628,2.0655,2.0789,2.0958,2.0565,2.0378,2.0532,2.084,2.081,2.0377,2.0389,2.0653,2.1052,2.1159,2.1423,2.1807,2.1834,2.2106,2.259,2.3012,2.3448,2.4039,2.4175,2.4198,2.4198,2.4198,2.4198,2.4221,2.4209,2.4418,2.457,2.4236,2.3462,2.2743,2.197,2.1101,2.0229,1.9659,1.9502,1.8941,1.853,1.8781,1.9018,1.9091,1.8982,1.8699,1.8501,1.8398,1.8312,1.8225,1.8191,1.8312,1.8105,1.8131,2.4426,2.4411,2.4275,2.4239,2.4224,2.4134,2.4118,2.4118,2.4118,2.4118,2.4,2.3471,2.3027,2.2636,2.208,2.1714,2.1466,2.0929,2.0731,2.0775,2.0775,2.088,2.1083,2.1344,2.1584,2.1825,2.2073,2.2188,2.2188,2.2188,2.2002,2.1547,2.0807,2.0198,1.9682,1.8933,1.8488,1.8545,1.8848,1.918,1.9432,1.9598,1.9522,1.9082,1.8708,1.8488,1.8488,1.8327,1.8358,1.8642,1.8664,1.8878,1.9392,1.9864,2.0193,2.0359,2.0392,2.0471,2.0666,2.0693,2.0693,2.0719,2.1027,2.1225,2.123,2.1245,2.1279,2.1251,2.117,2.1075,2.0986,2.0917,2.0986,2.1178,2.1464,2.1709,2.1911,2.2194,2.257,2.3003,2.3543,2.3996,2.4129,2.4198,2.4198,2.4198,2.4209,2.4232,2.4269,2.4421,2.473,2.4849,2.4721,2.4188,2.2972,2.2032,2.1105,2.0183,1.9556,1.9389,1.8981,1.8977,1.9179,1.9307,1.9506,1.9541,1.917,1.8888,1.8776,1.8759,1.8655,1.8586,1.8787,1.8562,1.8569,2.4806,2.4642,2.4451,2.4322,2.4292,2.4157,2.4118,2.4118,2.4118,2.4118,2.3967,2.3301,2.2734,2.2296,2.1583,2.1237,2.1204,2.0863,2.0693,2.0693,2.0693,2.0818,2.1028,2.1277,2.1544,2.1819,2.2073,2.2188,2.2188,2.2188,2.1963,2.1589,2.0979,2.0462,1.9973,1.9396,1.9111,1.9186,1.9517,1.9798,2.0019,2.0254,2.0307,1.9968,1.9424,1.9008,1.8811,1.8793,1.8865,1.9086,1.9103,1.9451,2.017,2.0526,2.0693,2.0693,2.068,2.0693,2.0693,2.0693,2.0804,2.1034,2.1309,2.155,2.1794,2.1978,2.2023,2.1918,2.1474,2.1248,2.1493,2.1499,2.1427,2.1453,2.1704,2.206,2.2361,2.2694,2.3075,2.3495,2.3897,2.4152,2.4198,2.4198,2.4281,2.4386,2.4418,2.4464,2.4685,2.4916,2.5247,2.5352,2.519,2.4567,2.3564,2.2567,2.122,2.0205,1.9839,1.957,1.9389,1.9432,1.9517,1.9629,1.9714,1.9781,1.9652,1.9344,1.9232,1.9234,1.9087,1.8967,1.9029,1.9012,1.9018,2.5229,2.4814,2.458,2.4458,2.4343,2.4187,2.4112,2.4119,2.4118,2.4118,2.3967,2.2974,2.2551,2.2258,2.1459,2.0856,2.0922,2.0928,2.0797,2.0706,2.0693,2.0811,2.1015,2.1258,2.1568,2.1841,2.2085,2.2182,2.2188,2.2188,2.2165,2.2053,2.1524,2.1144,2.1248,2.0532,2.0282,2.0263,2.0321,2.065,2.1158,2.0785,2.0757,2.1063,2.0658,2.0108,1.9503,1.9732,1.977,1.967,1.9923,2.031,2.0571,2.068,2.0693,2.0693,2.0693,2.0693,2.0699,2.0732,2.108,2.1551,2.1629,2.2026,2.2627,2.2649,2.2578,2.2538,2.202,2.1606,2.2123,2.2068,2.1902,2.1906,2.2037,2.2444,2.3075,2.3376,2.3591,2.4016,2.4186,2.4198,2.4198,2.4198,2.4349,2.4696,2.4822,2.4937,2.5304,2.5545,2.5911,2.6081,2.5761,2.5011,2.4101,2.3101,2.1606,2.0362,2.0224,2.0035,1.9821,1.9798,1.9926,2.0029,2.0012,2.0072,1.9924,1.9641,1.9517,1.9474,1.9363,1.938,1.9412,1.9438,1.938,2.5508,2.5075,2.492,2.4765,2.4608,2.4356,2.424,2.4224,2.4136,2.4118,2.3954,2.3295,2.2942,2.2799,2.2185,2.1871,2.1878,2.1838,2.1465,2.083,2.0719,2.083,2.1028,2.1271,2.1632,2.2012,2.2161,2.2188,2.2188,2.2188,2.2188,2.2075,2.1594,2.1313,2.1285,2.0709,2.0384,2.0437,2.0799,2.1116,2.1327,2.1533,2.1547,2.1341,2.1504,2.1338,2.0748,2.0242,2.0089,2.0218,2.0206,2.0343,2.0611,2.0693,2.0693,2.0693,2.0693,2.0693,2.0752,2.1053,2.1394,2.1845,2.2315,2.2758,2.3127,2.3376,2.3236,2.292,2.2778,2.2804,2.225,2.2324,2.2432,2.2435,2.2728,2.2995,2.3376,2.3726,2.3987,2.4143,2.4198,2.4198,2.42,2.4212,2.4441,2.4889,2.4983,2.5121,2.5385,2.5966,2.6173,2.6233,2.5835,2.5476,2.4565,2.3586,2.2302,2.1024,2.0588,2.0331,2.0163,2.0069,2.0223,2.0292,2.0292,2.024,2.0092,1.9992,1.9849,1.9886,1.9909,1.9926,1.9952,1.9883,1.9792,2.5763,2.5508,2.5286,2.5075,2.4849,2.4508,2.4343,2.4285,2.4171,2.4118,2.3987,2.3458,2.3196,2.3093,2.2637,2.2407,2.2406,2.2408,2.2048,2.1425,2.113,2.1091,2.1134,2.1411,2.1758,2.2112,2.2188,2.2188,2.2188,2.2188,2.2188,2.2109,2.182,2.1637,2.1609,2.1274,2.1066,2.1122,2.1454,2.1637,2.1713,2.2005,2.2005,2.1744,2.1991,2.1994,2.1611,2.099,2.0721,2.0764,2.0552,2.0517,2.0679,2.0693,2.0693,2.0693,2.0719,2.0804,2.108,2.1354,2.1904,2.2537,2.3,2.3292,2.3436,2.3757,2.3388,2.3184,2.2995,2.3006,2.2763,2.2796,2.3044,2.3245,2.331,2.3508,2.3671,2.3976,2.4166,2.4198,2.4198,2.4324,2.4499,2.4499,2.4774,2.527,2.5497,2.5637,2.5914,2.6427,2.6522,2.6474,2.6236,2.5732,2.5031,2.4039,2.2965,2.1891,2.0959,2.0603,2.0314,2.024,2.0292,2.0292,2.0292,2.0292,2.018,2.0206,2.0149,2.0286,2.0292,2.0235,2.014,2.0183,2.0115,2.6023,2.6056,2.5688,2.5348,2.5012,2.4673,2.4487,2.4334,2.4201,2.4163,2.4024,2.3641,2.3343,2.3192,2.2872,2.2675,2.2524,2.263,2.2673,2.2485,2.2141,2.1753,2.1402,2.164,2.1924,2.2153,2.2188,2.2188,2.2188,2.2188,2.2188,2.2174,2.2146,2.2174,2.2089,2.216,2.2041,2.2019,2.2117,2.2143,2.2143,2.2185,2.2174,2.2146,2.2174,2.2174,2.2068,2.1747,2.1505,2.1335,2.0874,2.0658,2.0712,2.0732,2.0902,2.0883,2.0791,2.1126,2.1577,2.1733,2.2273,2.354,2.343,2.3364,2.3627,2.3494,2.3342,2.3313,2.2916,2.2875,2.3502,2.3601,2.3681,2.4025,2.3758,2.3749,2.4108,2.4177,2.4198,2.42,2.4235,2.4476,2.5075,2.5029,2.544,2.6045,2.6342,2.6473,2.6799,2.6982,2.7131,2.6941,2.6576,2.607,2.5379,2.4499,2.3411,2.2282,2.1347,2.086,2.045,2.0337,2.0292,2.0292,2.0292,2.0292,2.0292,2.0292,2.0292,2.0292,2.0292,2.0292,2.0292,2.0292,2.0292,2.6523,2.6237,2.6023,2.5722,2.5328,2.5012,2.4806,2.4657,2.4478,2.4441,2.4409,2.4268,2.4071,2.3977,2.375,2.364,2.3568,2.3595,2.355,2.3422,2.3379,2.263,2.187,2.1843,2.2018,2.2173,2.2176,2.2188,2.2188,2.2188,2.2188,2.2188,2.2188,2.2188,2.2188,2.2188,2.2188,2.2188,2.2188,2.2188,2.2188,2.2196,2.2188,2.2188,2.2182,2.2196,2.2155,2.1753,2.1381,2.1126,2.0848,2.0693,2.0758,2.142,2.1766,2.1616,2.1628,2.1639,2.1689,2.2093,2.2824,2.3511,2.3506,2.344,2.3313,2.3525,2.3355,2.3212,2.3265,2.3581,2.3646,2.3808,2.4039,2.4154,2.4019,2.4007,2.4143,2.4198,2.4198,2.4223,2.4489,2.4983,2.543,2.5591,2.5773,2.6332,2.6574,2.6667,2.7051,2.7149,2.7129,2.7057,2.6767,2.6312,2.5706,2.4861,2.3844,2.2614,2.1737,2.1082,2.0654,2.0314,2.0292,2.0292,2.0292,2.0292,2.0292,2.0292,2.0292,2.0292,2.0292,2.0292,2.0292,2.0292,2.0292,2.7029,2.6649,2.6438,2.6151,2.5798,2.5363,2.5118,2.5006,2.4808,2.4765,2.4807,2.4743,2.4637,2.4493,2.421,2.4105,2.4118,2.4118,2.4089,2.4111,2.4053,2.3332,2.2395,2.2021,2.1924,2.2102,2.2126,2.2155,2.2176,2.2188,2.2188,2.2188,2.2188,2.2188,2.2188,2.2188,2.2188,2.2188,2.2188,2.2188,2.2188,2.2137,2.2106,2.2088,2.2073,2.202,2.1894,2.1524,2.121,2.1002,2.0817,2.0693,2.0804,2.1773,2.2418,2.2482,2.2193,2.1824,2.1932,2.2237,2.2586,2.3002,2.317,2.318,2.3155,2.332,2.3115,2.3345,2.3668,2.3768,2.3838,2.4039,2.4175,2.4198,2.4198,2.4209,2.4209,2.4395,2.4372,2.4409,2.4799,2.5536,2.6199,2.6152,2.6322,2.6665,2.6841,2.6968,2.7133,2.7096,2.7026,2.6944,2.6697,2.6209,2.5718,2.4956,2.3941,2.2759,2.1687,2.1091,2.078,2.0343,2.0292,2.0292,2.0292,2.0292,2.0292,2.0292,2.0292,2.0292,2.0292,2.0292,2.0292,2.0292,2.0292,2.7476,2.7186,2.6873,2.6583,2.6244,2.5735,2.5467,2.5412,2.523,2.5174,2.5237,2.5146,2.5027,2.4828,2.4491,2.4214,2.4236,2.4301,2.4491,2.4564,2.4457,2.3842,2.312,2.2242,2.1951,2.1995,2.1996,2.2091,2.2159,2.2188,2.2188,2.2188,2.2188,2.2188,2.2188,2.2188,2.2188,2.2188,2.2188,2.2188,2.2164,2.2085,2.2014,2.1953,2.1811,2.1706,2.1556,2.1314,2.112,2.1003,2.0812,2.0705,2.0856,2.1819,2.2776,2.317,2.2541,2.2072,2.2233,2.2144,2.2102,2.2535,2.2655,2.2748,2.2982,2.3039,2.3229,2.3594,2.3597,2.3844,2.418,2.4303,2.4398,2.4487,2.4462,2.4384,2.4418,2.4685,2.4753,2.4487,2.5245,2.6144,2.6729,2.6909,2.6703,2.6911,2.7038,2.7096,2.7094,2.6993,2.6891,2.6758,2.6438,2.6043,2.554,2.5019,2.3933,2.2807,2.1598,2.0882,2.0752,2.0454,2.0343,2.0292,2.0292,2.0292,2.0292,2.0292,2.0292,2.0292,2.0292,2.0292,2.0292,2.0292,2.0292,2.7591,2.735,2.716,2.6847,2.6444,2.6089,2.5886,2.5797,2.575,2.5729,2.5743,2.5722,2.5529,2.5286,2.497,2.4806,2.4799,2.4835,2.5027,2.5349,2.4913,2.4712,2.4177,2.3195,2.2309,2.2068,2.1987,2.2085,2.2164,2.2194,2.2188,2.2188,2.2188,2.2188,2.2188,2.2188,2.2188,2.2188,2.2188,2.2188,2.2178,2.2061,2.1937,2.1811,2.1596,2.1429,2.129,2.1125,2.1003,2.0918,2.0787,2.0693,2.0982,2.2304,2.3246,2.3326,2.3086,2.272,2.2693,2.2414,2.2239,2.2273,2.2537,2.2763,2.2609,2.3223,2.3438,2.3641,2.3816,2.4168,2.4604,2.473,2.4914,2.5164,2.527,2.5283,2.5306,2.5121,2.5107,2.5408,2.5888,2.6552,2.7097,2.712,2.7074,2.7179,2.719,2.719,2.7088,2.6933,2.6758,2.6592,2.6219,2.5867,2.5562,2.4953,2.3894,2.2872,2.1728,2.0886,2.0737,2.0677,2.0609,2.0454,2.0292,2.0329,2.0423,2.0292,2.0292,2.0292,2.0317,2.0386,2.0412,2.0369,2.0472,2.7625,2.7488,2.7416,2.7205,2.688,2.6559,2.6407,2.6394,2.6319,2.6339,2.6387,2.6326,2.6136,2.5878,2.555,2.537,2.5405,2.5488,2.5479,2.5568,2.547,2.5512,2.5228,2.4499,2.363,2.2598,2.2173,2.2192,2.224,2.2223,2.2188,2.2188,2.2188,2.2188,2.2188,2.2188,2.2188,2.2188,2.2188,2.2188,2.2178,2.2014,2.1765,2.1536,2.1313,2.1168,2.11,2.1029,2.0955,2.0882,2.0768,2.0693,2.0926,2.2209,2.3047,2.3135,2.3005,2.2808,2.263,2.2362,2.2083,2.2003,2.2281,2.2448,2.2603,2.3182,2.3595,2.3771,2.4042,2.4375,2.4836,2.518,2.5442,2.5591,2.5708,2.5696,2.5685,2.5647,2.5681,2.6027,2.6429,2.6831,2.7119,2.7177,2.719,2.719,2.719,2.719,2.7088,2.6922,2.6612,2.6353,2.5999,2.571,2.5514,2.486,2.3851,2.2896,2.1952,2.1279,2.0945,2.0931,2.0925,2.0831,2.0774,2.0614,2.0657,2.0483,2.0352,2.036,2.042,2.0523,2.0651,2.078,2.0917,2.7585,2.7585,2.7585,2.7526,2.7357,2.6945,2.6849,2.6969,2.6855,2.6843,2.6963,2.6849,2.667,2.6477,2.6122,2.5911,2.5825,2.589,2.5773,2.5605,2.5996,2.6071,2.5851,2.5489,2.4794,2.3473,2.2876,2.2624,2.2439,2.233,2.2272,2.2205,2.2188,2.2188,2.2188,2.2188,2.2188,2.2188,2.2188,2.2188,2.2147,2.1949,2.1628,2.1253,2.1045,2.0972,2.0935,2.0899,2.0909,2.0956,2.0808,2.0817,2.1218,2.1897,2.2537,2.2606,2.2587,2.2564,2.2375,2.2168,2.204,2.1804,2.2074,2.2374,2.2822,2.3239,2.367,2.4009,2.4324,2.4636,2.5086,2.5545,2.5844,2.5972,2.596,2.5926,2.5994,2.6334,2.6416,2.628,2.6648,2.7084,2.7154,2.719,2.719,2.719,2.719,2.717,2.7088,2.6873,2.6563,2.6267,2.5932,2.5794,2.5615,2.512,2.4062,2.3216,2.2284,2.1794,2.1381,2.1533,2.1605,2.1448,2.1348,2.1125,2.0894,2.0734,2.0623,2.052,2.0606,2.0782,2.0987,2.1205,2.1324,2.7585,2.7585,2.7585,2.7533,2.7389,2.7179,2.7113,2.7162,2.7143,2.7121,2.7162,2.7121,2.6987,2.6868,2.6669,2.629,2.5887,2.59,2.5862,2.5745,2.6046,2.6188,2.6461,2.5919,2.5304,2.4884,2.4066,2.332,2.2747,2.2563,2.2399,2.2234,2.2188,2.2188,2.2188,2.2188,2.2188,2.2188,2.2188,2.2188,2.2129,2.1902,2.1538,2.1107,2.0885,2.0786,2.0781,2.0776,2.0935,2.1308,2.0948,2.1276,2.1888,2.2457,2.2483,2.224,2.2451,2.2532,2.2266,2.2377,2.2251,2.2194,2.2578,2.3038,2.3345,2.3698,2.4048,2.4324,2.4703,2.5162,2.6135,2.6275,2.6521,2.6763,2.6843,2.6843,2.6878,2.6911,2.6819,2.6488,2.6856,2.719,2.719,2.719,2.719,2.7159,2.7129,2.7159,2.7149,2.6866,2.6517,2.622,2.5937,2.5843,2.5775,2.5208,2.4447,2.37,2.2922,2.2437,2.2187,2.2333,2.2333,2.2012,2.1687,2.1405,2.1196,2.1022,2.1022,2.1042,2.1061,2.1109,2.1321,2.155,2.1645,2.7585,2.757,2.7247,2.7235,2.7403,2.7065,2.71,2.7389,2.7403,2.7403,2.7299,2.7085,2.7077,2.7128,2.6813,2.6291,2.591,2.6111,2.5862,2.5517,2.5705,2.6054,2.6511,2.5945,2.562,2.5245,2.473,2.3936,2.2987,2.2729,2.2535,2.2341,2.2243,2.2188,2.2188,2.2188,2.2188,2.2188,2.2188,2.2182,2.2135,2.1817,2.1381,2.1063,2.0817,2.0705,2.0739,2.1021,2.1211,2.1453,2.1544,2.1884,2.2421,2.2914,2.3045,2.2463,2.2497,2.2677,2.2526,2.2715,2.2611,2.2689,2.3136,2.3359,2.3542,2.387,2.4393,2.4889,2.5119,2.5633,2.6386,2.67,2.6957,2.712,2.719,2.719,2.719,2.719,2.6961,2.6696,2.6972,2.719,2.719,2.719,2.719,2.7149,2.7089,2.712,2.7192,2.6948,2.661,2.6346,2.606,2.5725,2.5556,2.4996,2.4464,2.3827,2.3284,2.2804,2.2607,2.2589,2.2525,2.2333,2.2016,2.1713,2.1538,2.1384,2.147,2.1581,2.173,2.1824,2.1799,2.185,2.1965,2.7585,2.754,2.6875,2.6905,2.7264,2.6839,2.6899,2.7354,2.7542,2.7581,2.751,2.7108,2.7141,2.7348,2.7051,2.6485,2.5863,2.6279,2.5732,2.5215,2.5287,2.5601,2.5831,2.5764,2.5594,2.5241,2.4864,2.4373,2.3446,2.3038,2.2757,2.2518,2.2333,2.2223,2.2211,2.2188,2.2188,2.2188,2.2188,2.219,2.202,2.1664,2.1271,2.1008,2.0824,2.0745,2.0949,2.123,2.1636,2.191,2.2178,2.2493,2.2853,2.3595,2.3675,2.3015,2.2727,2.282,2.291,2.297,2.2943,2.3107,2.3418,2.3555,2.3657,2.4056,2.4579,2.5442,2.5786,2.6039,2.6621,2.6978,2.7131,2.7189,2.719,2.719,2.719,2.719,2.719,2.7087,2.719,2.7224,2.7269,2.719,2.719,2.728,2.723,2.7182,2.7234,2.7126,2.6845,2.6564,2.62,2.5679,2.5256,2.4673,2.4137,2.3557,2.3113,2.2691,2.2615,2.2607,2.2534,2.2482,2.2367,2.2089,2.1914,2.1837,2.1939,2.2114,2.2393,2.2448,2.2255,2.2238,2.2333,2.7585,2.7555,2.6854,2.6659,2.6713,2.6593,2.6602,2.6797,2.7311,2.7585,2.7572,2.748,2.7414,2.7465,2.7495,2.7048,2.6503,2.6028,2.5713,2.527,2.5018,2.5137,2.5521,2.5153,2.5105,2.4938,2.4569,2.4151,2.37,2.3467,2.3122,2.2748,2.2572,2.2457,2.2334,2.2207,2.2188,2.2196,2.2184,2.2065,2.1835,2.1542,2.1271,2.1034,2.089,2.0936,2.1296,2.1596,2.1995,2.2778,2.2576,2.2962,2.3713,2.3974,2.3887,2.343,2.3002,2.2659,2.2871,2.2959,2.3193,2.3445,2.3784,2.403,2.4065,2.4134,2.4625,2.5603,2.5947,2.6394,2.6866,2.712,2.719,2.719,2.719,2.719,2.7201,2.7405,2.7383,2.7349,2.7405,2.7384,2.7384,2.7281,2.7203,2.7305,2.737,2.7348,2.7271,2.7195,2.709,2.6808,2.6168,2.5615,2.4962,2.4365,2.3791,2.3267,2.295,2.2615,2.2615,2.2615,2.2615,2.2542,2.2474,2.2457,2.2315,2.2298,2.2422,2.2474,2.2542,2.2589,2.2581,2.2615,2.2615,2.7488,2.7384,2.6349,2.6141,2.6349,2.5679,2.572,2.6356,2.6754,2.7143,2.7364,2.7143,2.7039,2.7151,2.739,2.721,2.665,2.6249,2.5683,2.5148,2.476,2.4599,2.4477,2.4352,2.4336,2.4432,2.4297,2.4242,2.3981,2.3779,2.3409,2.2985,2.2789,2.2714,2.2595,2.2274,2.2295,2.2297,2.2178,2.1884,2.1682,2.1455,2.1225,2.1055,2.1115,2.1296,2.1583,2.2243,2.2609,2.3222,2.3203,2.3556,2.3974,2.409,2.4002,2.3903,2.3487,2.3271,2.3278,2.3085,2.3303,2.3725,2.4053,2.4154,2.4198,2.4255,2.4717,2.589,2.6108,2.6522,2.704,2.7179,2.719,2.719,2.7246,2.7258,2.7326,2.7576,2.7679,2.7644,2.7668,2.7818,2.7909,2.7829,2.7842,2.7919,2.7859,2.7681,2.7536,2.734,2.7232,2.7085,2.629,2.546,2.4741,2.4078,2.3448,2.2987,2.2871,2.2615,2.2615,2.2615,2.2615,2.2615,2.2572,2.2572,2.2615,2.2589,2.2538,2.2572,2.2615,2.2615,2.2615,2.2615,2.2615,2.6984,2.695,2.6034,2.5928,2.6238,2.5201,2.533,2.6177,2.6583,2.6953,2.7199,2.7061,2.6899,2.695,2.7345,2.7351,2.6875,2.6533,2.5803,2.5074,2.4485,2.4192,2.4101,2.3957,2.392,2.4032,2.4078,2.4235,2.4393,2.4235,2.3946,2.3312,2.3275,2.3099,2.2979,2.281,2.2717,2.2712,2.2431,2.2198,2.2015,2.1804,2.1615,2.1551,2.1602,2.1786,2.2054,2.2622,2.3144,2.3536,2.3791,2.4,2.4118,2.4111,2.4357,2.4357,2.4146,2.3934,2.3825,2.3665,2.3546,2.3917,2.4352,2.4455,2.4476,2.4395,2.4912,2.6327,2.6488,2.6775,2.7051,2.719,2.719,2.7258,2.736,2.7371,2.7474,2.7874,2.8195,2.8299,2.8414,2.8701,2.8723,2.8562,2.854,2.8568,2.8393,2.8077,2.7776,2.748,2.7164,2.696,2.6052,2.5142,2.4335,2.3675,2.3084,2.2783,2.2666,2.2615,2.2615,2.2615,2.2615,2.2615,2.2615,2.2615,2.2615,2.2615,2.2615,2.2615,2.2615,2.2615,2.2615,2.2615,2.2615,2.5814,2.6096,2.6245,2.6242,2.6194,2.6114,2.6066,2.6236,2.6939,2.724,2.7391,2.7443,2.7431,2.7497,2.747,2.7506,2.7378,2.6219,2.5663,2.5074,2.4421,2.4251,2.4184,2.4151,2.407,2.4461,2.4414,2.459,2.4923,2.5008,2.4496,2.3899,2.4036,2.3699,2.3494,2.3414,2.3144,2.3063,2.2815,2.2804,2.2714,2.259,2.2452,2.2392,2.239,2.2551,2.3007,2.3202,2.3471,2.3894,2.4032,2.4118,2.4118,2.4118,2.4443,2.4935,2.4615,2.4501,2.4545,2.4144,2.3912,2.4213,2.4554,2.4845,2.5004,2.451,2.5222,2.6648,2.6832,2.7017,2.7156,2.719,2.719,2.7292,2.7473,2.7691,2.7909,2.838,2.87,2.8919,2.9126,2.9344,2.9458,2.9286,2.9136,2.9151,2.8645,2.8318,2.7862,2.7516,2.704,2.6568,2.5664,2.4759,2.383,2.3234,2.2833,2.2703,2.264,2.2615,2.2615,2.2615,2.2615,2.2615,2.2615,2.2615,2.2615,2.2615,2.2615,2.2615,2.2615,2.2615,2.2615,2.2615,2.2615,2.5147,2.5871,2.6084,2.6134,2.6042,2.5539,2.5566,2.5969,2.6373,2.6899,2.7401,2.745,2.7482,2.7482,2.7439,2.7216,2.6852,2.6429,2.5705,2.5224,2.4829,2.475,2.4756,2.4762,2.4829,2.4824,2.4837,2.4829,2.4918,2.5458,2.5543,2.524,2.5082,2.4746,2.4467,2.3903,2.3453,2.3104,2.2958,2.2918,2.2851,2.2751,2.265,2.261,2.2881,2.2963,2.3209,2.3555,2.3849,2.4032,2.4105,2.4118,2.4118,2.4118,2.4599,2.5321,2.4889,2.4911,2.4978,2.4542,2.4284,2.4561,2.4832,2.5096,2.5474,2.5235,2.561,2.6473,2.7061,2.7179,2.719,2.719,2.7223,2.7348,2.7599,2.7931,2.8299,2.8758,2.9102,2.9275,2.9584,2.9871,2.9952,2.9986,2.9837,2.9667,2.9093,2.8506,2.7972,2.736,2.6802,2.6225,2.5355,2.4449,2.3538,2.3046,2.264,2.2615,2.2615,2.2615,2.2615,2.2615,2.2615,2.2615,2.2615,2.2615,2.2615,2.2615,2.2615,2.2615,2.2615,2.2615,2.2615,2.2615,2.2658,2.448,2.5471,2.5589,2.5887,2.6123,2.5635,2.5655,2.6063,2.6265,2.6688,2.7395,2.7376,2.7369,2.7389,2.7348,2.6998,2.6521,2.6115,2.5595,2.5237,2.5074,2.5244,2.5319,2.5369,2.539,2.5261,2.5373,2.5472,2.5602,2.6007,2.6331,2.6412,2.6183,2.5764,2.4853,2.4272,2.3604,2.3279,2.3186,2.3193,2.3198,2.3149,2.3114,2.314,2.3376,2.3465,2.3594,2.3842,2.4006,2.4092,2.4118,2.4118,2.4118,2.4221,2.4616,2.5011,2.5208,2.5097,2.5133,2.4713,2.4527,2.4772,2.5098,2.543,2.5784,2.605,2.6475,2.6678,2.705,2.719,2.719,2.719,2.719,2.7303,2.7967,2.8356,2.8654,2.9045,2.9366,2.9631,2.9929,3.0124,3.0124,3.0124,2.9908,2.9659,2.9124,2.8464,2.7793,2.711,2.6344,2.5742,2.5081,2.4174,2.33,2.2933,2.2615,2.2615,2.2615,2.2615,2.2615,2.2615,2.2615,2.2615,2.2615,2.2615,2.2615,2.2615,2.2615,2.2615,2.2615,2.2615,2.2615,2.2632,2.2719,2.369,2.4775,2.4839,2.5577,2.6609,2.6749,2.6705,2.6675,2.6821,2.706,2.7316,2.7246,2.728,2.7325,2.7254,2.6817,2.625,2.5797,2.5444,2.5305,2.5259,2.5543,2.5908,2.6093,2.6069,2.63,2.6234,2.6258,2.6546,2.6687,2.7137,2.7377,2.7025,2.636,2.5074,2.4407,2.4077,2.404,2.3992,2.3939,2.39,2.3861,2.3827,2.3846,2.3884,2.3894,2.3947,2.4006,2.4118,2.4118,2.4118,2.4118,2.4118,2.4215,2.478,2.5722,2.5318,2.5422,2.5896,2.4853,2.4652,2.5011,2.5419,2.5911,2.6424,2.6795,2.6982,2.7026,2.7154,2.719,2.719,2.719,2.719,2.7418,2.8059,2.8586,2.8873,2.9389,2.9734,2.9883,3.0055,3.0204,3.0216,3.0148,2.9897,2.9566,2.9094,2.8455,2.7726,2.6824,2.5982,2.5328,2.4713,2.3935,2.315,2.2833,2.2615,2.2615,2.2615,2.2615,2.2615,2.2615,2.2615,2.2615,2.2615,2.2615,2.2615,2.2615,2.2615,2.2615,2.2615,2.2615,2.2615,2.2671,2.2809,2.3031,2.3624,2.4406,2.5282,2.6141,2.6625,2.68,2.6807,2.6866,2.6984,2.7107,2.7073,2.708,2.7099,2.7016,2.6581,2.5785,2.6057,2.5802,2.5056,2.5489,2.6093,2.6518,2.6785,2.6755,2.6725,2.6665,2.6641,2.6624,2.7017,2.7354,2.7576,2.7242,2.6416,2.5505,2.4796,2.4328,2.4218,2.4152,2.4092,2.4118,2.4118,2.4118,2.4118,2.4118,2.4118,2.4118,2.4118,2.4118,2.4118,2.4118,2.4124,2.4249,2.4418,2.5117,2.577,2.5565,2.5473,2.5465,2.4874,2.4959,2.5383,2.5874,2.638,2.6921,2.7061,2.7177,2.719,2.719,2.719,2.719,2.719,2.7224,2.7395,2.7921,2.846,2.8919,2.9653,3.0135,3.0124,3.0216,3.0204,3.0204,3.0148,2.9932,2.9497,2.9013,2.8385,2.7678,2.6572,2.5606,2.4962,2.4322,2.3612,2.3021,2.2745,2.2615,2.2615,2.2615,2.2615,2.2615,2.2615,2.2615,2.2615,2.2615,2.2615,2.2615,2.2615,2.2615,2.2615,2.2671,2.2688,2.2688,2.2809,2.298,2.2569,2.2859,2.3901,2.4894,2.5756,2.6497,2.68,2.68,2.6807,2.6886,2.6977,2.6958,2.6958,2.6977,2.6877,2.6538,2.5617,2.5925,2.6167,2.5394,2.6114,2.6659,2.7046,2.7336,2.724,2.7144,2.727,2.7351,2.7058,2.7411,2.7551,2.7435,2.7096,2.6621,2.5884,2.5217,2.4615,2.4456,2.4303,2.4118,2.4118,2.4118,2.4118,2.4118,2.4118,2.4118,2.4118,2.4118,2.4118,2.4131,2.4137,2.4228,2.4504,2.4844,2.544,2.5807,2.5946,2.5655,2.5185,2.5444,2.5532,2.5647,2.6206,2.669,2.7094,2.7177,2.7189,2.719,2.719,2.719,2.719,2.719,2.736,2.7532,2.8047,2.8609,2.9126,2.986,3.0204,3.0204,3.0204,3.0204,3.0204,3.0091,2.9977,2.9462,2.8943,2.8244,2.749,2.6298,2.5219,2.4557,2.3923,2.3238,2.2846,2.2703,2.2615,2.2615,2.2615,2.2615,2.2615,2.2615,2.2615,2.2615,2.2615,2.2615,2.2615,2.2624,2.2671,2.2753,2.2834,2.2826,2.2783,2.3002,2.328,2.2278,2.2502,2.3323,2.4434,2.5563,2.6395,2.6779,2.6786,2.68,2.6879,2.6971,2.6851,2.6858,2.6938,2.6866,2.6528,2.6209,2.6232,2.6294,2.6436,2.664,2.7045,2.7339,2.754,2.7495,2.754,2.7585,2.7555,2.7567,2.7576,2.753,2.7444,2.7289,2.6912,2.6337,2.5633,2.5034,2.4721,2.4325,2.4156,2.4118,2.4118,2.4118,2.4118,2.4118,2.4118,2.4144,2.4196,2.423,2.4236,2.4254,2.4557,2.4833,2.5037,2.5636,2.6087,2.6274,2.5771,2.5433,2.5846,2.5967,2.5977,2.6321,2.6747,2.7037,2.719,2.719,2.719,2.719,2.719,2.719,2.7348,2.7508,2.7931,2.8425,2.8919,2.9378,2.9826,3.0113,3.0204,3.0204,3.0204,3.0204,3.0125,2.9909,2.9278,2.8653,2.7834,2.6981,2.5805,2.4793,2.4087,2.3463,2.2858,2.2615,2.2615,2.2615,2.2615,2.2615,2.2615,2.2615,2.2615,2.2615,2.2615,2.2615,2.2615,2.2615,2.2688,2.2779,2.2877,2.3074,2.3182,2.3212,2.3469,2.3734,2.2217,2.2342,2.309,2.3971,2.4927,2.6085,2.6651,2.68,2.68,2.6833,2.6866,2.6806,2.6833,2.6846,2.6819,2.6496,2.6412,2.6457,2.6522,2.6689,2.6942,2.7281,2.7502,2.7585,2.7585,2.7585,2.7585,2.7585,2.7585,2.7585,2.7593,2.753,2.7461,2.7229,2.6755,2.6034,2.5453,2.4892,2.4404,2.4178,2.4118,2.4118,2.4131,2.4163,2.4189,2.4202,2.4288,2.459,2.4689,2.4741,2.509,2.5443,2.5508,2.5955,2.6507,2.6684,2.6535,2.6157,2.5925,2.6114,2.6284,2.6325,2.67,2.6957,2.7166,2.719,2.719,2.719,2.719,2.719,2.7315,2.7485,2.7725,2.8138,2.8666,2.9228,2.9642,2.9895,3.0159,3.0204,3.0204,3.0182,3.0193,3.0125,2.984,2.9128,2.835,2.7468,2.6468,2.5294,2.4449,2.3753,2.3225,2.2691,2.2615,2.2615,2.2615,2.2615,2.2615,2.2615,2.2615,2.2615,2.2615,2.2615,2.2615,2.2615,2.2615,2.2736,2.292,2.3224,2.3416,2.3545,2.37,2.3927,2.4098,2.2188,2.2276,2.2732,2.3518,2.4624,2.5862,2.654,2.6679,2.6752,2.68,2.68,2.68,2.68,2.6807,2.6784,2.6661,2.65,2.6759,2.6903,2.7039,2.7183,2.7405,2.7541,2.7593,2.7585,2.7585,2.7585,2.7585,2.7585,2.7585,2.7593,2.7587,2.7585,2.7429,2.6977,2.6264,2.5626,2.5055,2.4556,2.4214,2.4118,2.4124,2.4215,2.4392,2.4431,2.4536,2.4745,2.5173,2.5278,2.5309,2.5709,2.5926,2.6135,2.6679,2.7015,2.7136,2.6854,2.6559,2.6335,2.6404,2.6491,2.6606,2.6922,2.712,2.7189,2.719,2.719,2.719,2.719,2.7224,2.7428,2.7634,2.7954,2.8286,2.8906,2.9527,2.9802,3.0032,3.0136,3.0193,3.0193,3.0148,3.0102,3.0045,2.968,2.885,2.7905,2.6901,2.5892,2.4768,2.4078,2.3504,2.305,2.2615,2.2615,2.2615,2.2615,2.2615,2.2615,2.2615,2.2615,2.2615,2.2615,2.2615,2.2615,2.2615,2.2615,2.2894,2.3121,2.3416,2.3741,2.3969,2.4136,2.4342,2.4461,2.2188,2.2213,2.2378,2.3272,2.453,2.568,2.6273,2.6498,2.6673,2.68,2.68,2.68,2.68,2.68,2.6792,2.6851,2.6771,2.6914,2.7054,2.7333,2.7267,2.7386,2.7526,2.7581,2.7568,2.7581,2.7585,2.7585,2.7585,2.7585,2.7585,2.7585,2.7585,2.7454,2.7096,2.6256,2.5632,2.5252,2.46,2.4118,2.4129,2.4195,2.4405,2.4861,2.507,2.5238,2.5607,2.5809,2.5861,2.5874,2.6044,2.6326,2.6731,2.7115,2.7377,2.7343,2.7083,2.6849,2.6656,2.6624,2.6611,2.6713,2.6925,2.7111,2.717,2.719,2.719,2.719,2.719,2.719,2.7338,2.768,2.8034,2.8332,2.8792,2.9239,2.9481,2.9734,2.994,3.0044,3.0204,3.0148,2.9977,2.9909,2.9485,2.8583,2.7622,2.6566,2.5552,2.4461,2.3765,2.3292,2.2933,2.2615,2.2615,2.2615,2.2615,2.2615,2.2615,2.2615,2.2615,2.2615,2.2615,2.2615,2.2615,2.2615,2.2663,2.2997,2.3323,2.3597,2.3926,2.434,2.4562,2.4662,2.4696,2.2188,2.2244,2.2718,2.3442,2.4248,2.511,2.5745,2.6211,2.6465,2.6673,2.6779,2.68,2.68,2.68,2.68,2.684,2.6853,2.6886,2.6958,2.7081,2.714,2.7286,2.7433,2.7476,2.7505,2.7575,2.7585,2.7585,2.7585,2.7585,2.7585,2.7585,2.756,2.7429,2.7076,2.6216,2.5632,2.5301,2.4687,2.4239,2.4222,2.457,2.4906,2.5167,2.5343,2.566,2.5997,2.6274,2.6394,2.6507,2.6919,2.7154,2.7324,2.7425,2.7477,2.7436,2.7215,2.7013,2.6837,2.6725,2.6665,2.6764,2.6926,2.7053,2.7139,2.717,2.719,2.719,2.719,2.719,2.7326,2.7714,2.8102,2.839,2.8723,2.8975,2.9228,2.9481,2.9757,2.9929,3.0147,3.0045,2.9874,2.9554,2.9139,2.8397,2.7481,2.6506,2.5611,2.4593,2.3641,2.315,2.2846,2.2615,2.2615,2.2615,2.2615,2.2615,2.2615,2.2615,2.2615,2.2615,2.2615,2.2615,2.2615,2.2615,2.2795,2.3225,2.3537,2.3657,2.405,2.4408,2.4597,2.4713,2.4764,2.2188,2.2272,2.2851,2.3306,2.3789,2.4698,2.5356,2.5734,2.6151,2.6445,2.6666,2.6753,2.68,2.68,2.68,2.68,2.68,2.6792,2.6905,2.6971,2.7023,2.7198,2.7292,2.7389,2.7501,2.7562,2.7593,2.7585,2.7572,2.7587,2.7587,2.7524,2.7473,2.7276,2.6875,2.6115,2.5536,2.521,2.4681,2.4545,2.4512,2.4854,2.5398,2.5625,2.6002,2.6266,2.6573,2.686,2.6884,2.6988,2.7216,2.7298,2.7376,2.7452,2.7481,2.7468,2.7332,2.7136,2.6906,2.6764,2.6649,2.673,2.6872,2.6975,2.7159,2.719,2.719,2.719,2.719,2.719,2.7453,2.7806,2.8241,2.8585,2.9171,2.9653,2.9734,2.9849,2.9919,2.9909,2.992,2.9692,2.9496,2.9243,2.8804,2.8291,2.7351,2.6612,2.5693,2.4827,2.3852,2.3075,2.282,2.2653,2.2615,2.2615,2.2615,2.2615,2.2615,2.2615,2.2615,2.2615,2.2615,2.2663,2.2671,2.2615,2.286,2.3289,2.3344,2.3357,2.3883,2.4473,2.4597,2.4716,2.4781,2.2188,2.228,2.2758,2.3041,2.3258,2.4255,2.4925,2.5256,2.575,2.616,2.6445,2.664,2.674,2.68,2.68,2.68,2.68,2.68,2.6879,2.6925,2.6951,2.7088,2.7209,2.7337,2.7414,2.7482,2.753,2.7543,2.7543,2.7562,2.7537,2.7412,2.7226,2.7031,2.6457,2.5872,2.5362,2.5226,2.5013,2.5105,2.5136,2.5214,2.5842,2.6384,2.6803,2.704,2.7292,2.736,2.7297,2.7239,2.7226,2.7272,2.7294,2.7352,2.7361,2.7334,2.7244,2.6981,2.6761,2.6672,2.6567,2.6558,2.6712,2.6881,2.7047,2.718,2.718,2.719,2.719,2.7292,2.7543,2.7886,2.8322,2.8711,2.9389,2.9975,3.001,3.0021,2.9931,2.9841,2.9657,2.9405,2.9116,2.8885,2.8455,2.7951,2.7385,2.6658,2.5899,2.5096,2.4211,2.3441,2.295,2.2795,2.2653,2.2615,2.2615,2.2615,2.2615,2.2615,2.2641,2.2719,2.2766,2.2792,2.2779,2.2851,2.2946,2.3271,2.3241,2.3254,2.3951,2.4579,2.4602,2.4713,2.4781,2.2188,2.2228,2.2322,2.2626,2.3097,2.3399,2.405,2.4982,2.5264,2.5675,2.6097,2.6318,2.6521,2.6786,2.68,2.6779,2.6745,2.6773,2.68,2.6833,2.6866,2.6971,2.7073,2.7196,2.719,2.7284,2.7406,2.7431,2.7495,2.7556,2.7524,2.7389,2.6982,2.6707,2.6313,2.5772,2.5365,2.5327,2.5406,2.5463,2.617,2.6313,2.6423,2.6808,2.7118,2.7257,2.7343,2.7319,2.7214,2.7113,2.7053,2.7125,2.7159,2.7142,2.71,2.6981,2.6909,2.6606,2.638,2.631,2.6182,2.6089,2.6261,2.6572,2.6819,2.7159,2.717,2.719,2.7201,2.7246,2.7486,2.7885,2.8286,2.8527,2.9033,2.9436,2.9643,2.9644,2.9623,2.958,2.9508,2.9186,2.8803,2.8501,2.8104,2.7691,2.7465,2.6786,2.6296,2.5438,2.4473,2.379,2.3088,2.282,2.2615,2.2615,2.2615,2.2615,2.2667,2.2748,2.2817,2.2903,2.2972,2.3139,2.3224,2.3306,2.34,2.331,2.346,2.3588,2.4242,2.4708,2.4679,2.4696,2.4781]}]]